<?xml version="1.0" encoding="UTF-8" standalone="no" ?>
<gpx xmlns="http://www.topografix.com/GPX/1/1" xmlns:xsi="http://www.w3.org/2001/XMLSchema-instance" xsi:schemaLocation="http://www.topografix.com/GPX/1/1 http://www.topografix.com/GPX/1/1/gpx.xsd" version="1.1" creator="VisuGPX - https://www.visugpx.com">
  <metadata>
    <name>2022-02-24  Gigondas</name>
  </metadata>
  <wpt lat="44.15602" lon="5.04806">
    <ele>209.1</ele>
    <name><![CDATA[Cascade st Christophe]]></name>
  </wpt>
  <wpt lat="44.15597" lon="5.04742">
    <ele>234.2</ele>
  </wpt>
  <wpt lat="44.1551" lon="5.02375">
    <ele>580.1</ele>
    <name><![CDATA[Chambre du turc]]></name>
  </wpt>
  <trk>
    <name><![CDATA[2021-12-29 16:55:38]]></name>
    <extensions>
      <line xmlns="http://www.topografix.com/GPX/gpx_style/0/2">
        <color>0000FF</color>
        <width>4</width>
      </line>
    </extensions>
    <trkseg>
      <trkpt lat="44.16118" lon="5.01736">
        <ele>311.9</ele>
        <time>2021-12-29T07:59:16Z</time>
      </trkpt>
      <trkpt lat="44.16111" lon="5.01736">
        <ele>312</ele>
      </trkpt>
      <trkpt lat="44.16104" lon="5.01738">
        <ele>312.2</ele>
      </trkpt>
      <trkpt lat="44.16088" lon="5.0174">
        <ele>312.6</ele>
      </trkpt>
      <trkpt lat="44.16075" lon="5.01741">
        <ele>312.2</ele>
      </trkpt>
      <trkpt lat="44.16064" lon="5.01747">
        <ele>312.5</ele>
      </trkpt>
      <trkpt lat="44.16056" lon="5.01752">
        <ele>313.4</ele>
      </trkpt>
      <trkpt lat="44.16042" lon="5.01764">
        <ele>313.9</ele>
      </trkpt>
      <trkpt lat="44.16036" lon="5.01776">
        <ele>315.8</ele>
      </trkpt>
      <trkpt lat="44.16036" lon="5.01785">
        <ele>317.4</ele>
      </trkpt>
      <trkpt lat="44.16025" lon="5.01793">
        <ele>317.8</ele>
      </trkpt>
      <trkpt lat="44.16017" lon="5.01798">
        <ele>318.7</ele>
      </trkpt>
      <trkpt lat="44.16005" lon="5.01808">
        <ele>319.8</ele>
      </trkpt>
      <trkpt lat="44.16002" lon="5.01817">
        <ele>321.8</ele>
      </trkpt>
      <trkpt lat="44.15996" lon="5.01834">
        <ele>326.3</ele>
        <time>2021-12-29T07:59:31Z</time>
      </trkpt>
      <trkpt lat="44.15991" lon="5.01844">
        <ele>329.1</ele>
        <time>2021-12-29T07:59:43Z</time>
      </trkpt>
      <trkpt lat="44.15987" lon="5.01853">
        <ele>330.1</ele>
        <time>2021-12-29T07:59:56Z</time>
      </trkpt>
      <trkpt lat="44.15988" lon="5.01856">
        <ele>330.4</ele>
        <time>2021-12-29T08:00:04Z</time>
      </trkpt>
      <trkpt lat="44.15991" lon="5.01861">
        <ele>331.3</ele>
        <time>2021-12-29T08:00:18Z</time>
      </trkpt>
      <trkpt lat="44.15994" lon="5.01864">
        <ele>332.1</ele>
        <time>2021-12-29T08:00:32Z</time>
      </trkpt>
      <trkpt lat="44.15996" lon="5.01868">
        <ele>332.9</ele>
      </trkpt>
      <trkpt lat="44.16002" lon="5.01865">
        <ele>333.7</ele>
        <time>2021-12-29T08:00:51Z</time>
      </trkpt>
      <trkpt lat="44.16007" lon="5.01862">
        <ele>334.1</ele>
      </trkpt>
      <trkpt lat="44.16013" lon="5.01864">
        <ele>335.2</ele>
        <time>2021-12-29T08:01:06Z</time>
      </trkpt>
      <trkpt lat="44.16016" lon="5.01871">
        <ele>336.6</ele>
      </trkpt>
      <trkpt lat="44.16015" lon="5.01878">
        <ele>337.3</ele>
        <time>2021-12-29T08:01:34Z</time>
      </trkpt>
      <trkpt lat="44.16006" lon="5.01894">
        <ele>336.6</ele>
        <time>2021-12-29T08:01:47Z</time>
      </trkpt>
      <trkpt lat="44.16" lon="5.01903">
        <ele>338.5</ele>
        <time>2021-12-29T08:01:55Z</time>
      </trkpt>
      <trkpt lat="44.15992" lon="5.0191">
        <ele>337.5</ele>
        <time>2021-12-29T08:02:11Z</time>
      </trkpt>
      <trkpt lat="44.15987" lon="5.01915">
        <ele>337.1</ele>
      </trkpt>
      <trkpt lat="44.15984" lon="5.01922">
        <ele>337.7</ele>
        <time>2021-12-29T08:02:16Z</time>
      </trkpt>
      <trkpt lat="44.15982" lon="5.01927">
        <ele>337.08</ele>
        <time>2021-12-29T08:02:18Z</time>
      </trkpt>
      <trkpt lat="44.15976" lon="5.01949">
        <ele>341.5</ele>
        <time>2021-12-29T08:02:33Z</time>
      </trkpt>
      <trkpt lat="44.15973" lon="5.01965">
        <ele>343.2</ele>
        <time>2021-12-29T08:02:46Z</time>
      </trkpt>
      <trkpt lat="44.15975" lon="5.0198">
        <ele>346</ele>
        <time>2021-12-29T08:03:01Z</time>
      </trkpt>
      <trkpt lat="44.15973" lon="5.02003">
        <ele>348.9</ele>
        <time>2021-12-29T08:03:16Z</time>
      </trkpt>
      <trkpt lat="44.15969" lon="5.02014">
        <ele>349.6</ele>
      </trkpt>
      <trkpt lat="44.15966" lon="5.02025">
        <ele>351.1</ele>
        <time>2021-12-29T08:03:31Z</time>
      </trkpt>
      <trkpt lat="44.15974" lon="5.02033">
        <ele>349.1</ele>
        <time>2021-12-29T08:03:45Z</time>
      </trkpt>
      <trkpt lat="44.15977" lon="5.02038">
        <ele>356.4</ele>
        <time>2021-12-29T08:03:58Z</time>
      </trkpt>
      <trkpt lat="44.15973" lon="5.02056">
        <ele>356.4</ele>
        <time>2021-12-29T08:04:12Z</time>
      </trkpt>
      <trkpt lat="44.15971" lon="5.02068">
        <ele>358.4</ele>
        <time>2021-12-29T08:04:29Z</time>
      </trkpt>
      <trkpt lat="44.15964" lon="5.02084">
        <ele>360.1</ele>
        <time>2021-12-29T08:04:42Z</time>
      </trkpt>
      <trkpt lat="44.15956" lon="5.02099">
        <ele>355.83</ele>
        <time>2021-12-29T08:04:54Z</time>
      </trkpt>
      <trkpt lat="44.15954" lon="5.02107">
        <ele>356.79</ele>
        <time>2021-12-29T08:04:59Z</time>
      </trkpt>
      <trkpt lat="44.15946" lon="5.0213">
        <ele>358.23</ele>
        <time>2021-12-29T08:05:16Z</time>
      </trkpt>
      <trkpt lat="44.15946" lon="5.02132">
        <ele>358.23</ele>
        <time>2021-12-29T08:05:17Z</time>
      </trkpt>
      <trkpt lat="44.15942" lon="5.02157">
        <ele>361.11</ele>
        <time>2021-12-29T08:05:35Z</time>
      </trkpt>
      <trkpt lat="44.15936" lon="5.02182">
        <ele>364</ele>
        <time>2021-12-29T08:05:50Z</time>
      </trkpt>
      <trkpt lat="44.15931" lon="5.02205">
        <ele>367.36</ele>
        <time>2021-12-29T08:06:06Z</time>
      </trkpt>
      <trkpt lat="44.15929" lon="5.02221">
        <ele>368.8</ele>
        <time>2021-12-29T08:06:20Z</time>
      </trkpt>
      <trkpt lat="44.15922" lon="5.0224">
        <ele>371.69</ele>
        <time>2021-12-29T08:06:34Z</time>
      </trkpt>
      <trkpt lat="44.15921" lon="5.02245">
        <ele>372.17</ele>
        <time>2021-12-29T08:06:38Z</time>
      </trkpt>
      <trkpt lat="44.15919" lon="5.02251">
        <ele>373.13</ele>
        <time>2021-12-29T08:06:42Z</time>
      </trkpt>
      <trkpt lat="44.15912" lon="5.02274">
        <ele>376.01</ele>
        <time>2021-12-29T08:07:00Z</time>
      </trkpt>
      <trkpt lat="44.15904" lon="5.02296">
        <ele>378.42</ele>
        <time>2021-12-29T08:07:15Z</time>
      </trkpt>
      <trkpt lat="44.15896" lon="5.02317">
        <ele>381.3</ele>
        <time>2021-12-29T08:07:30Z</time>
      </trkpt>
      <trkpt lat="44.15894" lon="5.02322">
        <ele>382.26</ele>
        <time>2021-12-29T08:07:36Z</time>
      </trkpt>
      <trkpt lat="44.15894" lon="5.02324">
        <ele>382.74</ele>
        <time>2021-12-29T08:07:38Z</time>
      </trkpt>
      <trkpt lat="44.15891" lon="5.02335">
        <ele>383.7</ele>
        <time>2021-12-29T08:07:46Z</time>
      </trkpt>
      <trkpt lat="44.15889" lon="5.02356">
        <ele>387.07</ele>
        <time>2021-12-29T08:08:02Z</time>
      </trkpt>
      <trkpt lat="44.15889" lon="5.02379">
        <ele>388.99</ele>
        <time>2021-12-29T08:08:17Z</time>
      </trkpt>
      <trkpt lat="44.15891" lon="5.02406">
        <ele>390.91</ele>
        <time>2021-12-29T08:08:33Z</time>
      </trkpt>
      <trkpt lat="44.15892" lon="5.02429">
        <ele>393.32</ele>
        <time>2021-12-29T08:08:49Z</time>
      </trkpt>
      <trkpt lat="44.15887" lon="5.02443">
        <ele>398.4</ele>
        <time>2021-12-29T08:09:03Z</time>
      </trkpt>
      <trkpt lat="44.15894" lon="5.02465">
        <ele>399</ele>
        <time>2021-12-29T08:09:19Z</time>
      </trkpt>
      <trkpt lat="44.15902" lon="5.02482">
        <ele>399.2</ele>
        <time>2021-12-29T08:09:34Z</time>
      </trkpt>
      <trkpt lat="44.15908" lon="5.02498">
        <ele>398.1</ele>
        <time>2021-12-29T08:09:47Z</time>
      </trkpt>
      <trkpt lat="44.15917" lon="5.02523">
        <ele>394.5</ele>
        <time>2021-12-29T08:10:05Z</time>
      </trkpt>
      <trkpt lat="44.15925" lon="5.0254">
        <ele>394.6</ele>
        <time>2021-12-29T08:10:20Z</time>
      </trkpt>
      <trkpt lat="44.1593" lon="5.02548">
        <ele>394.5</ele>
        <time>2021-12-29T08:10:26Z</time>
      </trkpt>
      <trkpt lat="44.15935" lon="5.02567">
        <ele>386.11</ele>
        <time>2021-12-29T08:10:39Z</time>
      </trkpt>
      <trkpt lat="44.15939" lon="5.02575">
        <ele>385.63</ele>
        <time>2021-12-29T08:10:45Z</time>
      </trkpt>
      <trkpt lat="44.15954" lon="5.02599">
        <ele>383.7</ele>
        <time>2021-12-29T08:11:02Z</time>
      </trkpt>
      <trkpt lat="44.15971" lon="5.02616">
        <ele>381.78</ele>
        <time>2021-12-29T08:11:21Z</time>
      </trkpt>
      <trkpt lat="44.15984" lon="5.02634">
        <ele>380.82</ele>
        <time>2021-12-29T08:11:38Z</time>
      </trkpt>
      <trkpt lat="44.15984" lon="5.02637">
        <ele>380.82</ele>
        <time>2021-12-29T08:11:59Z</time>
      </trkpt>
      <trkpt lat="44.15999" lon="5.02642">
        <ele>380.82</ele>
        <time>2021-12-29T08:12:12Z</time>
      </trkpt>
      <trkpt lat="44.16017" lon="5.02657">
        <ele>380.34</ele>
        <time>2021-12-29T08:12:31Z</time>
      </trkpt>
      <trkpt lat="44.16025" lon="5.02664">
        <ele>380.34</ele>
        <time>2021-12-29T08:12:44Z</time>
      </trkpt>
      <trkpt lat="44.1603" lon="5.02667">
        <ele>380.34</ele>
        <time>2021-12-29T08:12:58Z</time>
      </trkpt>
      <trkpt lat="44.16042" lon="5.02679">
        <ele>379.86</ele>
        <time>2021-12-29T08:13:13Z</time>
      </trkpt>
      <trkpt lat="44.16057" lon="5.02691">
        <ele>379.86</ele>
        <time>2021-12-29T08:13:30Z</time>
      </trkpt>
      <trkpt lat="44.1606" lon="5.02692">
        <ele>379.86</ele>
        <time>2021-12-29T08:13:36Z</time>
      </trkpt>
      <trkpt lat="44.16076" lon="5.02705">
        <ele>379.86</ele>
        <time>2021-12-29T08:13:54Z</time>
      </trkpt>
      <trkpt lat="44.16078" lon="5.02712">
        <ele>379.86</ele>
        <time>2021-12-29T08:14:06Z</time>
      </trkpt>
      <trkpt lat="44.16079" lon="5.02713">
        <ele>379.86</ele>
        <time>2021-12-29T08:14:09Z</time>
      </trkpt>
      <trkpt lat="44.16082" lon="5.02717">
        <ele>379.86</ele>
        <time>2021-12-29T08:14:13Z</time>
      </trkpt>
      <trkpt lat="44.16097" lon="5.02727">
        <ele>380.82</ele>
        <time>2021-12-29T08:14:30Z</time>
      </trkpt>
      <trkpt lat="44.16106" lon="5.02733">
        <ele>381.3</ele>
        <time>2021-12-29T08:14:45Z</time>
      </trkpt>
      <trkpt lat="44.16121" lon="5.02736">
        <ele>382.26</ele>
        <time>2021-12-29T08:15:00Z</time>
      </trkpt>
      <trkpt lat="44.16136" lon="5.02737">
        <ele>382.26</ele>
        <time>2021-12-29T08:15:15Z</time>
      </trkpt>
      <trkpt lat="44.16158" lon="5.02745">
        <ele>380.34</ele>
        <time>2021-12-29T08:15:32Z</time>
      </trkpt>
      <trkpt lat="44.16164" lon="5.02747">
        <ele>379.86</ele>
        <time>2021-12-29T08:15:45Z</time>
      </trkpt>
      <trkpt lat="44.16168" lon="5.02738">
        <ele>381.3</ele>
        <time>2021-12-29T08:16:00Z</time>
      </trkpt>
      <trkpt lat="44.16171" lon="5.02738">
        <ele>382.74</ele>
        <time>2021-12-29T08:16:06Z</time>
      </trkpt>
      <trkpt lat="44.16174" lon="5.02737">
        <ele>385.63</ele>
        <time>2021-12-29T08:16:22Z</time>
      </trkpt>
      <trkpt lat="44.16176" lon="5.02721">
        <ele>388.99</ele>
        <time>2021-12-29T08:16:37Z</time>
      </trkpt>
      <trkpt lat="44.16185" lon="5.02712">
        <ele>391.87</ele>
        <time>2021-12-29T08:16:53Z</time>
      </trkpt>
      <trkpt lat="44.1619" lon="5.02704">
        <ele>394.76</ele>
        <time>2021-12-29T08:17:06Z</time>
      </trkpt>
      <trkpt lat="44.16194" lon="5.02698">
        <ele>397.64</ele>
        <time>2021-12-29T08:17:20Z</time>
      </trkpt>
      <trkpt lat="44.16206" lon="5.02705">
        <ele>399.57</ele>
        <time>2021-12-29T08:17:38Z</time>
      </trkpt>
      <trkpt lat="44.16214" lon="5.02707">
        <ele>402.93</ele>
        <time>2021-12-29T08:17:51Z</time>
      </trkpt>
      <trkpt lat="44.16224" lon="5.02707">
        <ele>405.81</ele>
        <time>2021-12-29T08:18:06Z</time>
      </trkpt>
      <trkpt lat="44.1623" lon="5.02705">
        <ele>408.22</ele>
        <time>2021-12-29T08:18:22Z</time>
      </trkpt>
      <trkpt lat="44.16238" lon="5.027">
        <ele>411.58</ele>
        <time>2021-12-29T08:18:38Z</time>
      </trkpt>
      <trkpt lat="44.16245" lon="5.02697">
        <ele>413.98</ele>
        <time>2021-12-29T08:18:52Z</time>
      </trkpt>
      <trkpt lat="44.16252" lon="5.02689">
        <ele>417.83</ele>
        <time>2021-12-29T08:19:09Z</time>
      </trkpt>
      <trkpt lat="44.16259" lon="5.02685">
        <ele>420.23</ele>
        <time>2021-12-29T08:19:24Z</time>
      </trkpt>
      <trkpt lat="44.16264" lon="5.02676">
        <ele>423.12</ele>
        <time>2021-12-29T08:19:41Z</time>
      </trkpt>
      <trkpt lat="44.16268" lon="5.02671">
        <ele>426.48</ele>
        <time>2021-12-29T08:19:57Z</time>
      </trkpt>
      <trkpt lat="44.16277" lon="5.02672">
        <ele>429.85</ele>
        <time>2021-12-29T08:20:15Z</time>
      </trkpt>
      <trkpt lat="44.16282" lon="5.02672">
        <ele>431.77</ele>
        <time>2021-12-29T08:20:31Z</time>
      </trkpt>
      <trkpt lat="44.1629" lon="5.02674">
        <ele>435.13</ele>
        <time>2021-12-29T08:20:47Z</time>
      </trkpt>
      <trkpt lat="44.16296" lon="5.02672">
        <ele>437.54</ele>
        <time>2021-12-29T08:21:04Z</time>
      </trkpt>
      <trkpt lat="44.16299" lon="5.02677">
        <ele>439.94</ele>
        <time>2021-12-29T08:21:20Z</time>
      </trkpt>
      <trkpt lat="44.16304" lon="5.02677">
        <ele>443.31</ele>
        <time>2021-12-29T08:21:37Z</time>
      </trkpt>
      <trkpt lat="44.1631" lon="5.02678">
        <ele>444.27</ele>
        <time>2021-12-29T08:22:01Z</time>
      </trkpt>
      <trkpt lat="44.16317" lon="5.02679">
        <ele>446.67</ele>
        <time>2021-12-29T08:22:19Z</time>
      </trkpt>
      <trkpt lat="44.16323" lon="5.02685">
        <ele>450.03</ele>
        <time>2021-12-29T08:22:35Z</time>
      </trkpt>
      <trkpt lat="44.16326" lon="5.02693">
        <ele>451</ele>
        <time>2021-12-29T08:22:51Z</time>
      </trkpt>
      <trkpt lat="44.1633" lon="5.02694">
        <ele>452.92</ele>
        <time>2021-12-29T08:23:08Z</time>
      </trkpt>
      <trkpt lat="44.16333" lon="5.02701">
        <ele>454.84</ele>
        <time>2021-12-29T08:23:24Z</time>
      </trkpt>
      <trkpt lat="44.16334" lon="5.02707">
        <ele>456.76</ele>
        <time>2021-12-29T08:23:38Z</time>
      </trkpt>
      <trkpt lat="44.16338" lon="5.02709">
        <ele>458.69</ele>
        <time>2021-12-29T08:23:54Z</time>
      </trkpt>
      <trkpt lat="44.16346" lon="5.02712">
        <ele>461.57</ele>
        <time>2021-12-29T08:24:11Z</time>
      </trkpt>
      <trkpt lat="44.16348" lon="5.02718">
        <ele>463.49</ele>
        <time>2021-12-29T08:24:25Z</time>
      </trkpt>
      <trkpt lat="44.16351" lon="5.02725">
        <ele>465.42</ele>
        <time>2021-12-29T08:24:38Z</time>
      </trkpt>
      <trkpt lat="44.16357" lon="5.02731">
        <ele>467.82</ele>
        <time>2021-12-29T08:24:52Z</time>
      </trkpt>
      <trkpt lat="44.16363" lon="5.02738">
        <ele>470.22</ele>
        <time>2021-12-29T08:25:07Z</time>
      </trkpt>
      <trkpt lat="44.1637" lon="5.02743">
        <ele>471.66</ele>
        <time>2021-12-29T08:25:21Z</time>
      </trkpt>
      <trkpt lat="44.1638" lon="5.0275">
        <ele>474.55</ele>
        <time>2021-12-29T08:25:36Z</time>
      </trkpt>
      <trkpt lat="44.16385" lon="5.02756">
        <ele>475.99</ele>
        <time>2021-12-29T08:25:51Z</time>
      </trkpt>
      <trkpt lat="44.16384" lon="5.02761">
        <ele>475.99</ele>
        <time>2021-12-29T08:26:06Z</time>
      </trkpt>
      <trkpt lat="44.16386" lon="5.02759">
        <ele>475.99</ele>
        <time>2021-12-29T08:26:26Z</time>
      </trkpt>
      <trkpt lat="44.16383" lon="5.02761">
        <ele>475.99</ele>
        <time>2021-12-29T08:26:46Z</time>
      </trkpt>
      <trkpt lat="44.16389" lon="5.02766">
        <ele>475.99</ele>
        <time>2021-12-29T08:27:04Z</time>
      </trkpt>
      <trkpt lat="44.16393" lon="5.02776">
        <ele>474.55</ele>
        <time>2021-12-29T08:27:16Z</time>
      </trkpt>
      <trkpt lat="44.16398" lon="5.02796">
        <ele>471.66</ele>
        <time>2021-12-29T08:27:32Z</time>
      </trkpt>
      <trkpt lat="44.16404" lon="5.02815">
        <ele>472.63</ele>
        <time>2021-12-29T08:27:45Z</time>
      </trkpt>
      <trkpt lat="44.16406" lon="5.02835">
        <ele>476.47</ele>
        <time>2021-12-29T08:27:59Z</time>
      </trkpt>
      <trkpt lat="44.16407" lon="5.02843">
        <ele>477.91</ele>
        <time>2021-12-29T08:28:05Z</time>
      </trkpt>
      <trkpt lat="44.16412" lon="5.02859">
        <ele>480.8</ele>
        <time>2021-12-29T08:28:20Z</time>
      </trkpt>
      <trkpt lat="44.16415" lon="5.02872">
        <ele>483.68</ele>
        <time>2021-12-29T08:28:34Z</time>
      </trkpt>
      <trkpt lat="44.16422" lon="5.02887">
        <ele>486.08</ele>
        <time>2021-12-29T08:28:49Z</time>
      </trkpt>
      <trkpt lat="44.16431" lon="5.02895">
        <ele>489.45</ele>
        <time>2021-12-29T08:29:04Z</time>
      </trkpt>
      <trkpt lat="44.16438" lon="5.02902">
        <ele>491.37</ele>
        <time>2021-12-29T08:29:15Z</time>
      </trkpt>
      <trkpt lat="44.16452" lon="5.02915">
        <ele>491.85</ele>
        <time>2021-12-29T08:29:33Z</time>
      </trkpt>
      <trkpt lat="44.16463" lon="5.02928">
        <ele>493.29</ele>
        <time>2021-12-29T08:29:49Z</time>
      </trkpt>
      <trkpt lat="44.16471" lon="5.02938">
        <ele>494.26</ele>
        <time>2021-12-29T08:30:00Z</time>
      </trkpt>
      <trkpt lat="44.16484" lon="5.02955">
        <ele>495.22</ele>
        <time>2021-12-29T08:30:16Z</time>
      </trkpt>
      <trkpt lat="44.16493" lon="5.02973">
        <ele>495.7</ele>
        <time>2021-12-29T08:30:32Z</time>
      </trkpt>
      <trkpt lat="44.16494" lon="5.02993">
        <ele>496.66</ele>
        <time>2021-12-29T08:30:49Z</time>
      </trkpt>
      <trkpt lat="44.165" lon="5.03003">
        <ele>498.1</ele>
        <time>2021-12-29T08:31:08Z</time>
      </trkpt>
      <trkpt lat="44.16504" lon="5.03002">
        <ele>498.58</ele>
        <time>2021-12-29T08:31:26Z</time>
      </trkpt>
      <trkpt lat="44.16506" lon="5.03005">
        <ele>498.58</ele>
        <time>2021-12-29T08:31:32Z</time>
      </trkpt>
      <trkpt lat="44.16513" lon="5.03019">
        <ele>500.02</ele>
        <time>2021-12-29T08:31:47Z</time>
      </trkpt>
      <trkpt lat="44.16515" lon="5.03025">
        <ele>500.02</ele>
        <time>2021-12-29T08:32:03Z</time>
      </trkpt>
      <trkpt lat="44.16514" lon="5.03028">
        <ele>500.5</ele>
        <time>2021-12-29T08:32:24Z</time>
      </trkpt>
      <trkpt lat="44.16514" lon="5.0303">
        <ele>500.5</ele>
        <time>2021-12-29T08:32:52Z</time>
      </trkpt>
      <trkpt lat="44.16516" lon="5.03032">
        <ele>500.98</ele>
        <time>2021-12-29T08:33:20Z</time>
      </trkpt>
      <trkpt lat="44.16515" lon="5.0303">
        <ele>500.98</ele>
        <time>2021-12-29T08:33:48Z</time>
      </trkpt>
      <trkpt lat="44.16517" lon="5.03028">
        <ele>500.98</ele>
        <time>2021-12-29T08:34:05Z</time>
      </trkpt>
      <trkpt lat="44.1652" lon="5.03027">
        <ele>501.46</ele>
        <time>2021-12-29T08:34:30Z</time>
      </trkpt>
      <trkpt lat="44.16519" lon="5.03028">
        <ele>501.46</ele>
        <time>2021-12-29T08:34:59Z</time>
      </trkpt>
      <trkpt lat="44.1652" lon="5.03038">
        <ele>502.91</ele>
        <time>2021-12-29T08:35:17Z</time>
      </trkpt>
      <trkpt lat="44.1652" lon="5.03041">
        <ele>503.39</ele>
        <time>2021-12-29T08:35:33Z</time>
      </trkpt>
      <trkpt lat="44.16518" lon="5.03043">
        <ele>503.87</ele>
        <time>2021-12-29T08:35:47Z</time>
      </trkpt>
      <trkpt lat="44.1652" lon="5.03047">
        <ele>504.35</ele>
        <time>2021-12-29T08:36:07Z</time>
      </trkpt>
      <trkpt lat="44.16529" lon="5.03068">
        <ele>507.71</ele>
        <time>2021-12-29T08:36:24Z</time>
      </trkpt>
      <trkpt lat="44.16539" lon="5.03085">
        <ele>510.6</ele>
        <time>2021-12-29T08:36:40Z</time>
      </trkpt>
      <trkpt lat="44.16544" lon="5.03087">
        <ele>512.04</ele>
        <time>2021-12-29T08:36:46Z</time>
      </trkpt>
      <trkpt lat="44.16551" lon="5.03092">
        <ele>513.48</ele>
        <time>2021-12-29T08:36:53Z</time>
      </trkpt>
      <trkpt lat="44.16563" lon="5.03103">
        <ele>515.4</ele>
        <time>2021-12-29T08:37:06Z</time>
      </trkpt>
      <trkpt lat="44.16565" lon="5.03105">
        <ele>515.88</ele>
        <time>2021-12-29T08:37:08Z</time>
      </trkpt>
      <trkpt lat="44.16566" lon="5.03107">
        <ele>515.88</ele>
        <time>2021-12-29T08:37:10Z</time>
      </trkpt>
      <trkpt lat="44.16568" lon="5.03133">
        <ele>517.33</ele>
        <time>2021-12-29T08:37:27Z</time>
      </trkpt>
      <trkpt lat="44.16571" lon="5.03137">
        <ele>518.77</ele>
        <time>2021-12-29T08:37:44Z</time>
      </trkpt>
      <trkpt lat="44.16578" lon="5.03149">
        <ele>519.73</ele>
        <time>2021-12-29T08:37:58Z</time>
      </trkpt>
      <trkpt lat="44.16586" lon="5.03162">
        <ele>518.77</ele>
        <time>2021-12-29T08:38:11Z</time>
      </trkpt>
      <trkpt lat="44.16588" lon="5.03183">
        <ele>517.81</ele>
        <time>2021-12-29T08:38:25Z</time>
      </trkpt>
      <trkpt lat="44.16597" lon="5.03197">
        <ele>517.81</ele>
        <time>2021-12-29T08:38:42Z</time>
      </trkpt>
      <trkpt lat="44.16599" lon="5.03213">
        <ele>517.33</ele>
        <time>2021-12-29T08:38:56Z</time>
      </trkpt>
      <trkpt lat="44.166" lon="5.03225">
        <ele>517.33</ele>
        <time>2021-12-29T08:39:03Z</time>
      </trkpt>
      <trkpt lat="44.16607" lon="5.03251">
        <ele>518.77</ele>
        <time>2021-12-29T08:39:21Z</time>
      </trkpt>
      <trkpt lat="44.16608" lon="5.03256">
        <ele>519.73</ele>
        <time>2021-12-29T08:39:25Z</time>
      </trkpt>
      <trkpt lat="44.16612" lon="5.03274">
        <ele>522.13</ele>
        <time>2021-12-29T08:39:42Z</time>
      </trkpt>
      <trkpt lat="44.16616" lon="5.03291">
        <ele>524.54</ele>
        <time>2021-12-29T08:39:57Z</time>
      </trkpt>
      <trkpt lat="44.1662" lon="5.03297">
        <ele>525.98</ele>
        <time>2021-12-29T08:40:13Z</time>
      </trkpt>
      <trkpt lat="44.16623" lon="5.03305">
        <ele>526.94</ele>
        <time>2021-12-29T08:40:30Z</time>
      </trkpt>
      <trkpt lat="44.16632" lon="5.03321">
        <ele>527.9</ele>
        <time>2021-12-29T08:40:46Z</time>
      </trkpt>
      <trkpt lat="44.16636" lon="5.03331">
        <ele>527.9</ele>
        <time>2021-12-29T08:40:54Z</time>
      </trkpt>
      <trkpt lat="44.16644" lon="5.03354">
        <ele>527.9</ele>
        <time>2021-12-29T08:41:10Z</time>
      </trkpt>
      <trkpt lat="44.16654" lon="5.03369">
        <ele>529.82</ele>
        <time>2021-12-29T08:41:24Z</time>
      </trkpt>
      <trkpt lat="44.16665" lon="5.03391">
        <ele>530.3</ele>
        <time>2021-12-29T08:41:40Z</time>
      </trkpt>
      <trkpt lat="44.1668" lon="5.03417">
        <ele>530.79</ele>
        <time>2021-12-29T08:41:59Z</time>
      </trkpt>
      <trkpt lat="44.16688" lon="5.03433">
        <ele>532.23</ele>
        <time>2021-12-29T08:42:14Z</time>
      </trkpt>
      <trkpt lat="44.16696" lon="5.03447">
        <ele>531.27</ele>
        <time>2021-12-29T08:42:29Z</time>
      </trkpt>
      <trkpt lat="44.16704" lon="5.0346">
        <ele>528.38</ele>
        <time>2021-12-29T08:42:43Z</time>
      </trkpt>
      <trkpt lat="44.16714" lon="5.03479">
        <ele>526.94</ele>
        <time>2021-12-29T08:42:59Z</time>
      </trkpt>
      <trkpt lat="44.1672" lon="5.03489">
        <ele>525.5</ele>
        <time>2021-12-29T08:43:07Z</time>
      </trkpt>
      <trkpt lat="44.16726" lon="5.0349">
        <ele>525.5</ele>
        <time>2021-12-29T08:43:12Z</time>
      </trkpt>
      <trkpt lat="44.16735" lon="5.03501">
        <ele>525.02</ele>
        <time>2021-12-29T08:43:23Z</time>
      </trkpt>
      <trkpt lat="44.16749" lon="5.03513">
        <ele>526.46</ele>
        <time>2021-12-29T08:43:39Z</time>
      </trkpt>
      <trkpt lat="44.16761" lon="5.03516">
        <ele>528.86</ele>
        <time>2021-12-29T08:43:51Z</time>
      </trkpt>
      <trkpt lat="44.1677" lon="5.03526">
        <ele>531.27</ele>
        <time>2021-12-29T08:44:05Z</time>
      </trkpt>
      <trkpt lat="44.16779" lon="5.03529">
        <ele>533.67</ele>
        <time>2021-12-29T08:44:18Z</time>
      </trkpt>
      <trkpt lat="44.16789" lon="5.03536">
        <ele>536.07</ele>
        <time>2021-12-29T08:44:33Z</time>
      </trkpt>
      <trkpt lat="44.16802" lon="5.03547">
        <ele>537.03</ele>
        <time>2021-12-29T08:44:49Z</time>
      </trkpt>
      <trkpt lat="44.16806" lon="5.03551">
        <ele>537.03</ele>
        <time>2021-12-29T08:44:59Z</time>
      </trkpt>
      <trkpt lat="44.16818" lon="5.03557">
        <ele>539.44</ele>
        <time>2021-12-29T08:45:14Z</time>
      </trkpt>
      <trkpt lat="44.16831" lon="5.0356">
        <ele>540.88</ele>
        <time>2021-12-29T08:45:29Z</time>
      </trkpt>
      <trkpt lat="44.16839" lon="5.03569">
        <ele>540.4</ele>
        <time>2021-12-29T08:45:38Z</time>
      </trkpt>
      <trkpt lat="44.16852" lon="5.0358">
        <ele>540.4</ele>
        <time>2021-12-29T08:45:54Z</time>
      </trkpt>
      <trkpt lat="44.16861" lon="5.03594">
        <ele>539.44</ele>
        <time>2021-12-29T08:46:08Z</time>
      </trkpt>
      <trkpt lat="44.16875" lon="5.03603">
        <ele>537.99</ele>
        <time>2021-12-29T08:46:25Z</time>
      </trkpt>
      <trkpt lat="44.16886" lon="5.03603">
        <ele>537.99</ele>
        <time>2021-12-29T08:46:41Z</time>
      </trkpt>
      <trkpt lat="44.16894" lon="5.03609">
        <ele>535.11</ele>
        <time>2021-12-29T08:46:54Z</time>
      </trkpt>
      <trkpt lat="44.16903" lon="5.03612">
        <ele>532.23</ele>
        <time>2021-12-29T08:47:08Z</time>
      </trkpt>
      <trkpt lat="44.16909" lon="5.03617">
        <ele>529.34</ele>
        <time>2021-12-29T08:47:24Z</time>
      </trkpt>
      <trkpt lat="44.16922" lon="5.03619">
        <ele>526.94</ele>
        <time>2021-12-29T08:47:39Z</time>
      </trkpt>
      <trkpt lat="44.16938" lon="5.03625">
        <ele>525.5</ele>
        <time>2021-12-29T08:47:53Z</time>
      </trkpt>
      <trkpt lat="44.1695" lon="5.03629">
        <ele>525.02</ele>
        <time>2021-12-29T08:48:10Z</time>
      </trkpt>
      <trkpt lat="44.16954" lon="5.0363">
        <ele>524.06</ele>
        <time>2021-12-29T08:48:30Z</time>
      </trkpt>
      <trkpt lat="44.16967" lon="5.03631">
        <ele>523.09</ele>
        <time>2021-12-29T08:48:46Z</time>
      </trkpt>
      <trkpt lat="44.1697" lon="5.03634">
        <ele>524.54</ele>
        <time>2021-12-29T08:48:54Z</time>
      </trkpt>
      <trkpt lat="44.16973" lon="5.03641">
        <ele>527.42</ele>
        <time>2021-12-29T08:49:10Z</time>
      </trkpt>
      <trkpt lat="44.16974" lon="5.03647">
        <ele>530.3</ele>
        <time>2021-12-29T08:49:25Z</time>
      </trkpt>
      <trkpt lat="44.16978" lon="5.03651">
        <ele>528.86</ele>
        <time>2021-12-29T08:49:43Z</time>
      </trkpt>
      <trkpt lat="44.1698" lon="5.03652">
        <ele>530.3</ele>
        <time>2021-12-29T08:49:48Z</time>
      </trkpt>
      <trkpt lat="44.16986" lon="5.03656">
        <ele>531.27</ele>
        <time>2021-12-29T08:50:05Z</time>
      </trkpt>
      <trkpt lat="44.16985" lon="5.03656">
        <ele>531.27</ele>
        <time>2021-12-29T08:50:47Z</time>
      </trkpt>
      <trkpt lat="44.16987" lon="5.03656">
        <ele>531.27</ele>
        <time>2021-12-29T08:51:06Z</time>
      </trkpt>
      <trkpt lat="44.16989" lon="5.03653">
        <ele>531.75</ele>
        <time>2021-12-29T08:51:30Z</time>
      </trkpt>
      <trkpt lat="44.16991" lon="5.03655">
        <ele>531.75</ele>
        <time>2021-12-29T08:51:38Z</time>
      </trkpt>
      <trkpt lat="44.16997" lon="5.03666">
        <ele>530.3</ele>
        <time>2021-12-29T08:51:53Z</time>
      </trkpt>
      <trkpt lat="44.16998" lon="5.03674">
        <ele>528.38</ele>
        <time>2021-12-29T08:52:06Z</time>
      </trkpt>
      <trkpt lat="44.17004" lon="5.03689">
        <ele>526.46</ele>
        <time>2021-12-29T08:52:20Z</time>
      </trkpt>
      <trkpt lat="44.17007" lon="5.03692">
        <ele>526.46</ele>
        <time>2021-12-29T08:52:25Z</time>
      </trkpt>
      <trkpt lat="44.17016" lon="5.03696">
        <ele>528.86</ele>
        <time>2021-12-29T08:52:37Z</time>
      </trkpt>
      <trkpt lat="44.17022" lon="5.03697">
        <ele>529.82</ele>
        <time>2021-12-29T08:52:44Z</time>
      </trkpt>
      <trkpt lat="44.1703" lon="5.037">
        <ele>531.27</ele>
        <time>2021-12-29T08:52:55Z</time>
      </trkpt>
      <trkpt lat="44.1704" lon="5.03708">
        <ele>532.23</ele>
        <time>2021-12-29T08:53:09Z</time>
      </trkpt>
      <trkpt lat="44.17047" lon="5.03712">
        <ele>533.19</ele>
        <time>2021-12-29T08:53:20Z</time>
      </trkpt>
      <trkpt lat="44.17058" lon="5.03728">
        <ele>533.67</ele>
        <time>2021-12-29T08:53:37Z</time>
      </trkpt>
      <trkpt lat="44.17063" lon="5.0374">
        <ele>533.67</ele>
        <time>2021-12-29T08:53:47Z</time>
      </trkpt>
      <trkpt lat="44.17067" lon="5.03758">
        <ele>531.27</ele>
        <time>2021-12-29T08:54:02Z</time>
      </trkpt>
      <trkpt lat="44.17071" lon="5.03779">
        <ele>527.42</ele>
        <time>2021-12-29T08:54:17Z</time>
      </trkpt>
      <trkpt lat="44.17073" lon="5.03797">
        <ele>525.02</ele>
        <time>2021-12-29T08:54:31Z</time>
      </trkpt>
      <trkpt lat="44.17082" lon="5.03804">
        <ele>526.94</ele>
        <time>2021-12-29T08:54:45Z</time>
      </trkpt>
      <trkpt lat="44.17093" lon="5.0381">
        <ele>528.86</ele>
        <time>2021-12-29T08:55:01Z</time>
      </trkpt>
      <trkpt lat="44.17103" lon="5.03819">
        <ele>529.34</ele>
        <time>2021-12-29T08:55:13Z</time>
      </trkpt>
      <trkpt lat="44.17104" lon="5.03821">
        <ele>529.34</ele>
        <time>2021-12-29T08:55:15Z</time>
      </trkpt>
      <trkpt lat="44.17107" lon="5.03824">
        <ele>527.9</ele>
        <time>2021-12-29T08:55:18Z</time>
      </trkpt>
      <trkpt lat="44.17111" lon="5.03835">
        <ele>526.46</ele>
        <time>2021-12-29T08:55:28Z</time>
      </trkpt>
      <trkpt lat="44.1712" lon="5.03839">
        <ele>527.42</ele>
        <time>2021-12-29T08:55:40Z</time>
      </trkpt>
      <trkpt lat="44.17129" lon="5.03854">
        <ele>527.9</ele>
        <time>2021-12-29T08:55:54Z</time>
      </trkpt>
      <trkpt lat="44.17139" lon="5.0388">
        <ele>526.94</ele>
        <time>2021-12-29T08:56:09Z</time>
      </trkpt>
      <trkpt lat="44.17142" lon="5.03895">
        <ele>526.46</ele>
        <time>2021-12-29T08:56:23Z</time>
      </trkpt>
      <trkpt lat="44.17151" lon="5.03897">
        <ele>529.82</ele>
        <time>2021-12-29T08:56:35Z</time>
      </trkpt>
      <trkpt lat="44.1716" lon="5.03899">
        <ele>531.75</ele>
        <time>2021-12-29T08:56:48Z</time>
      </trkpt>
      <trkpt lat="44.17168" lon="5.03902">
        <ele>534.63</ele>
        <time>2021-12-29T08:57:05Z</time>
      </trkpt>
      <trkpt lat="44.17175" lon="5.03888">
        <ele>537.51</ele>
        <time>2021-12-29T08:57:19Z</time>
      </trkpt>
      <trkpt lat="44.1718" lon="5.03873">
        <ele>540.4</ele>
        <time>2021-12-29T08:57:36Z</time>
      </trkpt>
      <trkpt lat="44.17186" lon="5.03863">
        <ele>542.8</ele>
        <time>2021-12-29T08:57:50Z</time>
      </trkpt>
      <trkpt lat="44.1719" lon="5.03854">
        <ele>544.72</ele>
        <time>2021-12-29T08:58:03Z</time>
      </trkpt>
      <trkpt lat="44.17195" lon="5.03853">
        <ele>547.13</ele>
        <time>2021-12-29T08:58:17Z</time>
      </trkpt>
      <trkpt lat="44.17202" lon="5.03852">
        <ele>550.01</ele>
        <time>2021-12-29T08:58:32Z</time>
      </trkpt>
      <trkpt lat="44.17205" lon="5.03846">
        <ele>551.93</ele>
        <time>2021-12-29T08:58:45Z</time>
      </trkpt>
      <trkpt lat="44.17209" lon="5.03844">
        <ele>554.34</ele>
        <time>2021-12-29T08:59:00Z</time>
      </trkpt>
      <trkpt lat="44.17219" lon="5.03837">
        <ele>556.26</ele>
        <time>2021-12-29T08:59:17Z</time>
      </trkpt>
      <trkpt lat="44.17222" lon="5.03837">
        <ele>557.22</ele>
        <time>2021-12-29T08:59:35Z</time>
      </trkpt>
      <trkpt lat="44.17231" lon="5.0384">
        <ele>558.18</ele>
        <time>2021-12-29T08:59:47Z</time>
      </trkpt>
      <trkpt lat="44.17242" lon="5.03852">
        <ele>560.11</ele>
        <time>2021-12-29T09:00:03Z</time>
      </trkpt>
      <trkpt lat="44.17244" lon="5.03862">
        <ele>561.55</ele>
        <time>2021-12-29T09:00:19Z</time>
      </trkpt>
      <trkpt lat="44.1725" lon="5.03877">
        <ele>564.43</ele>
        <time>2021-12-29T09:00:35Z</time>
      </trkpt>
      <trkpt lat="44.17257" lon="5.03882">
        <ele>566.35</ele>
        <time>2021-12-29T09:00:47Z</time>
      </trkpt>
      <trkpt lat="44.17264" lon="5.03896">
        <ele>568.76</ele>
        <time>2021-12-29T09:01:02Z</time>
      </trkpt>
      <trkpt lat="44.17272" lon="5.03903">
        <ele>570.68</ele>
        <time>2021-12-29T09:01:15Z</time>
      </trkpt>
      <trkpt lat="44.17273" lon="5.03911">
        <ele>571.64</ele>
        <time>2021-12-29T09:01:29Z</time>
      </trkpt>
      <trkpt lat="44.17276" lon="5.03926">
        <ele>572.12</ele>
        <time>2021-12-29T09:01:45Z</time>
      </trkpt>
      <trkpt lat="44.1728" lon="5.03938">
        <ele>573.56</ele>
        <time>2021-12-29T09:01:59Z</time>
      </trkpt>
      <trkpt lat="44.17284" lon="5.0395">
        <ele>572.12</ele>
        <time>2021-12-29T09:02:13Z</time>
      </trkpt>
      <trkpt lat="44.17298" lon="5.0396">
        <ele>572.6</ele>
        <time>2021-12-29T09:02:30Z</time>
      </trkpt>
      <trkpt lat="44.17311" lon="5.03971">
        <ele>572.6</ele>
        <time>2021-12-29T09:02:45Z</time>
      </trkpt>
      <trkpt lat="44.17325" lon="5.03981">
        <ele>571.64</ele>
        <time>2021-12-29T09:03:02Z</time>
      </trkpt>
      <trkpt lat="44.17331" lon="5.03985">
        <ele>573.08</ele>
        <time>2021-12-29T09:03:10Z</time>
      </trkpt>
      <trkpt lat="44.17341" lon="5.03987">
        <ele>575.01</ele>
        <time>2021-12-29T09:03:25Z</time>
      </trkpt>
      <trkpt lat="44.17341" lon="5.03988">
        <ele>575.01</ele>
        <time>2021-12-29T09:03:26Z</time>
      </trkpt>
      <trkpt lat="44.17343" lon="5.03991">
        <ele>575.01</ele>
        <time>2021-12-29T09:03:29Z</time>
      </trkpt>
      <trkpt lat="44.17353" lon="5.04">
        <ele>575.01</ele>
        <time>2021-12-29T09:03:44Z</time>
      </trkpt>
      <trkpt lat="44.17359" lon="5.04007">
        <ele>572.12</ele>
        <time>2021-12-29T09:04:01Z</time>
      </trkpt>
      <trkpt lat="44.17366" lon="5.04018">
        <ele>569.24</ele>
        <time>2021-12-29T09:04:15Z</time>
      </trkpt>
      <trkpt lat="44.17371" lon="5.04034">
        <ele>570.2</ele>
        <time>2021-12-29T09:04:32Z</time>
      </trkpt>
      <trkpt lat="44.17376" lon="5.04048">
        <ele>573.56</ele>
        <time>2021-12-29T09:04:49Z</time>
      </trkpt>
      <trkpt lat="44.1738" lon="5.04066">
        <ele>575.49</ele>
        <time>2021-12-29T09:05:05Z</time>
      </trkpt>
      <trkpt lat="44.17389" lon="5.0408">
        <ele>578.85</ele>
        <time>2021-12-29T09:05:23Z</time>
      </trkpt>
      <trkpt lat="44.17392" lon="5.04091">
        <ele>581.73</ele>
        <time>2021-12-29T09:05:40Z</time>
      </trkpt>
      <trkpt lat="44.17392" lon="5.04096">
        <ele>581.25</ele>
        <time>2021-12-29T09:05:45Z</time>
      </trkpt>
      <trkpt lat="44.17394" lon="5.04113">
        <ele>580.29</ele>
        <time>2021-12-29T09:06:00Z</time>
      </trkpt>
      <trkpt lat="44.17394" lon="5.04129">
        <ele>581.73</ele>
        <time>2021-12-29T09:06:15Z</time>
      </trkpt>
      <trkpt lat="44.174" lon="5.04141">
        <ele>585.1</ele>
        <time>2021-12-29T09:06:32Z</time>
      </trkpt>
      <trkpt lat="44.17406" lon="5.0415">
        <ele>585.58</ele>
        <time>2021-12-29T09:06:47Z</time>
      </trkpt>
      <trkpt lat="44.17408" lon="5.04161">
        <ele>585.1</ele>
        <time>2021-12-29T09:07:00Z</time>
      </trkpt>
      <trkpt lat="44.17414" lon="5.04174">
        <ele>583.66</ele>
        <time>2021-12-29T09:07:15Z</time>
      </trkpt>
      <trkpt lat="44.17422" lon="5.04189">
        <ele>581.73</ele>
        <time>2021-12-29T09:07:29Z</time>
      </trkpt>
      <trkpt lat="44.17428" lon="5.04201">
        <ele>583.18</ele>
        <time>2021-12-29T09:07:44Z</time>
      </trkpt>
      <trkpt lat="44.17428" lon="5.04204">
        <ele>581.73</ele>
        <time>2021-12-29T09:07:47Z</time>
      </trkpt>
      <trkpt lat="44.17434" lon="5.04218">
        <ele>579.81</ele>
        <time>2021-12-29T09:08:01Z</time>
      </trkpt>
      <trkpt lat="44.17444" lon="5.04232">
        <ele>580.77</ele>
        <time>2021-12-29T09:08:14Z</time>
      </trkpt>
      <trkpt lat="44.17455" lon="5.0425">
        <ele>580.77</ele>
        <time>2021-12-29T09:08:29Z</time>
      </trkpt>
      <trkpt lat="44.17465" lon="5.04266">
        <ele>582.7</ele>
        <time>2021-12-29T09:08:44Z</time>
      </trkpt>
      <trkpt lat="44.17475" lon="5.04284">
        <ele>583.18</ele>
        <time>2021-12-29T09:09:02Z</time>
      </trkpt>
      <trkpt lat="44.17485" lon="5.04306">
        <ele>583.18</ele>
        <time>2021-12-29T09:09:19Z</time>
      </trkpt>
      <trkpt lat="44.17495" lon="5.0432">
        <ele>584.14</ele>
        <time>2021-12-29T09:09:35Z</time>
      </trkpt>
      <trkpt lat="44.17505" lon="5.04332">
        <ele>580.77</ele>
        <time>2021-12-29T09:09:49Z</time>
      </trkpt>
      <trkpt lat="44.17505" lon="5.04348">
        <ele>579.33</ele>
        <time>2021-12-29T09:10:04Z</time>
      </trkpt>
      <trkpt lat="44.17511" lon="5.04357">
        <ele>577.89</ele>
        <time>2021-12-29T09:10:17Z</time>
      </trkpt>
      <trkpt lat="44.17519" lon="5.04366">
        <ele>575.49</ele>
        <time>2021-12-29T09:10:34Z</time>
      </trkpt>
      <trkpt lat="44.17531" lon="5.04381">
        <ele>573.56</ele>
        <time>2021-12-29T09:10:49Z</time>
      </trkpt>
      <trkpt lat="44.1754" lon="5.04396">
        <ele>571.64</ele>
        <time>2021-12-29T09:11:04Z</time>
      </trkpt>
      <trkpt lat="44.17546" lon="5.04405">
        <ele>571.16</ele>
        <time>2021-12-29T09:11:12Z</time>
      </trkpt>
      <trkpt lat="44.17554" lon="5.04422">
        <ele>569.72</ele>
        <time>2021-12-29T09:11:25Z</time>
      </trkpt>
      <trkpt lat="44.17568" lon="5.04445">
        <ele>568.76</ele>
        <time>2021-12-29T09:11:38Z</time>
      </trkpt>
      <trkpt lat="44.17581" lon="5.04467">
        <ele>567.32</ele>
        <time>2021-12-29T09:11:54Z</time>
      </trkpt>
      <trkpt lat="44.17585" lon="5.04474">
        <ele>565.87</ele>
        <time>2021-12-29T09:12:06Z</time>
      </trkpt>
      <trkpt lat="44.17592" lon="5.04492">
        <ele>564.91</ele>
        <time>2021-12-29T09:12:20Z</time>
      </trkpt>
      <trkpt lat="44.17601" lon="5.04506">
        <ele>562.99</ele>
        <time>2021-12-29T09:12:32Z</time>
      </trkpt>
      <trkpt lat="44.17612" lon="5.04527">
        <ele>561.07</ele>
        <time>2021-12-29T09:12:47Z</time>
      </trkpt>
      <trkpt lat="44.17617" lon="5.04548">
        <ele>559.14</ele>
        <time>2021-12-29T09:13:01Z</time>
      </trkpt>
      <trkpt lat="44.17624" lon="5.04569">
        <ele>558.66</ele>
        <time>2021-12-29T09:13:14Z</time>
      </trkpt>
      <trkpt lat="44.1763" lon="5.04592">
        <ele>557.22</ele>
        <time>2021-12-29T09:13:31Z</time>
      </trkpt>
      <trkpt lat="44.17636" lon="5.04607">
        <ele>554.82</ele>
        <time>2021-12-29T09:13:46Z</time>
      </trkpt>
      <trkpt lat="44.17644" lon="5.04628">
        <ele>552.41</ele>
        <time>2021-12-29T09:14:01Z</time>
      </trkpt>
      <trkpt lat="44.17647" lon="5.04637">
        <ele>551.45</ele>
        <time>2021-12-29T09:14:07Z</time>
      </trkpt>
      <trkpt lat="44.17656" lon="5.04654">
        <ele>549.05</ele>
        <time>2021-12-29T09:14:24Z</time>
      </trkpt>
      <trkpt lat="44.17666" lon="5.04675">
        <ele>546.17</ele>
        <time>2021-12-29T09:14:41Z</time>
      </trkpt>
      <trkpt lat="44.17676" lon="5.04697">
        <ele>543.76</ele>
        <time>2021-12-29T09:14:58Z</time>
      </trkpt>
      <trkpt lat="44.1768" lon="5.04708">
        <ele>542.32</ele>
        <time>2021-12-29T09:15:02Z</time>
      </trkpt>
      <trkpt lat="44.17684" lon="5.04721">
        <ele>539.44</ele>
        <time>2021-12-29T09:15:12Z</time>
      </trkpt>
      <trkpt lat="44.17694" lon="5.04736">
        <ele>537.03</ele>
        <time>2021-12-29T09:15:30Z</time>
      </trkpt>
      <trkpt lat="44.17705" lon="5.04753">
        <ele>533.67</ele>
        <time>2021-12-29T09:15:44Z</time>
      </trkpt>
      <trkpt lat="44.17711" lon="5.04764">
        <ele>531.27</ele>
        <time>2021-12-29T09:15:58Z</time>
      </trkpt>
      <trkpt lat="44.17714" lon="5.04779">
        <ele>528.86</ele>
        <time>2021-12-29T09:16:13Z</time>
      </trkpt>
      <trkpt lat="44.17706" lon="5.04792">
        <ele>525.5</ele>
        <time>2021-12-29T09:16:28Z</time>
      </trkpt>
      <trkpt lat="44.17695" lon="5.04792">
        <ele>522.13</ele>
        <time>2021-12-29T09:16:44Z</time>
      </trkpt>
      <trkpt lat="44.17678" lon="5.04793">
        <ele>518.77</ele>
        <time>2021-12-29T09:17:01Z</time>
      </trkpt>
      <trkpt lat="44.17666" lon="5.0479">
        <ele>515.88</ele>
        <time>2021-12-29T09:17:17Z</time>
      </trkpt>
      <trkpt lat="44.17653" lon="5.04787">
        <ele>513</ele>
        <time>2021-12-29T09:17:32Z</time>
      </trkpt>
      <trkpt lat="44.17638" lon="5.04785">
        <ele>509.64</ele>
        <time>2021-12-29T09:17:49Z</time>
      </trkpt>
      <trkpt lat="44.17623" lon="5.04782">
        <ele>506.75</ele>
        <time>2021-12-29T09:18:04Z</time>
      </trkpt>
      <trkpt lat="44.17611" lon="5.04778">
        <ele>503.87</ele>
        <time>2021-12-29T09:18:20Z</time>
      </trkpt>
      <trkpt lat="44.176" lon="5.04774">
        <ele>501.46</ele>
        <time>2021-12-29T09:18:34Z</time>
      </trkpt>
      <trkpt lat="44.17589" lon="5.04769">
        <ele>497.62</ele>
        <time>2021-12-29T09:18:52Z</time>
      </trkpt>
      <trkpt lat="44.17587" lon="5.04777">
        <ele>495.22</ele>
        <time>2021-12-29T09:19:07Z</time>
      </trkpt>
      <trkpt lat="44.17591" lon="5.04796">
        <ele>492.33</ele>
        <time>2021-12-29T09:19:21Z</time>
      </trkpt>
      <trkpt lat="44.17596" lon="5.04815">
        <ele>489.93</ele>
        <time>2021-12-29T09:19:36Z</time>
      </trkpt>
      <trkpt lat="44.17602" lon="5.04833">
        <ele>487.05</ele>
        <time>2021-12-29T09:19:54Z</time>
      </trkpt>
      <trkpt lat="44.17602" lon="5.04853">
        <ele>485.12</ele>
        <time>2021-12-29T09:20:08Z</time>
      </trkpt>
      <trkpt lat="44.17613" lon="5.0487">
        <ele>482.24</ele>
        <time>2021-12-29T09:20:25Z</time>
      </trkpt>
      <trkpt lat="44.17619" lon="5.04889">
        <ele>479.84</ele>
        <time>2021-12-29T09:20:40Z</time>
      </trkpt>
      <trkpt lat="44.17625" lon="5.04902">
        <ele>477.91</ele>
        <time>2021-12-29T09:20:53Z</time>
      </trkpt>
      <trkpt lat="44.17634" lon="5.04917">
        <ele>475.51</ele>
        <time>2021-12-29T09:21:07Z</time>
      </trkpt>
      <trkpt lat="44.17646" lon="5.04928">
        <ele>472.63</ele>
        <time>2021-12-29T09:21:22Z</time>
      </trkpt>
      <trkpt lat="44.17658" lon="5.0494">
        <ele>471.18</ele>
        <time>2021-12-29T09:21:36Z</time>
      </trkpt>
      <trkpt lat="44.17667" lon="5.04953">
        <ele>468.78</ele>
        <time>2021-12-29T09:21:52Z</time>
      </trkpt>
      <trkpt lat="44.17668" lon="5.04953">
        <ele>468.78</ele>
        <time>2021-12-29T09:22:05Z</time>
      </trkpt>
      <trkpt lat="44.17669" lon="5.04952">
        <ele>469.26</ele>
        <time>2021-12-29T09:22:22Z</time>
      </trkpt>
      <trkpt lat="44.17666" lon="5.04952">
        <ele>469.26</ele>
        <time>2021-12-29T09:22:46Z</time>
      </trkpt>
      <trkpt lat="44.17667" lon="5.04954">
        <ele>469.26</ele>
        <time>2021-12-29T09:23:11Z</time>
      </trkpt>
      <trkpt lat="44.1767" lon="5.04952">
        <ele>469.74</ele>
        <time>2021-12-29T09:23:42Z</time>
      </trkpt>
      <trkpt lat="44.17669" lon="5.04951">
        <ele>469.26</ele>
        <time>2021-12-29T09:24:02Z</time>
      </trkpt>
      <trkpt lat="44.17666" lon="5.04962">
        <ele>468.3</ele>
        <time>2021-12-29T09:24:14Z</time>
      </trkpt>
      <trkpt lat="44.17668" lon="5.04978">
        <ele>465.42</ele>
        <time>2021-12-29T09:24:28Z</time>
      </trkpt>
      <trkpt lat="44.17669" lon="5.04995">
        <ele>463.01</ele>
        <time>2021-12-29T09:24:42Z</time>
      </trkpt>
      <trkpt lat="44.17664" lon="5.05021">
        <ele>460.61</ele>
        <time>2021-12-29T09:24:56Z</time>
      </trkpt>
      <trkpt lat="44.17664" lon="5.05023">
        <ele>460.61</ele>
        <time>2021-12-29T09:24:57Z</time>
      </trkpt>
      <trkpt lat="44.17663" lon="5.05046">
        <ele>458.69</ele>
        <time>2021-12-29T09:25:09Z</time>
      </trkpt>
      <trkpt lat="44.17667" lon="5.05057">
        <ele>458.21</ele>
        <time>2021-12-29T09:25:21Z</time>
      </trkpt>
      <trkpt lat="44.17668" lon="5.05058">
        <ele>458.21</ele>
        <time>2021-12-29T09:25:23Z</time>
      </trkpt>
      <trkpt lat="44.17673" lon="5.05069">
        <ele>458.21</ele>
        <time>2021-12-29T09:25:31Z</time>
      </trkpt>
      <trkpt lat="44.1768" lon="5.05084">
        <ele>459.65</ele>
        <time>2021-12-29T09:25:42Z</time>
      </trkpt>
      <trkpt lat="44.17692" lon="5.05099">
        <ele>459.65</ele>
        <time>2021-12-29T09:25:57Z</time>
      </trkpt>
      <trkpt lat="44.17702" lon="5.05106">
        <ele>458.69</ele>
        <time>2021-12-29T09:26:09Z</time>
      </trkpt>
      <trkpt lat="44.17714" lon="5.05114">
        <ele>461.09</ele>
        <time>2021-12-29T09:26:23Z</time>
      </trkpt>
      <trkpt lat="44.17723" lon="5.05125">
        <ele>461.57</ele>
        <time>2021-12-29T09:26:36Z</time>
      </trkpt>
      <trkpt lat="44.17723" lon="5.05128">
        <ele>462.05</ele>
        <time>2021-12-29T09:26:39Z</time>
      </trkpt>
      <trkpt lat="44.17735" lon="5.0514">
        <ele>463.49</ele>
        <time>2021-12-29T09:26:52Z</time>
      </trkpt>
      <trkpt lat="44.17741" lon="5.05157">
        <ele>464.93</ele>
        <time>2021-12-29T09:27:07Z</time>
      </trkpt>
      <trkpt lat="44.17739" lon="5.05164">
        <ele>465.9</ele>
        <time>2021-12-29T09:27:13Z</time>
      </trkpt>
      <trkpt lat="44.17731" lon="5.05164">
        <ele>469.26</ele>
        <time>2021-12-29T09:27:28Z</time>
      </trkpt>
      <trkpt lat="44.1773" lon="5.05163">
        <ele>469.26</ele>
        <time>2021-12-29T09:27:29Z</time>
      </trkpt>
      <trkpt lat="44.17724" lon="5.0516">
        <ele>469.74</ele>
        <time>2021-12-29T09:27:36Z</time>
      </trkpt>
      <trkpt lat="44.17723" lon="5.05176">
        <ele>470.22</ele>
        <time>2021-12-29T09:27:50Z</time>
      </trkpt>
      <trkpt lat="44.17727" lon="5.05198">
        <ele>470.7</ele>
        <time>2021-12-29T09:28:05Z</time>
      </trkpt>
      <trkpt lat="44.17732" lon="5.05215">
        <ele>471.66</ele>
        <time>2021-12-29T09:28:18Z</time>
      </trkpt>
      <trkpt lat="44.17737" lon="5.05233">
        <ele>473.11</ele>
        <time>2021-12-29T09:28:33Z</time>
      </trkpt>
      <trkpt lat="44.17743" lon="5.05246">
        <ele>474.55</ele>
        <time>2021-12-29T09:28:47Z</time>
      </trkpt>
      <trkpt lat="44.1775" lon="5.05266">
        <ele>475.99</ele>
        <time>2021-12-29T09:29:02Z</time>
      </trkpt>
      <trkpt lat="44.17753" lon="5.05275">
        <ele>476.47</ele>
        <time>2021-12-29T09:29:08Z</time>
      </trkpt>
      <trkpt lat="44.17766" lon="5.05285">
        <ele>478.39</ele>
        <time>2021-12-29T09:29:21Z</time>
      </trkpt>
      <trkpt lat="44.17775" lon="5.0529">
        <ele>481.28</ele>
        <time>2021-12-29T09:29:35Z</time>
      </trkpt>
      <trkpt lat="44.17787" lon="5.05302">
        <ele>484.16</ele>
        <time>2021-12-29T09:29:51Z</time>
      </trkpt>
      <trkpt lat="44.17793" lon="5.0531">
        <ele>486.56</ele>
        <time>2021-12-29T09:30:04Z</time>
      </trkpt>
      <trkpt lat="44.17795" lon="5.05315">
        <ele>488.01</ele>
        <time>2021-12-29T09:30:09Z</time>
      </trkpt>
      <trkpt lat="44.17797" lon="5.05321">
        <ele>488.97</ele>
        <time>2021-12-29T09:30:16Z</time>
      </trkpt>
      <trkpt lat="44.17801" lon="5.05332">
        <ele>490.89</ele>
        <time>2021-12-29T09:30:25Z</time>
      </trkpt>
      <trkpt lat="44.17812" lon="5.05333">
        <ele>492.81</ele>
        <time>2021-12-29T09:30:37Z</time>
      </trkpt>
      <trkpt lat="44.17814" lon="5.0533">
        <ele>492.81</ele>
        <time>2021-12-29T09:30:53Z</time>
      </trkpt>
      <trkpt lat="44.17813" lon="5.0533">
        <ele>492.81</ele>
        <time>2021-12-29T09:31:11Z</time>
      </trkpt>
      <trkpt lat="44.17813" lon="5.05332">
        <ele>492.81</ele>
        <time>2021-12-29T09:31:36Z</time>
      </trkpt>
      <trkpt lat="44.17818" lon="5.0533">
        <ele>492.81</ele>
        <time>2021-12-29T09:31:55Z</time>
      </trkpt>
      <trkpt lat="44.17822" lon="5.05325">
        <ele>492.81</ele>
        <time>2021-12-29T09:32:10Z</time>
      </trkpt>
      <trkpt lat="44.17827" lon="5.05315">
        <ele>492.81</ele>
        <time>2021-12-29T09:32:23Z</time>
      </trkpt>
      <trkpt lat="44.1783" lon="5.05314">
        <ele>492.81</ele>
        <time>2021-12-29T09:32:26Z</time>
      </trkpt>
      <trkpt lat="44.17845" lon="5.053">
        <ele>492.81</ele>
        <time>2021-12-29T09:32:42Z</time>
      </trkpt>
      <trkpt lat="44.17859" lon="5.05287">
        <ele>493.77</ele>
        <time>2021-12-29T09:32:59Z</time>
      </trkpt>
      <trkpt lat="44.17874" lon="5.05274">
        <ele>494.26</ele>
        <time>2021-12-29T09:33:15Z</time>
      </trkpt>
      <trkpt lat="44.17888" lon="5.05273">
        <ele>495.22</ele>
        <time>2021-12-29T09:33:29Z</time>
      </trkpt>
      <trkpt lat="44.17894" lon="5.05284">
        <ele>499.06</ele>
        <time>2021-12-29T09:33:41Z</time>
      </trkpt>
      <trkpt lat="44.17898" lon="5.053">
        <ele>502.43</ele>
        <time>2021-12-29T09:33:57Z</time>
      </trkpt>
      <trkpt lat="44.17907" lon="5.05308">
        <ele>505.31</ele>
        <time>2021-12-29T09:34:11Z</time>
      </trkpt>
      <trkpt lat="44.17914" lon="5.05318">
        <ele>507.23</ele>
        <time>2021-12-29T09:34:26Z</time>
      </trkpt>
      <trkpt lat="44.17923" lon="5.05325">
        <ele>509.16</ele>
        <time>2021-12-29T09:34:40Z</time>
      </trkpt>
      <trkpt lat="44.17929" lon="5.05334">
        <ele>510.6</ele>
        <time>2021-12-29T09:34:55Z</time>
      </trkpt>
      <trkpt lat="44.17936" lon="5.05342">
        <ele>513.48</ele>
        <time>2021-12-29T09:35:11Z</time>
      </trkpt>
      <trkpt lat="44.17941" lon="5.05349">
        <ele>516.37</ele>
        <time>2021-12-29T09:35:26Z</time>
      </trkpt>
      <trkpt lat="44.17946" lon="5.05355">
        <ele>518.29</ele>
        <time>2021-12-29T09:35:38Z</time>
      </trkpt>
      <trkpt lat="44.1795" lon="5.05363">
        <ele>520.69</ele>
        <time>2021-12-29T09:35:53Z</time>
      </trkpt>
      <trkpt lat="44.17954" lon="5.05372">
        <ele>523.58</ele>
        <time>2021-12-29T09:36:09Z</time>
      </trkpt>
      <trkpt lat="44.17959" lon="5.05381">
        <ele>525.5</ele>
        <time>2021-12-29T09:36:23Z</time>
      </trkpt>
      <trkpt lat="44.17963" lon="5.05385">
        <ele>526.46</ele>
        <time>2021-12-29T09:36:38Z</time>
      </trkpt>
      <trkpt lat="44.17967" lon="5.0539">
        <ele>527.9</ele>
        <time>2021-12-29T09:36:54Z</time>
      </trkpt>
      <trkpt lat="44.17971" lon="5.05395">
        <ele>530.3</ele>
        <time>2021-12-29T09:37:08Z</time>
      </trkpt>
      <trkpt lat="44.17975" lon="5.05403">
        <ele>533.19</ele>
        <time>2021-12-29T09:37:20Z</time>
      </trkpt>
      <trkpt lat="44.17975" lon="5.05414">
        <ele>535.59</ele>
        <time>2021-12-29T09:37:34Z</time>
      </trkpt>
      <trkpt lat="44.17974" lon="5.05431">
        <ele>536.55</ele>
        <time>2021-12-29T09:37:48Z</time>
      </trkpt>
      <trkpt lat="44.17976" lon="5.05444">
        <ele>538.48</ele>
        <time>2021-12-29T09:38:01Z</time>
      </trkpt>
      <trkpt lat="44.17975" lon="5.05453">
        <ele>541.36</ele>
        <time>2021-12-29T09:38:14Z</time>
      </trkpt>
      <trkpt lat="44.17974" lon="5.05455">
        <ele>541.84</ele>
        <time>2021-12-29T09:38:29Z</time>
      </trkpt>
      <trkpt lat="44.17975" lon="5.05455">
        <ele>541.84</ele>
        <time>2021-12-29T09:38:50Z</time>
      </trkpt>
      <trkpt lat="44.1798" lon="5.05462">
        <ele>542.8</ele>
        <time>2021-12-29T09:39:07Z</time>
      </trkpt>
      <trkpt lat="44.17979" lon="5.05455">
        <ele>542.8</ele>
        <time>2021-12-29T09:39:43Z</time>
      </trkpt>
      <trkpt lat="44.17975" lon="5.05454">
        <ele>542.8</ele>
        <time>2021-12-29T09:39:56Z</time>
      </trkpt>
      <trkpt lat="44.17973" lon="5.05452">
        <ele>542.8</ele>
        <time>2021-12-29T09:40:11Z</time>
      </trkpt>
      <trkpt lat="44.17973" lon="5.05453">
        <ele>542.8</ele>
        <time>2021-12-29T09:40:36Z</time>
      </trkpt>
      <trkpt lat="44.17973" lon="5.05454">
        <ele>542.8</ele>
        <time>2021-12-29T09:41:04Z</time>
      </trkpt>
      <trkpt lat="44.17974" lon="5.05455">
        <ele>542.8</ele>
        <time>2021-12-29T09:41:29Z</time>
      </trkpt>
      <trkpt lat="44.17974" lon="5.05453">
        <ele>542.8</ele>
        <time>2021-12-29T09:41:54Z</time>
      </trkpt>
      <trkpt lat="44.17975" lon="5.05455">
        <ele>543.28</ele>
        <time>2021-12-29T09:42:12Z</time>
      </trkpt>
      <trkpt lat="44.17981" lon="5.05457">
        <ele>543.28</ele>
        <time>2021-12-29T09:42:29Z</time>
      </trkpt>
      <trkpt lat="44.17989" lon="5.05458">
        <ele>544.24</ele>
        <time>2021-12-29T09:42:38Z</time>
      </trkpt>
      <trkpt lat="44.17996" lon="5.05454">
        <ele>544.72</ele>
        <time>2021-12-29T09:42:56Z</time>
      </trkpt>
      <trkpt lat="44.18" lon="5.05457">
        <ele>544.72</ele>
        <time>2021-12-29T09:43:01Z</time>
      </trkpt>
      <trkpt lat="44.18015" lon="5.05461">
        <ele>546.17</ele>
        <time>2021-12-29T09:43:15Z</time>
      </trkpt>
      <trkpt lat="44.18029" lon="5.05466">
        <ele>548.09</ele>
        <time>2021-12-29T09:43:31Z</time>
      </trkpt>
      <trkpt lat="44.1803" lon="5.05467">
        <ele>548.09</ele>
        <time>2021-12-29T09:43:33Z</time>
      </trkpt>
      <trkpt lat="44.18041" lon="5.05484">
        <ele>550.01</ele>
        <time>2021-12-29T09:43:48Z</time>
      </trkpt>
      <trkpt lat="44.18053" lon="5.05503">
        <ele>550.97</ele>
        <time>2021-12-29T09:44:03Z</time>
      </trkpt>
      <trkpt lat="44.18062" lon="5.05516">
        <ele>551.45</ele>
        <time>2021-12-29T09:44:16Z</time>
      </trkpt>
      <trkpt lat="44.18065" lon="5.05522">
        <ele>551.93</ele>
        <time>2021-12-29T09:44:27Z</time>
      </trkpt>
      <trkpt lat="44.1808" lon="5.05538">
        <ele>552.41</ele>
        <time>2021-12-29T09:44:41Z</time>
      </trkpt>
      <trkpt lat="44.18087" lon="5.05547">
        <ele>551.93</ele>
        <time>2021-12-29T09:44:54Z</time>
      </trkpt>
      <trkpt lat="44.18096" lon="5.05555">
        <ele>551.93</ele>
        <time>2021-12-29T09:45:04Z</time>
      </trkpt>
      <trkpt lat="44.18113" lon="5.05569">
        <ele>551.93</ele>
        <time>2021-12-29T09:45:19Z</time>
      </trkpt>
      <trkpt lat="44.18129" lon="5.05583">
        <ele>551.93</ele>
        <time>2021-12-29T09:45:33Z</time>
      </trkpt>
      <trkpt lat="44.18141" lon="5.05595">
        <ele>552.41</ele>
        <time>2021-12-29T09:45:47Z</time>
      </trkpt>
      <trkpt lat="44.18151" lon="5.05598">
        <ele>552.9</ele>
        <time>2021-12-29T09:45:59Z</time>
      </trkpt>
      <trkpt lat="44.18158" lon="5.05608">
        <ele>554.82</ele>
        <time>2021-12-29T09:46:14Z</time>
      </trkpt>
      <trkpt lat="44.18155" lon="5.05614">
        <ele>558.66</ele>
        <time>2021-12-29T09:46:28Z</time>
      </trkpt>
      <trkpt lat="44.18153" lon="5.05624">
        <ele>560.11</ele>
        <time>2021-12-29T09:46:41Z</time>
      </trkpt>
      <trkpt lat="44.18147" lon="5.05637">
        <ele>562.51</ele>
        <time>2021-12-29T09:46:58Z</time>
      </trkpt>
      <trkpt lat="44.1815" lon="5.05645">
        <ele>565.39</ele>
        <time>2021-12-29T09:47:11Z</time>
      </trkpt>
      <trkpt lat="44.1815" lon="5.05658">
        <ele>568.28</ele>
        <time>2021-12-29T09:47:28Z</time>
      </trkpt>
      <trkpt lat="44.1815" lon="5.05667">
        <ele>570.2</ele>
        <time>2021-12-29T09:47:44Z</time>
      </trkpt>
      <trkpt lat="44.18149" lon="5.05675">
        <ele>572.6</ele>
        <time>2021-12-29T09:47:58Z</time>
      </trkpt>
      <trkpt lat="44.18157" lon="5.05684">
        <ele>575.01</ele>
        <time>2021-12-29T09:48:12Z</time>
      </trkpt>
      <trkpt lat="44.18163" lon="5.0569">
        <ele>577.89</ele>
        <time>2021-12-29T09:48:29Z</time>
      </trkpt>
      <trkpt lat="44.18167" lon="5.05695">
        <ele>580.29</ele>
        <time>2021-12-29T09:48:42Z</time>
      </trkpt>
      <trkpt lat="44.18167" lon="5.05699">
        <ele>581.73</ele>
        <time>2021-12-29T09:48:55Z</time>
      </trkpt>
      <trkpt lat="44.18162" lon="5.05704">
        <ele>584.14</ele>
        <time>2021-12-29T09:49:08Z</time>
      </trkpt>
      <trkpt lat="44.18157" lon="5.0571">
        <ele>587.02</ele>
        <time>2021-12-29T09:49:25Z</time>
      </trkpt>
      <trkpt lat="44.18151" lon="5.05718">
        <ele>588.95</ele>
        <time>2021-12-29T09:49:42Z</time>
      </trkpt>
      <trkpt lat="44.18147" lon="5.05727">
        <ele>590.87</ele>
        <time>2021-12-29T09:49:57Z</time>
      </trkpt>
      <trkpt lat="44.18148" lon="5.05737">
        <ele>592.79</ele>
        <time>2021-12-29T09:50:12Z</time>
      </trkpt>
      <trkpt lat="44.18147" lon="5.05751">
        <ele>595.67</ele>
        <time>2021-12-29T09:50:28Z</time>
      </trkpt>
      <trkpt lat="44.18142" lon="5.05764">
        <ele>597.12</ele>
        <time>2021-12-29T09:50:42Z</time>
      </trkpt>
      <trkpt lat="44.18138" lon="5.05772">
        <ele>599.04</ele>
        <time>2021-12-29T09:50:57Z</time>
      </trkpt>
      <trkpt lat="44.18133" lon="5.05783">
        <ele>600.48</ele>
        <time>2021-12-29T09:51:12Z</time>
      </trkpt>
      <trkpt lat="44.18129" lon="5.05794">
        <ele>602.88</ele>
        <time>2021-12-29T09:51:27Z</time>
      </trkpt>
      <trkpt lat="44.18123" lon="5.05808">
        <ele>605.29</ele>
        <time>2021-12-29T09:51:42Z</time>
      </trkpt>
      <trkpt lat="44.18121" lon="5.05819">
        <ele>607.69</ele>
        <time>2021-12-29T09:51:57Z</time>
      </trkpt>
      <trkpt lat="44.18119" lon="5.05825">
        <ele>608.17</ele>
        <time>2021-12-29T09:52:13Z</time>
      </trkpt>
      <trkpt lat="44.18121" lon="5.05827">
        <ele>608.17</ele>
        <time>2021-12-29T09:52:33Z</time>
      </trkpt>
      <trkpt lat="44.18121" lon="5.05824">
        <ele>608.65</ele>
        <time>2021-12-29T09:52:54Z</time>
      </trkpt>
      <trkpt lat="44.18122" lon="5.05825">
        <ele>608.65</ele>
        <time>2021-12-29T09:53:13Z</time>
      </trkpt>
      <trkpt lat="44.18123" lon="5.05825">
        <ele>608.65</ele>
        <time>2021-12-29T09:53:44Z</time>
      </trkpt>
      <trkpt lat="44.18122" lon="5.05826">
        <ele>607.69</ele>
        <time>2021-12-29T09:54:19Z</time>
      </trkpt>
      <trkpt lat="44.18122" lon="5.05827">
        <ele>607.69</ele>
        <time>2021-12-29T09:54:35Z</time>
      </trkpt>
      <trkpt lat="44.18122" lon="5.05824">
        <ele>608.17</ele>
        <time>2021-12-29T09:55:00Z</time>
      </trkpt>
      <trkpt lat="44.18122" lon="5.05822">
        <ele>608.17</ele>
        <time>2021-12-29T09:55:22Z</time>
      </trkpt>
      <trkpt lat="44.18122" lon="5.05824">
        <ele>608.17</ele>
        <time>2021-12-29T09:55:38Z</time>
      </trkpt>
      <trkpt lat="44.18122" lon="5.05828">
        <ele>608.17</ele>
        <time>2021-12-29T09:56:04Z</time>
      </trkpt>
      <trkpt lat="44.18116" lon="5.05834">
        <ele>610.57</ele>
        <time>2021-12-29T09:56:20Z</time>
      </trkpt>
      <trkpt lat="44.18109" lon="5.0584">
        <ele>612.98</ele>
        <time>2021-12-29T09:56:34Z</time>
      </trkpt>
      <trkpt lat="44.18103" lon="5.05843">
        <ele>614.9</ele>
        <time>2021-12-29T09:56:47Z</time>
      </trkpt>
      <trkpt lat="44.18098" lon="5.05852">
        <ele>618.26</ele>
        <time>2021-12-29T09:57:00Z</time>
      </trkpt>
      <trkpt lat="44.18087" lon="5.05852">
        <ele>621.15</ele>
        <time>2021-12-29T09:57:15Z</time>
      </trkpt>
      <trkpt lat="44.18077" lon="5.05855">
        <ele>623.07</ele>
        <time>2021-12-29T09:57:29Z</time>
      </trkpt>
      <trkpt lat="44.18073" lon="5.0586">
        <ele>625.96</ele>
        <time>2021-12-29T09:57:43Z</time>
      </trkpt>
      <trkpt lat="44.18065" lon="5.05868">
        <ele>629.32</ele>
        <time>2021-12-29T09:57:59Z</time>
      </trkpt>
      <trkpt lat="44.18063" lon="5.05862">
        <ele>631.72</ele>
        <time>2021-12-29T09:58:13Z</time>
      </trkpt>
      <trkpt lat="44.18056" lon="5.05867">
        <ele>633.65</ele>
        <time>2021-12-29T09:58:28Z</time>
      </trkpt>
      <trkpt lat="44.18052" lon="5.05878">
        <ele>637.01</ele>
        <time>2021-12-29T09:58:46Z</time>
      </trkpt>
      <trkpt lat="44.18049" lon="5.0589">
        <ele>638.93</ele>
        <time>2021-12-29T09:58:58Z</time>
      </trkpt>
      <trkpt lat="44.18045" lon="5.05899">
        <ele>640.86</ele>
        <time>2021-12-29T09:59:12Z</time>
      </trkpt>
      <trkpt lat="44.18042" lon="5.05907">
        <ele>643.26</ele>
        <time>2021-12-29T09:59:26Z</time>
      </trkpt>
      <trkpt lat="44.18038" lon="5.05914">
        <ele>644.7</ele>
        <time>2021-12-29T09:59:42Z</time>
      </trkpt>
      <trkpt lat="44.18037" lon="5.0592">
        <ele>648.07</ele>
        <time>2021-12-29T09:59:58Z</time>
      </trkpt>
      <trkpt lat="44.18035" lon="5.05924">
        <ele>648.55</ele>
        <time>2021-12-29T10:00:16Z</time>
      </trkpt>
      <trkpt lat="44.18036" lon="5.05931">
        <ele>649.99</ele>
        <time>2021-12-29T10:00:31Z</time>
      </trkpt>
      <trkpt lat="44.18035" lon="5.05939">
        <ele>652.39</ele>
        <time>2021-12-29T10:00:45Z</time>
      </trkpt>
      <trkpt lat="44.18031" lon="5.05945">
        <ele>654.31</ele>
        <time>2021-12-29T10:01:00Z</time>
      </trkpt>
      <trkpt lat="44.18026" lon="5.0595">
        <ele>657.2</ele>
        <time>2021-12-29T10:01:17Z</time>
      </trkpt>
      <trkpt lat="44.18026" lon="5.05944">
        <ele>659.6</ele>
        <time>2021-12-29T10:01:37Z</time>
      </trkpt>
      <trkpt lat="44.18023" lon="5.05945">
        <ele>661.52</ele>
        <time>2021-12-29T10:01:50Z</time>
      </trkpt>
      <trkpt lat="44.18021" lon="5.05935">
        <ele>662.49</ele>
        <time>2021-12-29T10:02:06Z</time>
      </trkpt>
      <trkpt lat="44.1802" lon="5.05926">
        <ele>664.89</ele>
        <time>2021-12-29T10:02:19Z</time>
      </trkpt>
      <trkpt lat="44.18019" lon="5.05917">
        <ele>665.85</ele>
        <time>2021-12-29T10:02:33Z</time>
      </trkpt>
      <trkpt lat="44.18016" lon="5.05914">
        <ele>666.81</ele>
        <time>2021-12-29T10:02:49Z</time>
      </trkpt>
      <trkpt lat="44.18015" lon="5.0591">
        <ele>668.25</ele>
        <time>2021-12-29T10:02:59Z</time>
      </trkpt>
      <trkpt lat="44.18013" lon="5.05909">
        <ele>669.22</ele>
        <time>2021-12-29T10:03:11Z</time>
      </trkpt>
      <trkpt lat="44.18013" lon="5.05912">
        <ele>670.18</ele>
        <time>2021-12-29T10:03:24Z</time>
      </trkpt>
      <trkpt lat="44.18014" lon="5.05908">
        <ele>671.14</ele>
        <time>2021-12-29T10:03:39Z</time>
      </trkpt>
      <trkpt lat="44.18011" lon="5.05908">
        <ele>672.58</ele>
        <time>2021-12-29T10:03:53Z</time>
      </trkpt>
      <trkpt lat="44.18012" lon="5.059">
        <ele>674.5</ele>
        <time>2021-12-29T10:04:07Z</time>
      </trkpt>
      <trkpt lat="44.18012" lon="5.05902">
        <ele>674.5</ele>
        <time>2021-12-29T10:04:21Z</time>
      </trkpt>
      <trkpt lat="44.18013" lon="5.059">
        <ele>674.5</ele>
        <time>2021-12-29T10:04:40Z</time>
      </trkpt>
      <trkpt lat="44.18013" lon="5.05899">
        <ele>675.46</ele>
        <time>2021-12-29T10:05:05Z</time>
      </trkpt>
      <trkpt lat="44.18015" lon="5.05897">
        <ele>675.46</ele>
        <time>2021-12-29T10:05:56Z</time>
      </trkpt>
      <trkpt lat="44.18014" lon="5.05897">
        <ele>675.46</ele>
        <time>2021-12-29T10:06:30Z</time>
      </trkpt>
      <trkpt lat="44.18015" lon="5.05897">
        <ele>675.94</ele>
        <time>2021-12-29T10:06:54Z</time>
      </trkpt>
      <trkpt lat="44.18014" lon="5.05897">
        <ele>675.94</ele>
        <time>2021-12-29T10:07:10Z</time>
      </trkpt>
      <trkpt lat="44.18011" lon="5.05887">
        <ele>677.39</ele>
        <time>2021-12-29T10:07:26Z</time>
      </trkpt>
      <trkpt lat="44.1801" lon="5.0588">
        <ele>679.79</ele>
        <time>2021-12-29T10:07:40Z</time>
      </trkpt>
      <trkpt lat="44.18006" lon="5.05872">
        <ele>683.15</ele>
        <time>2021-12-29T10:07:54Z</time>
      </trkpt>
      <trkpt lat="44.18001" lon="5.05867">
        <ele>684.6</ele>
        <time>2021-12-29T10:08:07Z</time>
      </trkpt>
      <trkpt lat="44.17996" lon="5.05868">
        <ele>687.48</ele>
        <time>2021-12-29T10:08:20Z</time>
      </trkpt>
      <trkpt lat="44.17991" lon="5.05864">
        <ele>690.36</ele>
        <time>2021-12-29T10:08:34Z</time>
      </trkpt>
      <trkpt lat="44.17985" lon="5.05864">
        <ele>693.25</ele>
        <time>2021-12-29T10:08:52Z</time>
      </trkpt>
      <trkpt lat="44.1798" lon="5.0587">
        <ele>696.13</ele>
        <time>2021-12-29T10:09:08Z</time>
      </trkpt>
      <trkpt lat="44.17978" lon="5.0588">
        <ele>699.02</ele>
        <time>2021-12-29T10:09:23Z</time>
      </trkpt>
      <trkpt lat="44.17976" lon="5.05889">
        <ele>700.46</ele>
        <time>2021-12-29T10:09:37Z</time>
      </trkpt>
      <trkpt lat="44.17973" lon="5.05888">
        <ele>701.9</ele>
        <time>2021-12-29T10:09:54Z</time>
      </trkpt>
      <trkpt lat="44.1797" lon="5.05888">
        <ele>701.9</ele>
        <time>2021-12-29T10:10:09Z</time>
      </trkpt>
      <trkpt lat="44.17971" lon="5.05902">
        <ele>703.34</ele>
        <time>2021-12-29T10:10:23Z</time>
      </trkpt>
      <trkpt lat="44.1797" lon="5.05903">
        <ele>703.34</ele>
        <time>2021-12-29T10:10:24Z</time>
      </trkpt>
      <trkpt lat="44.17964" lon="5.05918">
        <ele>706.23</ele>
        <time>2021-12-29T10:10:39Z</time>
      </trkpt>
      <trkpt lat="44.17961" lon="5.05932">
        <ele>708.15</ele>
        <time>2021-12-29T10:10:53Z</time>
      </trkpt>
      <trkpt lat="44.17959" lon="5.05945">
        <ele>710.07</ele>
        <time>2021-12-29T10:11:06Z</time>
      </trkpt>
      <trkpt lat="44.17955" lon="5.05956">
        <ele>712.47</ele>
        <time>2021-12-29T10:11:21Z</time>
      </trkpt>
      <trkpt lat="44.17947" lon="5.05956">
        <ele>715.36</ele>
        <time>2021-12-29T10:11:36Z</time>
      </trkpt>
      <trkpt lat="44.1794" lon="5.05962">
        <ele>717.76</ele>
        <time>2021-12-29T10:11:50Z</time>
      </trkpt>
      <trkpt lat="44.17935" lon="5.05968">
        <ele>719.68</ele>
        <time>2021-12-29T10:12:05Z</time>
      </trkpt>
      <trkpt lat="44.17932" lon="5.05975">
        <ele>721.61</ele>
        <time>2021-12-29T10:12:21Z</time>
      </trkpt>
      <trkpt lat="44.17928" lon="5.05983">
        <ele>723.05</ele>
        <time>2021-12-29T10:12:35Z</time>
      </trkpt>
      <trkpt lat="44.17923" lon="5.05994">
        <ele>724.49</ele>
        <time>2021-12-29T10:12:49Z</time>
      </trkpt>
      <trkpt lat="44.17919" lon="5.06001">
        <ele>726.41</ele>
        <time>2021-12-29T10:13:03Z</time>
      </trkpt>
      <trkpt lat="44.17914" lon="5.06009">
        <ele>728.82</ele>
        <time>2021-12-29T10:13:17Z</time>
      </trkpt>
      <trkpt lat="44.17914" lon="5.06012">
        <ele>729.3</ele>
        <time>2021-12-29T10:13:35Z</time>
      </trkpt>
      <trkpt lat="44.17913" lon="5.06013">
        <ele>729.3</ele>
        <time>2021-12-29T10:13:55Z</time>
      </trkpt>
      <trkpt lat="44.17911" lon="5.06009">
        <ele>729.78</ele>
        <time>2021-12-29T10:14:11Z</time>
      </trkpt>
      <trkpt lat="44.17911" lon="5.06008">
        <ele>729.78</ele>
        <time>2021-12-29T10:14:32Z</time>
      </trkpt>
      <trkpt lat="44.1791" lon="5.06008">
        <ele>729.78</ele>
        <time>2021-12-29T10:15:13Z</time>
      </trkpt>
      <trkpt lat="44.17914" lon="5.06012">
        <ele>728.34</ele>
        <time>2021-12-29T10:15:23Z</time>
      </trkpt>
      <trkpt lat="44.17922" lon="5.06011">
        <ele>729.6</ele>
      </trkpt>
      <trkpt lat="44.1793" lon="5.06012">
        <ele>728.5</ele>
        <time>2021-12-29T10:16:03Z</time>
      </trkpt>
      <trkpt lat="44.17936" lon="5.06014">
        <ele>727.8</ele>
        <time>2021-12-29T10:16:17Z</time>
      </trkpt>
      <trkpt lat="44.17943" lon="5.06021">
        <ele>727.5</ele>
        <time>2021-12-29T10:16:31Z</time>
      </trkpt>
      <trkpt lat="44.17951" lon="5.06037">
        <ele>726.8</ele>
        <time>2021-12-29T10:16:38Z</time>
      </trkpt>
      <trkpt lat="44.17962" lon="5.06052">
        <ele>725.7</ele>
      </trkpt>
      <trkpt lat="44.17972" lon="5.06065">
        <ele>725.3</ele>
        <time>2021-12-29T10:16:59Z</time>
      </trkpt>
      <trkpt lat="44.17988" lon="5.06085">
        <ele>723.8</ele>
        <time>2021-12-29T10:17:16Z</time>
      </trkpt>
      <trkpt lat="44.18004" lon="5.06106">
        <ele>722.9</ele>
        <time>2021-12-29T10:17:33Z</time>
      </trkpt>
      <trkpt lat="44.18015" lon="5.06121">
        <ele>722.6</ele>
        <time>2021-12-29T10:17:49Z</time>
      </trkpt>
      <trkpt lat="44.18024" lon="5.06132">
        <ele>722.6</ele>
        <time>2021-12-29T10:17:52Z</time>
      </trkpt>
      <trkpt lat="44.18029" lon="5.06144">
        <ele>718.24</ele>
        <time>2021-12-29T10:18:09Z</time>
      </trkpt>
      <trkpt lat="44.18034" lon="5.06156">
        <ele>717.76</ele>
        <time>2021-12-29T10:18:17Z</time>
      </trkpt>
      <trkpt lat="44.18042" lon="5.06176">
        <ele>716.8</ele>
        <time>2021-12-29T10:18:32Z</time>
      </trkpt>
      <trkpt lat="44.18051" lon="5.06195">
        <ele>714.88</ele>
        <time>2021-12-29T10:18:45Z</time>
      </trkpt>
      <trkpt lat="44.18063" lon="5.06223">
        <ele>717.7</ele>
        <time>2021-12-29T10:19:00Z</time>
      </trkpt>
      <trkpt lat="44.18067" lon="5.06246">
        <ele>716.4</ele>
        <time>2021-12-29T10:19:15Z</time>
      </trkpt>
      <trkpt lat="44.18071" lon="5.06256">
        <ele>715.6</ele>
        <time>2021-12-29T10:19:21Z</time>
      </trkpt>
      <trkpt lat="44.18084" lon="5.0627">
        <ele>715</ele>
        <time>2021-12-29T10:19:35Z</time>
      </trkpt>
      <trkpt lat="44.18091" lon="5.06298">
        <ele>709.59</ele>
        <time>2021-12-29T10:19:51Z</time>
      </trkpt>
      <trkpt lat="44.18099" lon="5.06326">
        <ele>708.63</ele>
        <time>2021-12-29T10:20:08Z</time>
      </trkpt>
      <trkpt lat="44.18104" lon="5.06346">
        <ele>706.71</ele>
        <time>2021-12-29T10:20:21Z</time>
      </trkpt>
      <trkpt lat="44.18121" lon="5.06367">
        <ele>710.2</ele>
        <time>2021-12-29T10:20:36Z</time>
      </trkpt>
      <trkpt lat="44.18126" lon="5.06388">
        <ele>705.75</ele>
        <time>2021-12-29T10:20:52Z</time>
      </trkpt>
      <trkpt lat="44.18133" lon="5.06419">
        <ele>710</ele>
        <time>2021-12-29T10:21:09Z</time>
      </trkpt>
      <trkpt lat="44.18139" lon="5.06442">
        <ele>705.26</ele>
        <time>2021-12-29T10:21:25Z</time>
      </trkpt>
      <trkpt lat="44.18148" lon="5.0647">
        <ele>706.23</ele>
        <time>2021-12-29T10:21:40Z</time>
      </trkpt>
      <trkpt lat="44.18148" lon="5.06472">
        <ele>706.23</ele>
        <time>2021-12-29T10:21:41Z</time>
      </trkpt>
      <trkpt lat="44.18156" lon="5.06498">
        <ele>709.2</ele>
        <time>2021-12-29T10:21:58Z</time>
      </trkpt>
      <trkpt lat="44.18162" lon="5.06522">
        <ele>704.4</ele>
        <time>2021-12-29T10:22:12Z</time>
      </trkpt>
      <trkpt lat="44.1817" lon="5.06537">
        <ele>701.6</ele>
        <time>2021-12-29T10:22:26Z</time>
      </trkpt>
      <trkpt lat="44.18179" lon="5.0655">
        <ele>695.17</ele>
        <time>2021-12-29T10:22:43Z</time>
      </trkpt>
      <trkpt lat="44.18193" lon="5.0656">
        <ele>692.29</ele>
        <time>2021-12-29T10:22:58Z</time>
      </trkpt>
      <trkpt lat="44.18209" lon="5.06574">
        <ele>689.4</ele>
        <time>2021-12-29T10:23:14Z</time>
      </trkpt>
      <trkpt lat="44.18227" lon="5.06589">
        <ele>686.52</ele>
        <time>2021-12-29T10:23:31Z</time>
      </trkpt>
      <trkpt lat="44.18238" lon="5.06598">
        <ele>684.12</ele>
        <time>2021-12-29T10:23:45Z</time>
      </trkpt>
      <trkpt lat="44.18253" lon="5.0661">
        <ele>681.23</ele>
        <time>2021-12-29T10:24:01Z</time>
      </trkpt>
      <trkpt lat="44.18255" lon="5.06616">
        <ele>679.31</ele>
        <time>2021-12-29T10:24:06Z</time>
      </trkpt>
      <trkpt lat="44.18247" lon="5.06624">
        <ele>676.91</ele>
        <time>2021-12-29T10:24:20Z</time>
      </trkpt>
      <trkpt lat="44.18235" lon="5.06631">
        <ele>673.54</ele>
        <time>2021-12-29T10:24:34Z</time>
      </trkpt>
      <trkpt lat="44.18231" lon="5.0663">
        <ele>677.4</ele>
        <time>2021-12-29T10:24:43Z</time>
      </trkpt>
      <trkpt lat="44.18214" lon="5.06639">
        <ele>672.8</ele>
        <time>2021-12-29T10:24:57Z</time>
      </trkpt>
      <trkpt lat="44.18204" lon="5.06647">
        <ele>664.41</ele>
        <time>2021-12-29T10:25:09Z</time>
      </trkpt>
      <trkpt lat="44.18212" lon="5.06657">
        <ele>662.01</ele>
        <time>2021-12-29T10:25:23Z</time>
      </trkpt>
      <trkpt lat="44.1822" lon="5.06667">
        <ele>658.64</ele>
        <time>2021-12-29T10:25:36Z</time>
      </trkpt>
      <trkpt lat="44.18225" lon="5.06678">
        <ele>655.76</ele>
        <time>2021-12-29T10:25:49Z</time>
      </trkpt>
      <trkpt lat="44.18234" lon="5.06688">
        <ele>652.87</ele>
        <time>2021-12-29T10:26:03Z</time>
      </trkpt>
      <trkpt lat="44.18247" lon="5.06695">
        <ele>649.99</ele>
        <time>2021-12-29T10:26:20Z</time>
      </trkpt>
      <trkpt lat="44.18252" lon="5.067">
        <ele>649.03</ele>
        <time>2021-12-29T10:26:25Z</time>
      </trkpt>
      <trkpt lat="44.18266" lon="5.06713">
        <ele>645.66</ele>
        <time>2021-12-29T10:26:42Z</time>
      </trkpt>
      <trkpt lat="44.18283" lon="5.06722">
        <ele>643.26</ele>
        <time>2021-12-29T10:26:59Z</time>
      </trkpt>
      <trkpt lat="44.18292" lon="5.06731">
        <ele>639.41</ele>
        <time>2021-12-29T10:27:12Z</time>
      </trkpt>
      <trkpt lat="44.18303" lon="5.06739">
        <ele>636.53</ele>
        <time>2021-12-29T10:27:28Z</time>
      </trkpt>
      <trkpt lat="44.18308" lon="5.06745">
        <ele>635.09</ele>
        <time>2021-12-29T10:27:34Z</time>
      </trkpt>
      <trkpt lat="44.18319" lon="5.06752">
        <ele>632.68</ele>
        <time>2021-12-29T10:27:45Z</time>
      </trkpt>
      <trkpt lat="44.18334" lon="5.06749">
        <ele>631.72</ele>
        <time>2021-12-29T10:28:01Z</time>
      </trkpt>
      <trkpt lat="44.18356" lon="5.06752">
        <ele>635.6</ele>
        <time>2021-12-29T10:28:16Z</time>
      </trkpt>
      <trkpt lat="44.18364" lon="5.06756">
        <ele>635</ele>
        <time>2021-12-29T10:28:18Z</time>
      </trkpt>
      <trkpt lat="44.18376" lon="5.06764">
        <ele>634.3</ele>
        <time>2021-12-29T10:28:35Z</time>
      </trkpt>
      <trkpt lat="44.18391" lon="5.06781">
        <ele>630.5</ele>
        <time>2021-12-29T10:28:52Z</time>
      </trkpt>
      <trkpt lat="44.18405" lon="5.06797">
        <ele>629.6</ele>
        <time>2021-12-29T10:29:08Z</time>
      </trkpt>
      <trkpt lat="44.18403" lon="5.06804">
        <ele>625.7</ele>
        <time>2021-12-29T10:29:21Z</time>
      </trkpt>
      <trkpt lat="44.18391" lon="5.06796">
        <ele>625</ele>
        <time>2021-12-29T10:29:31Z</time>
      </trkpt>
      <trkpt lat="44.18381" lon="5.06791">
        <ele>624.4</ele>
      </trkpt>
      <trkpt lat="44.18371" lon="5.06791">
        <ele>622.2</ele>
        <time>2021-12-29T10:29:48Z</time>
      </trkpt>
      <trkpt lat="44.18358" lon="5.06789">
        <ele>620.3</ele>
      </trkpt>
      <trkpt lat="44.18352" lon="5.06791">
        <ele>619</ele>
        <time>2021-12-29T10:30:04Z</time>
      </trkpt>
      <trkpt lat="44.18344" lon="5.06793">
        <ele>617.8</ele>
        <time>2021-12-29T10:30:17Z</time>
      </trkpt>
      <trkpt lat="44.18338" lon="5.06794">
        <ele>616.8</ele>
      </trkpt>
      <trkpt lat="44.18331" lon="5.068">
        <ele>609.61</ele>
        <time>2021-12-29T10:30:29Z</time>
      </trkpt>
      <trkpt lat="44.18328" lon="5.06802">
        <ele>609.61</ele>
        <time>2021-12-29T10:30:32Z</time>
      </trkpt>
      <trkpt lat="44.18309" lon="5.06823">
        <ele>607.21</ele>
        <time>2021-12-29T10:30:49Z</time>
      </trkpt>
      <trkpt lat="44.18298" lon="5.06832">
        <ele>605.77</ele>
        <time>2021-12-29T10:31:02Z</time>
      </trkpt>
      <trkpt lat="44.1828" lon="5.0684">
        <ele>603.85</ele>
        <time>2021-12-29T10:31:19Z</time>
      </trkpt>
      <trkpt lat="44.18272" lon="5.06839">
        <ele>608.4</ele>
        <time>2021-12-29T10:31:29Z</time>
      </trkpt>
      <trkpt lat="44.18262" lon="5.0684">
        <ele>606.3</ele>
      </trkpt>
      <trkpt lat="44.18251" lon="5.0683">
        <ele>606.9</ele>
        <time>2021-12-29T10:31:46Z</time>
      </trkpt>
      <trkpt lat="44.18238" lon="5.06821">
        <ele>599.04</ele>
        <time>2021-12-29T10:32:01Z</time>
      </trkpt>
      <trkpt lat="44.18223" lon="5.06817">
        <ele>596.15</ele>
        <time>2021-12-29T10:32:17Z</time>
      </trkpt>
      <trkpt lat="44.1822" lon="5.06816">
        <ele>595.67</ele>
        <time>2021-12-29T10:32:19Z</time>
      </trkpt>
      <trkpt lat="44.18204" lon="5.06811">
        <ele>600.7</ele>
        <time>2021-12-29T10:32:26Z</time>
      </trkpt>
      <trkpt lat="44.18197" lon="5.0681">
        <ele>599.5</ele>
      </trkpt>
      <trkpt lat="44.18194" lon="5.06815">
        <ele>597.5</ele>
        <time>2021-12-29T10:32:31Z</time>
      </trkpt>
      <trkpt lat="44.18205" lon="5.06833">
        <ele>589.43</ele>
        <time>2021-12-29T10:32:47Z</time>
      </trkpt>
      <trkpt lat="44.18212" lon="5.06844">
        <ele>586.06</ele>
        <time>2021-12-29T10:33:01Z</time>
      </trkpt>
      <trkpt lat="44.1822" lon="5.0686">
        <ele>583.18</ele>
        <time>2021-12-29T10:33:15Z</time>
      </trkpt>
      <trkpt lat="44.18219" lon="5.06872">
        <ele>587.5</ele>
        <time>2021-12-29T10:33:24Z</time>
      </trkpt>
      <trkpt lat="44.18202" lon="5.06874">
        <ele>584.5</ele>
        <time>2021-12-29T10:33:39Z</time>
      </trkpt>
      <trkpt lat="44.18186" lon="5.06882">
        <ele>580.8</ele>
        <time>2021-12-29T10:33:55Z</time>
      </trkpt>
      <trkpt lat="44.18163" lon="5.06895">
        <ele>576.7</ele>
        <time>2021-12-29T10:34:10Z</time>
      </trkpt>
      <trkpt lat="44.18156" lon="5.06912">
        <ele>573</ele>
        <time>2021-12-29T10:34:22Z</time>
      </trkpt>
      <trkpt lat="44.18149" lon="5.06931">
        <ele>569.5</ele>
        <time>2021-12-29T10:34:36Z</time>
      </trkpt>
      <trkpt lat="44.18142" lon="5.06949">
        <ele>561.55</ele>
        <time>2021-12-29T10:34:48Z</time>
      </trkpt>
      <trkpt lat="44.18133" lon="5.0697">
        <ele>563.5</ele>
        <time>2021-12-29T10:35:04Z</time>
      </trkpt>
      <trkpt lat="44.18127" lon="5.06974">
        <ele>562.1</ele>
        <time>2021-12-29T10:35:10Z</time>
      </trkpt>
      <trkpt lat="44.18116" lon="5.06978">
        <ele>560</ele>
        <time>2021-12-29T10:35:26Z</time>
      </trkpt>
      <trkpt lat="44.18101" lon="5.06958">
        <ele>553.38</ele>
        <time>2021-12-29T10:35:40Z</time>
      </trkpt>
      <trkpt lat="44.18089" lon="5.06946">
        <ele>555.8</ele>
        <time>2021-12-29T10:35:52Z</time>
      </trkpt>
      <trkpt lat="44.18072" lon="5.06939">
        <ele>547.61</ele>
        <time>2021-12-29T10:36:08Z</time>
      </trkpt>
      <trkpt lat="44.18051" lon="5.06932">
        <ele>550.7</ele>
        <time>2021-12-29T10:36:24Z</time>
      </trkpt>
      <trkpt lat="44.18033" lon="5.06942">
        <ele>547</ele>
        <time>2021-12-29T10:36:41Z</time>
      </trkpt>
      <trkpt lat="44.18025" lon="5.06948">
        <ele>544.4</ele>
      </trkpt>
      <trkpt lat="44.18013" lon="5.06947">
        <ele>542.2</ele>
      </trkpt>
      <trkpt lat="44.18" lon="5.06943">
        <ele>540.2</ele>
        <time>2021-12-29T10:37:10Z</time>
      </trkpt>
      <trkpt lat="44.1799" lon="5.06936">
        <ele>538.9</ele>
      </trkpt>
      <trkpt lat="44.17982" lon="5.06941">
        <ele>536.9</ele>
        <time>2021-12-29T10:37:25Z</time>
      </trkpt>
      <trkpt lat="44.17968" lon="5.06952">
        <ele>533.7</ele>
        <time>2021-12-29T10:37:42Z</time>
      </trkpt>
      <trkpt lat="44.17958" lon="5.06959">
        <ele>531.9</ele>
        <time>2021-12-29T10:37:55Z</time>
      </trkpt>
      <trkpt lat="44.1795" lon="5.06965">
        <ele>530.7</ele>
        <time>2021-12-29T10:38:03Z</time>
      </trkpt>
      <trkpt lat="44.17933" lon="5.06975">
        <ele>528.8</ele>
        <time>2021-12-29T10:38:19Z</time>
      </trkpt>
      <trkpt lat="44.17927" lon="5.06973">
        <ele>528.7</ele>
      </trkpt>
      <trkpt lat="44.17922" lon="5.06965">
        <ele>528.6</ele>
        <time>2021-12-29T10:38:34Z</time>
      </trkpt>
      <trkpt lat="44.17912" lon="5.06944">
        <ele>528.2</ele>
        <time>2021-12-29T10:38:50Z</time>
      </trkpt>
      <trkpt lat="44.17896" lon="5.0692">
        <ele>522.13</ele>
        <time>2021-12-29T10:39:07Z</time>
      </trkpt>
      <trkpt lat="44.17884" lon="5.06915">
        <ele>523.3</ele>
      </trkpt>
      <trkpt lat="44.17876" lon="5.06918">
        <ele>522</ele>
        <time>2021-12-29T10:39:21Z</time>
      </trkpt>
      <trkpt lat="44.1787" lon="5.06929">
        <ele>518.29</ele>
        <time>2021-12-29T10:39:36Z</time>
      </trkpt>
      <trkpt lat="44.17871" lon="5.06943">
        <ele>516.37</ele>
        <time>2021-12-29T10:40:17Z</time>
      </trkpt>
      <trkpt lat="44.17874" lon="5.06946">
        <ele>519.4</ele>
        <time>2021-12-29T10:40:29Z</time>
      </trkpt>
      <trkpt lat="44.17877" lon="5.06953">
        <ele>518.8</ele>
        <time>2021-12-29T10:40:38Z</time>
      </trkpt>
      <trkpt lat="44.17883" lon="5.06963">
        <ele>518.3</ele>
        <time>2021-12-29T10:40:48Z</time>
      </trkpt>
      <trkpt lat="44.17889" lon="5.0698">
        <ele>517</ele>
        <time>2021-12-29T10:40:57Z</time>
      </trkpt>
      <trkpt lat="44.1789" lon="5.06997">
        <ele>514.9</ele>
      </trkpt>
      <trkpt lat="44.17887" lon="5.07008">
        <ele>510.12</ele>
        <time>2021-12-29T10:41:14Z</time>
      </trkpt>
      <trkpt lat="44.17884" lon="5.07015">
        <ele>509.16</ele>
        <time>2021-12-29T10:41:24Z</time>
      </trkpt>
      <trkpt lat="44.17879" lon="5.07016">
        <ele>510.3</ele>
        <time>2021-12-29T10:41:28Z</time>
      </trkpt>
      <trkpt lat="44.17873" lon="5.07015">
        <ele>509.2</ele>
        <time>2021-12-29T10:41:43Z</time>
      </trkpt>
      <trkpt lat="44.17864" lon="5.07004">
        <ele>508.9</ele>
      </trkpt>
      <trkpt lat="44.17853" lon="5.06991">
        <ele>506.9</ele>
        <time>2021-12-29T10:41:56Z</time>
      </trkpt>
      <trkpt lat="44.1784" lon="5.06976">
        <ele>505</ele>
        <time>2021-12-29T10:42:08Z</time>
      </trkpt>
      <trkpt lat="44.17826" lon="5.0697">
        <ele>504.1</ele>
      </trkpt>
      <trkpt lat="44.17811" lon="5.06973">
        <ele>503.1</ele>
        <time>2021-12-29T10:42:27Z</time>
      </trkpt>
      <trkpt lat="44.17801" lon="5.0698">
        <ele>502</ele>
      </trkpt>
      <trkpt lat="44.17786" lon="5.07003">
        <ele>499.2</ele>
        <time>2021-12-29T10:42:44Z</time>
      </trkpt>
      <trkpt lat="44.17779" lon="5.07015">
        <ele>497.8</ele>
        <time>2021-12-29T10:43:00Z</time>
      </trkpt>
      <trkpt lat="44.17773" lon="5.07021">
        <ele>496.8</ele>
      </trkpt>
      <trkpt lat="44.17764" lon="5.07034">
        <ele>494.2</ele>
        <time>2021-12-29T10:43:14Z</time>
      </trkpt>
      <trkpt lat="44.17751" lon="5.07048">
        <ele>491.4</ele>
        <time>2021-12-29T10:43:28Z</time>
      </trkpt>
      <trkpt lat="44.17733" lon="5.07068">
        <ele>490.4</ele>
        <time>2021-12-29T10:43:46Z</time>
      </trkpt>
      <trkpt lat="44.17722" lon="5.0709">
        <ele>489</ele>
        <time>2021-12-29T10:44:03Z</time>
      </trkpt>
      <trkpt lat="44.17706" lon="5.07111">
        <ele>484.2</ele>
        <time>2021-12-29T10:44:17Z</time>
      </trkpt>
      <trkpt lat="44.17692" lon="5.07108">
        <ele>477.91</ele>
        <time>2021-12-29T10:44:32Z</time>
      </trkpt>
      <trkpt lat="44.1767" lon="5.071">
        <ele>478.8</ele>
        <time>2021-12-29T10:44:49Z</time>
      </trkpt>
      <trkpt lat="44.1765" lon="5.07094">
        <ele>476.9</ele>
        <time>2021-12-29T10:45:02Z</time>
      </trkpt>
      <trkpt lat="44.17639" lon="5.07092">
        <ele>475.5</ele>
        <time>2021-12-29T10:45:18Z</time>
      </trkpt>
      <trkpt lat="44.17625" lon="5.07089">
        <ele>474.3</ele>
        <time>2021-12-29T10:45:31Z</time>
      </trkpt>
      <trkpt lat="44.17616" lon="5.07086">
        <ele>473.9</ele>
      </trkpt>
      <trkpt lat="44.17604" lon="5.07086">
        <ele>475.1</ele>
        <time>2021-12-29T10:45:46Z</time>
      </trkpt>
      <trkpt lat="44.17583" lon="5.07094">
        <ele>471.18</ele>
        <time>2021-12-29T10:46:02Z</time>
      </trkpt>
      <trkpt lat="44.17576" lon="5.07094">
        <ele>476.2</ele>
      </trkpt>
      <trkpt lat="44.17576" lon="5.07088">
        <ele>477.8</ele>
      </trkpt>
      <trkpt lat="44.1757" lon="5.07082">
        <ele>478.5</ele>
      </trkpt>
      <trkpt lat="44.17563" lon="5.07074">
        <ele>479.1</ele>
      </trkpt>
      <trkpt lat="44.17557" lon="5.07067">
        <ele>479.7</ele>
        <time>2021-12-29T10:46:34Z</time>
      </trkpt>
      <trkpt lat="44.17537" lon="5.0705">
        <ele>475.51</ele>
        <time>2021-12-29T10:46:54Z</time>
      </trkpt>
      <trkpt lat="44.17518" lon="5.07038">
        <ele>478.87</ele>
        <time>2021-12-29T10:47:11Z</time>
      </trkpt>
      <trkpt lat="44.17502" lon="5.07035">
        <ele>479.35</ele>
        <time>2021-12-29T10:47:26Z</time>
      </trkpt>
      <trkpt lat="44.17483" lon="5.07028">
        <ele>481.28</ele>
        <time>2021-12-29T10:47:44Z</time>
      </trkpt>
      <trkpt lat="44.17463" lon="5.0702">
        <ele>481.76</ele>
        <time>2021-12-29T10:48:00Z</time>
      </trkpt>
      <trkpt lat="44.17439" lon="5.07008">
        <ele>484.16</ele>
        <time>2021-12-29T10:48:18Z</time>
      </trkpt>
      <trkpt lat="44.1742" lon="5.06994">
        <ele>485.6</ele>
        <time>2021-12-29T10:48:35Z</time>
      </trkpt>
      <trkpt lat="44.17416" lon="5.06982">
        <ele>485.6</ele>
        <time>2021-12-29T10:48:43Z</time>
      </trkpt>
      <trkpt lat="44.17414" lon="5.06968">
        <ele>485.6</ele>
        <time>2021-12-29T10:48:51Z</time>
      </trkpt>
      <trkpt lat="44.1741" lon="5.06941">
        <ele>485.6</ele>
        <time>2021-12-29T10:49:09Z</time>
      </trkpt>
      <trkpt lat="44.17408" lon="5.06929">
        <ele>485.6</ele>
        <time>2021-12-29T10:49:20Z</time>
      </trkpt>
      <trkpt lat="44.17408" lon="5.06925">
        <ele>484.16</ele>
        <time>2021-12-29T10:49:23Z</time>
      </trkpt>
      <trkpt lat="44.17406" lon="5.06901">
        <ele>482.72</ele>
        <time>2021-12-29T10:49:39Z</time>
      </trkpt>
      <trkpt lat="44.17407" lon="5.0688">
        <ele>481.76</ele>
        <time>2021-12-29T10:49:53Z</time>
      </trkpt>
      <trkpt lat="44.17404" lon="5.0686">
        <ele>481.28</ele>
        <time>2021-12-29T10:50:06Z</time>
      </trkpt>
      <trkpt lat="44.174" lon="5.06835">
        <ele>481.28</ele>
        <time>2021-12-29T10:50:20Z</time>
      </trkpt>
      <trkpt lat="44.17394" lon="5.068">
        <ele>481.28</ele>
        <time>2021-12-29T10:50:37Z</time>
      </trkpt>
      <trkpt lat="44.17388" lon="5.06771">
        <ele>483.2</ele>
        <time>2021-12-29T10:50:54Z</time>
      </trkpt>
      <trkpt lat="44.17377" lon="5.06739">
        <ele>484.16</ele>
        <time>2021-12-29T10:51:12Z</time>
      </trkpt>
      <trkpt lat="44.1736" lon="5.0671">
        <ele>485.6</ele>
        <time>2021-12-29T10:51:30Z</time>
      </trkpt>
      <trkpt lat="44.17343" lon="5.06689">
        <ele>485.6</ele>
        <time>2021-12-29T10:51:47Z</time>
      </trkpt>
      <trkpt lat="44.17328" lon="5.06666">
        <ele>483.68</ele>
        <time>2021-12-29T10:52:05Z</time>
      </trkpt>
      <trkpt lat="44.17324" lon="5.06659">
        <ele>483.68</ele>
        <time>2021-12-29T10:52:20Z</time>
      </trkpt>
      <trkpt lat="44.17323" lon="5.06654">
        <ele>483.68</ele>
        <time>2021-12-29T10:52:28Z</time>
      </trkpt>
      <trkpt lat="44.17326" lon="5.06629">
        <ele>483.68</ele>
        <time>2021-12-29T10:52:45Z</time>
      </trkpt>
      <trkpt lat="44.17334" lon="5.06623">
        <ele>483.68</ele>
        <time>2021-12-29T10:52:53Z</time>
      </trkpt>
      <trkpt lat="44.17339" lon="5.06618">
        <ele>483.68</ele>
        <time>2021-12-29T10:53:05Z</time>
      </trkpt>
      <trkpt lat="44.17346" lon="5.06613">
        <ele>483.68</ele>
        <time>2021-12-29T10:53:12Z</time>
      </trkpt>
      <trkpt lat="44.17352" lon="5.06609">
        <ele>484.64</ele>
        <time>2021-12-29T10:53:17Z</time>
      </trkpt>
      <trkpt lat="44.17366" lon="5.0659">
        <ele>484.64</ele>
        <time>2021-12-29T10:53:31Z</time>
      </trkpt>
      <trkpt lat="44.17384" lon="5.06567">
        <ele>484.64</ele>
        <time>2021-12-29T10:53:50Z</time>
      </trkpt>
      <trkpt lat="44.17396" lon="5.06551">
        <ele>485.12</ele>
        <time>2021-12-29T10:54:03Z</time>
      </trkpt>
      <trkpt lat="44.17401" lon="5.06544">
        <ele>485.6</ele>
        <time>2021-12-29T10:54:16Z</time>
      </trkpt>
      <trkpt lat="44.17412" lon="5.0654">
        <ele>488.97</ele>
        <time>2021-12-29T10:54:29Z</time>
      </trkpt>
      <trkpt lat="44.17422" lon="5.06529">
        <ele>489.93</ele>
        <time>2021-12-29T10:54:41Z</time>
      </trkpt>
      <trkpt lat="44.1743" lon="5.06507">
        <ele>491.37</ele>
        <time>2021-12-29T10:54:57Z</time>
      </trkpt>
      <trkpt lat="44.17442" lon="5.06488">
        <ele>492.81</ele>
        <time>2021-12-29T10:55:14Z</time>
      </trkpt>
      <trkpt lat="44.17453" lon="5.06469">
        <ele>495.22</ele>
        <time>2021-12-29T10:55:31Z</time>
      </trkpt>
      <trkpt lat="44.17455" lon="5.06442">
        <ele>495.22</ele>
        <time>2021-12-29T10:55:49Z</time>
      </trkpt>
      <trkpt lat="44.17451" lon="5.06437">
        <ele>495.22</ele>
        <time>2021-12-29T10:56:03Z</time>
      </trkpt>
      <trkpt lat="44.1745" lon="5.06432">
        <ele>495.22</ele>
        <time>2021-12-29T10:56:15Z</time>
      </trkpt>
      <trkpt lat="44.1745" lon="5.06421">
        <ele>495.22</ele>
        <time>2021-12-29T10:56:37Z</time>
      </trkpt>
      <trkpt lat="44.17452" lon="5.06407">
        <ele>495.7</ele>
        <time>2021-12-29T10:56:53Z</time>
      </trkpt>
      <trkpt lat="44.17456" lon="5.06392">
        <ele>496.66</ele>
        <time>2021-12-29T10:57:07Z</time>
      </trkpt>
      <trkpt lat="44.17458" lon="5.06363">
        <ele>498.58</ele>
        <time>2021-12-29T10:57:24Z</time>
      </trkpt>
      <trkpt lat="44.17465" lon="5.06332">
        <ele>501.46</ele>
        <time>2021-12-29T10:57:43Z</time>
      </trkpt>
      <trkpt lat="44.17476" lon="5.0631">
        <ele>503.87</ele>
        <time>2021-12-29T10:57:59Z</time>
      </trkpt>
      <trkpt lat="44.1748" lon="5.06307">
        <ele>504.83</ele>
        <time>2021-12-29T10:58:04Z</time>
      </trkpt>
      <trkpt lat="44.17491" lon="5.06289">
        <ele>506.75</ele>
        <time>2021-12-29T10:58:18Z</time>
      </trkpt>
      <trkpt lat="44.17501" lon="5.0627">
        <ele>509.64</ele>
        <time>2021-12-29T10:58:35Z</time>
      </trkpt>
      <trkpt lat="44.17504" lon="5.06264">
        <ele>510.12</ele>
        <time>2021-12-29T10:58:41Z</time>
      </trkpt>
      <trkpt lat="44.17507" lon="5.06247">
        <ele>512.04</ele>
        <time>2021-12-29T10:58:57Z</time>
      </trkpt>
      <trkpt lat="44.17505" lon="5.06242">
        <ele>512.52</ele>
        <time>2021-12-29T10:59:15Z</time>
      </trkpt>
      <trkpt lat="44.17503" lon="5.06241">
        <ele>512.52</ele>
        <time>2021-12-29T10:59:36Z</time>
      </trkpt>
      <trkpt lat="44.17495" lon="5.06226">
        <ele>511.56</ele>
        <time>2021-12-29T10:59:54Z</time>
      </trkpt>
      <trkpt lat="44.17491" lon="5.06215">
        <ele>510.12</ele>
        <time>2021-12-29T11:00:03Z</time>
      </trkpt>
      <trkpt lat="44.17488" lon="5.06194">
        <ele>507.23</ele>
        <time>2021-12-29T11:00:19Z</time>
      </trkpt>
      <trkpt lat="44.1749" lon="5.06185">
        <ele>506.75</ele>
        <time>2021-12-29T11:00:25Z</time>
      </trkpt>
      <trkpt lat="44.17495" lon="5.06164">
        <ele>503.87</ele>
        <time>2021-12-29T11:00:41Z</time>
      </trkpt>
      <trkpt lat="44.17501" lon="5.06145">
        <ele>502.91</ele>
        <time>2021-12-29T11:00:54Z</time>
      </trkpt>
      <trkpt lat="44.17502" lon="5.06125">
        <ele>501.95</ele>
        <time>2021-12-29T11:01:06Z</time>
      </trkpt>
      <trkpt lat="44.17498" lon="5.06089">
        <ele>501.46</ele>
        <time>2021-12-29T11:01:27Z</time>
      </trkpt>
      <trkpt lat="44.17496" lon="5.06074">
        <ele>501.46</ele>
        <time>2021-12-29T11:01:36Z</time>
      </trkpt>
      <trkpt lat="44.17484" lon="5.06052">
        <ele>500.98</ele>
        <time>2021-12-29T11:01:52Z</time>
      </trkpt>
      <trkpt lat="44.17471" lon="5.06034">
        <ele>500.5</ele>
        <time>2021-12-29T11:02:07Z</time>
      </trkpt>
      <trkpt lat="44.17459" lon="5.06011">
        <ele>500.02</ele>
        <time>2021-12-29T11:02:24Z</time>
      </trkpt>
      <trkpt lat="44.17449" lon="5.05995">
        <ele>496.66</ele>
        <time>2021-12-29T11:02:39Z</time>
      </trkpt>
      <trkpt lat="44.17446" lon="5.05989">
        <ele>496.18</ele>
        <time>2021-12-29T11:02:43Z</time>
      </trkpt>
      <trkpt lat="44.17437" lon="5.05985">
        <ele>495.22</ele>
        <time>2021-12-29T11:02:50Z</time>
      </trkpt>
      <trkpt lat="44.17413" lon="5.05988">
        <ele>492.33</ele>
        <time>2021-12-29T11:03:09Z</time>
      </trkpt>
      <trkpt lat="44.17399" lon="5.05988">
        <ele>488.97</ele>
        <time>2021-12-29T11:03:22Z</time>
      </trkpt>
      <trkpt lat="44.17384" lon="5.05982">
        <ele>485.12</ele>
        <time>2021-12-29T11:03:37Z</time>
      </trkpt>
      <trkpt lat="44.17372" lon="5.05981">
        <ele>481.76</ele>
        <time>2021-12-29T11:03:49Z</time>
      </trkpt>
      <trkpt lat="44.17356" lon="5.05979">
        <ele>478.39</ele>
        <time>2021-12-29T11:04:03Z</time>
      </trkpt>
      <trkpt lat="44.17339" lon="5.05974">
        <ele>475.51</ele>
        <time>2021-12-29T11:04:18Z</time>
      </trkpt>
      <trkpt lat="44.17326" lon="5.05973">
        <ele>473.59</ele>
        <time>2021-12-29T11:04:30Z</time>
      </trkpt>
      <trkpt lat="44.17323" lon="5.05954">
        <ele>472.63</ele>
        <time>2021-12-29T11:04:43Z</time>
      </trkpt>
      <trkpt lat="44.17323" lon="5.05938">
        <ele>472.14</ele>
        <time>2021-12-29T11:04:56Z</time>
      </trkpt>
      <trkpt lat="44.17327" lon="5.05905">
        <ele>471.18</ele>
        <time>2021-12-29T11:05:14Z</time>
      </trkpt>
      <trkpt lat="44.17338" lon="5.05879">
        <ele>470.22</ele>
        <time>2021-12-29T11:05:31Z</time>
      </trkpt>
      <trkpt lat="44.17353" lon="5.05847">
        <ele>470.22</ele>
        <time>2021-12-29T11:05:51Z</time>
      </trkpt>
      <trkpt lat="44.17364" lon="5.05813">
        <ele>470.22</ele>
        <time>2021-12-29T11:06:11Z</time>
      </trkpt>
      <trkpt lat="44.17371" lon="5.05784">
        <ele>469.74</ele>
        <time>2021-12-29T11:06:27Z</time>
      </trkpt>
      <trkpt lat="44.17372" lon="5.05768">
        <ele>469.26</ele>
        <time>2021-12-29T11:06:37Z</time>
      </trkpt>
      <trkpt lat="44.17363" lon="5.05741">
        <ele>468.78</ele>
        <time>2021-12-29T11:06:54Z</time>
      </trkpt>
      <trkpt lat="44.17364" lon="5.05708">
        <ele>468.3</ele>
        <time>2021-12-29T11:07:12Z</time>
      </trkpt>
      <trkpt lat="44.17368" lon="5.0568">
        <ele>467.82</ele>
        <time>2021-12-29T11:07:27Z</time>
      </trkpt>
      <trkpt lat="44.17373" lon="5.05665">
        <ele>467.82</ele>
        <time>2021-12-29T11:07:34Z</time>
      </trkpt>
      <trkpt lat="44.17376" lon="5.05654">
        <ele>467.82</ele>
        <time>2021-12-29T11:07:40Z</time>
      </trkpt>
      <trkpt lat="44.1738" lon="5.05628">
        <ele>469.26</ele>
        <time>2021-12-29T11:07:55Z</time>
      </trkpt>
      <trkpt lat="44.17381" lon="5.05598">
        <ele>469.74</ele>
        <time>2021-12-29T11:08:11Z</time>
      </trkpt>
      <trkpt lat="44.17376" lon="5.0556">
        <ele>471.18</ele>
        <time>2021-12-29T11:08:30Z</time>
      </trkpt>
      <trkpt lat="44.17367" lon="5.05529">
        <ele>471.66</ele>
        <time>2021-12-29T11:08:49Z</time>
      </trkpt>
      <trkpt lat="44.17363" lon="5.05519">
        <ele>470.22</ele>
        <time>2021-12-29T11:08:55Z</time>
      </trkpt>
      <trkpt lat="44.17347" lon="5.05493">
        <ele>469.26</ele>
        <time>2021-12-29T11:09:13Z</time>
      </trkpt>
      <trkpt lat="44.17328" lon="5.05485">
        <ele>467.82</ele>
        <time>2021-12-29T11:09:30Z</time>
      </trkpt>
      <trkpt lat="44.17314" lon="5.05476">
        <ele>466.86</ele>
        <time>2021-12-29T11:09:43Z</time>
      </trkpt>
      <trkpt lat="44.17315" lon="5.05466">
        <ele>466.38</ele>
        <time>2021-12-29T11:09:57Z</time>
      </trkpt>
      <trkpt lat="44.17301" lon="5.05464">
        <ele>463.49</ele>
        <time>2021-12-29T11:10:11Z</time>
      </trkpt>
      <trkpt lat="44.17281" lon="5.05457">
        <ele>459.17</ele>
        <time>2021-12-29T11:10:28Z</time>
      </trkpt>
      <trkpt lat="44.1728" lon="5.05457">
        <ele>462.05</ele>
        <time>2021-12-29T11:10:29Z</time>
      </trkpt>
      <trkpt lat="44.17275" lon="5.0545">
        <ele>459.17</ele>
        <time>2021-12-29T11:10:38Z</time>
      </trkpt>
      <trkpt lat="44.17267" lon="5.05422">
        <ele>456.76</ele>
        <time>2021-12-29T11:10:56Z</time>
      </trkpt>
      <trkpt lat="44.17262" lon="5.0539">
        <ele>454.84</ele>
        <time>2021-12-29T11:11:14Z</time>
      </trkpt>
      <trkpt lat="44.1726" lon="5.05354">
        <ele>452.92</ele>
        <time>2021-12-29T11:11:34Z</time>
      </trkpt>
      <trkpt lat="44.17257" lon="5.05326">
        <ele>450.52</ele>
        <time>2021-12-29T11:11:50Z</time>
      </trkpt>
      <trkpt lat="44.17251" lon="5.05296">
        <ele>450.03</ele>
        <time>2021-12-29T11:12:07Z</time>
      </trkpt>
      <trkpt lat="44.17253" lon="5.05264">
        <ele>449.07</ele>
        <time>2021-12-29T11:12:23Z</time>
      </trkpt>
      <trkpt lat="44.17258" lon="5.05226">
        <ele>446.67</ele>
        <time>2021-12-29T11:12:44Z</time>
      </trkpt>
      <trkpt lat="44.17262" lon="5.05191">
        <ele>445.23</ele>
        <time>2021-12-29T11:13:02Z</time>
      </trkpt>
      <trkpt lat="44.17263" lon="5.05168">
        <ele>443.79</ele>
        <time>2021-12-29T11:13:16Z</time>
      </trkpt>
      <trkpt lat="44.17254" lon="5.0515">
        <ele>440.9</ele>
        <time>2021-12-29T11:13:30Z</time>
      </trkpt>
      <trkpt lat="44.17245" lon="5.05129">
        <ele>438.02</ele>
        <time>2021-12-29T11:13:45Z</time>
      </trkpt>
      <trkpt lat="44.1724" lon="5.05121">
        <ele>436.58</ele>
        <time>2021-12-29T11:13:53Z</time>
      </trkpt>
      <trkpt lat="44.17238" lon="5.05115">
        <ele>436.1</ele>
        <time>2021-12-29T11:13:58Z</time>
      </trkpt>
      <trkpt lat="44.17228" lon="5.05097">
        <ele>433.69</ele>
        <time>2021-12-29T11:14:12Z</time>
      </trkpt>
      <trkpt lat="44.17221" lon="5.05079">
        <ele>431.77</ele>
        <time>2021-12-29T11:14:26Z</time>
      </trkpt>
      <trkpt lat="44.17213" lon="5.05057">
        <ele>429.85</ele>
        <time>2021-12-29T11:14:41Z</time>
      </trkpt>
      <trkpt lat="44.17201" lon="5.05028">
        <ele>428.4</ele>
        <time>2021-12-29T11:14:57Z</time>
      </trkpt>
      <trkpt lat="44.17192" lon="5.05005">
        <ele>426.48</ele>
        <time>2021-12-29T11:15:14Z</time>
      </trkpt>
      <trkpt lat="44.17184" lon="5.04975">
        <ele>425.04</ele>
        <time>2021-12-29T11:15:30Z</time>
      </trkpt>
      <trkpt lat="44.17181" lon="5.04968">
        <ele>425.04</ele>
        <time>2021-12-29T11:15:42Z</time>
      </trkpt>
      <trkpt lat="44.17179" lon="5.04962">
        <ele>425.04</ele>
        <time>2021-12-29T11:15:50Z</time>
      </trkpt>
      <trkpt lat="44.17168" lon="5.04951">
        <ele>423.6</ele>
        <time>2021-12-29T11:16:04Z</time>
      </trkpt>
      <trkpt lat="44.17162" lon="5.04948">
        <ele>423.12</ele>
        <time>2021-12-29T11:16:09Z</time>
      </trkpt>
      <trkpt lat="44.17141" lon="5.0494">
        <ele>420.23</ele>
        <time>2021-12-29T11:16:26Z</time>
      </trkpt>
      <trkpt lat="44.1712" lon="5.04934">
        <ele>418.79</ele>
        <time>2021-12-29T11:16:42Z</time>
      </trkpt>
      <trkpt lat="44.17117" lon="5.04934">
        <ele>418.31</ele>
        <time>2021-12-29T11:16:45Z</time>
      </trkpt>
      <trkpt lat="44.17094" lon="5.04927">
        <ele>417.35</ele>
        <time>2021-12-29T11:17:03Z</time>
      </trkpt>
      <trkpt lat="44.17087" lon="5.04924">
        <ele>418.79</ele>
        <time>2021-12-29T11:17:10Z</time>
      </trkpt>
      <trkpt lat="44.17066" lon="5.04921">
        <ele>421.19</ele>
        <time>2021-12-29T11:17:28Z</time>
      </trkpt>
      <trkpt lat="44.1705" lon="5.0492">
        <ele>422.16</ele>
        <time>2021-12-29T11:17:43Z</time>
      </trkpt>
      <trkpt lat="44.17032" lon="5.04916">
        <ele>422.16</ele>
        <time>2021-12-29T11:17:58Z</time>
      </trkpt>
      <trkpt lat="44.17017" lon="5.0491">
        <ele>423.12</ele>
        <time>2021-12-29T11:18:13Z</time>
      </trkpt>
      <trkpt lat="44.17002" lon="5.04904">
        <ele>424.08</ele>
        <time>2021-12-29T11:18:27Z</time>
      </trkpt>
      <trkpt lat="44.16985" lon="5.04894">
        <ele>426.48</ele>
        <time>2021-12-29T11:18:44Z</time>
      </trkpt>
      <trkpt lat="44.1697" lon="5.04895">
        <ele>427.92</ele>
        <time>2021-12-29T11:18:58Z</time>
      </trkpt>
      <trkpt lat="44.16959" lon="5.04899">
        <ele>429.37</ele>
        <time>2021-12-29T11:19:10Z</time>
      </trkpt>
      <trkpt lat="44.16956" lon="5.04899">
        <ele>429.85</ele>
        <time>2021-12-29T11:19:15Z</time>
      </trkpt>
      <trkpt lat="44.1694" lon="5.04893">
        <ele>429.37</ele>
        <time>2021-12-29T11:19:29Z</time>
      </trkpt>
      <trkpt lat="44.16927" lon="5.04878">
        <ele>430.33</ele>
        <time>2021-12-29T11:19:45Z</time>
      </trkpt>
      <trkpt lat="44.16914" lon="5.04867">
        <ele>428.89</ele>
        <time>2021-12-29T11:19:59Z</time>
      </trkpt>
      <trkpt lat="44.16903" lon="5.04858">
        <ele>425.52</ele>
        <time>2021-12-29T11:20:14Z</time>
      </trkpt>
      <trkpt lat="44.16892" lon="5.0485">
        <ele>422.16</ele>
        <time>2021-12-29T11:20:28Z</time>
      </trkpt>
      <trkpt lat="44.16882" lon="5.04847">
        <ele>421.68</ele>
        <time>2021-12-29T11:20:38Z</time>
      </trkpt>
      <trkpt lat="44.1688" lon="5.04846">
        <ele>418.79</ele>
        <time>2021-12-29T11:20:42Z</time>
      </trkpt>
      <trkpt lat="44.16874" lon="5.04845">
        <ele>417.83</ele>
        <time>2021-12-29T11:20:47Z</time>
      </trkpt>
      <trkpt lat="44.16857" lon="5.04839">
        <ele>414.47</ele>
        <time>2021-12-29T11:21:03Z</time>
      </trkpt>
      <trkpt lat="44.16848" lon="5.04835">
        <ele>413.02</ele>
        <time>2021-12-29T11:21:19Z</time>
      </trkpt>
      <trkpt lat="44.16838" lon="5.04835">
        <ele>410.62</ele>
        <time>2021-12-29T11:21:32Z</time>
      </trkpt>
      <trkpt lat="44.16829" lon="5.04835">
        <ele>407.26</ele>
        <time>2021-12-29T11:21:44Z</time>
      </trkpt>
      <trkpt lat="44.16812" lon="5.0484">
        <ele>404.85</ele>
        <time>2021-12-29T11:21:58Z</time>
      </trkpt>
      <trkpt lat="44.16798" lon="5.0484">
        <ele>401.97</ele>
        <time>2021-12-29T11:22:12Z</time>
      </trkpt>
      <trkpt lat="44.16792" lon="5.04839">
        <ele>401.49</ele>
        <time>2021-12-29T11:22:17Z</time>
      </trkpt>
      <trkpt lat="44.16784" lon="5.04836">
        <ele>402.45</ele>
        <time>2021-12-29T11:22:24Z</time>
      </trkpt>
      <trkpt lat="44.1677" lon="5.04829">
        <ele>404.37</ele>
        <time>2021-12-29T11:22:40Z</time>
      </trkpt>
      <trkpt lat="44.16759" lon="5.04828">
        <ele>404.85</ele>
        <time>2021-12-29T11:23:00Z</time>
      </trkpt>
      <trkpt lat="44.16752" lon="5.04827">
        <ele>407.26</ele>
        <time>2021-12-29T11:23:15Z</time>
      </trkpt>
      <trkpt lat="44.16752" lon="5.04832">
        <ele>407.26</ele>
        <time>2021-12-29T11:23:34Z</time>
      </trkpt>
      <trkpt lat="44.16752" lon="5.04838">
        <ele>407.26</ele>
        <time>2021-12-29T11:24:05Z</time>
      </trkpt>
      <trkpt lat="44.16748" lon="5.04833">
        <ele>407.74</ele>
        <time>2021-12-29T11:24:27Z</time>
      </trkpt>
      <trkpt lat="44.16742" lon="5.04836">
        <ele>407.74</ele>
        <time>2021-12-29T11:24:32Z</time>
      </trkpt>
      <trkpt lat="44.16725" lon="5.04845">
        <ele>408.22</ele>
        <time>2021-12-29T11:24:48Z</time>
      </trkpt>
      <trkpt lat="44.16713" lon="5.04849">
        <ele>406.77</ele>
        <time>2021-12-29T11:24:58Z</time>
      </trkpt>
      <trkpt lat="44.16688" lon="5.04855">
        <ele>404.85</ele>
        <time>2021-12-29T11:25:19Z</time>
      </trkpt>
      <trkpt lat="44.1667" lon="5.04859">
        <ele>404.85</ele>
        <time>2021-12-29T11:25:36Z</time>
      </trkpt>
      <trkpt lat="44.16655" lon="5.04863">
        <ele>404.85</ele>
        <time>2021-12-29T11:25:48Z</time>
      </trkpt>
      <trkpt lat="44.16632" lon="5.04865">
        <ele>404.37</ele>
        <time>2021-12-29T11:26:06Z</time>
      </trkpt>
      <trkpt lat="44.16609" lon="5.04866">
        <ele>401.97</ele>
        <time>2021-12-29T11:26:24Z</time>
      </trkpt>
      <trkpt lat="44.16588" lon="5.04856">
        <ele>400.05</ele>
        <time>2021-12-29T11:26:43Z</time>
      </trkpt>
      <trkpt lat="44.16577" lon="5.04839">
        <ele>396.68</ele>
        <time>2021-12-29T11:26:57Z</time>
      </trkpt>
      <trkpt lat="44.16566" lon="5.04836">
        <ele>393.8</ele>
        <time>2021-12-29T11:27:11Z</time>
      </trkpt>
      <trkpt lat="44.16562" lon="5.04846">
        <ele>391.87</ele>
        <time>2021-12-29T11:27:20Z</time>
      </trkpt>
      <trkpt lat="44.1656" lon="5.04853">
        <ele>391.39</ele>
        <time>2021-12-29T11:27:26Z</time>
      </trkpt>
      <trkpt lat="44.16557" lon="5.04859">
        <ele>390.43</ele>
        <time>2021-12-29T11:27:31Z</time>
      </trkpt>
      <trkpt lat="44.16551" lon="5.04883">
        <ele>387.55</ele>
        <time>2021-12-29T11:27:47Z</time>
      </trkpt>
      <trkpt lat="44.16549" lon="5.04903">
        <ele>384.18</ele>
        <time>2021-12-29T11:28:03Z</time>
      </trkpt>
      <trkpt lat="44.16543" lon="5.04913">
        <ele>382.74</ele>
        <time>2021-12-29T11:28:14Z</time>
      </trkpt>
      <trkpt lat="44.16541" lon="5.04912">
        <ele>381.78</ele>
        <time>2021-12-29T11:28:33Z</time>
      </trkpt>
      <trkpt lat="44.16527" lon="5.0491">
        <ele>378.9</ele>
        <time>2021-12-29T11:28:48Z</time>
      </trkpt>
      <trkpt lat="44.16514" lon="5.0491">
        <ele>375.53</ele>
        <time>2021-12-29T11:29:01Z</time>
      </trkpt>
      <trkpt lat="44.16498" lon="5.04899">
        <ele>372.65</ele>
        <time>2021-12-29T11:29:15Z</time>
      </trkpt>
      <trkpt lat="44.16479" lon="5.04888">
        <ele>371.21</ele>
        <time>2021-12-29T11:29:31Z</time>
      </trkpt>
      <trkpt lat="44.16467" lon="5.04881">
        <ele>369.28</ele>
        <time>2021-12-29T11:29:44Z</time>
      </trkpt>
      <trkpt lat="44.16451" lon="5.04872">
        <ele>366.88</ele>
        <time>2021-12-29T11:30:00Z</time>
      </trkpt>
      <trkpt lat="44.16431" lon="5.04861">
        <ele>364.96</ele>
        <time>2021-12-29T11:30:19Z</time>
      </trkpt>
      <trkpt lat="44.16411" lon="5.04855">
        <ele>362.55</ele>
        <time>2021-12-29T11:30:37Z</time>
      </trkpt>
      <trkpt lat="44.16397" lon="5.04853">
        <ele>360.63</ele>
        <time>2021-12-29T11:30:51Z</time>
      </trkpt>
      <trkpt lat="44.16381" lon="5.04848">
        <ele>358.23</ele>
        <time>2021-12-29T11:31:07Z</time>
      </trkpt>
      <trkpt lat="44.16376" lon="5.04848">
        <ele>357.27</ele>
        <time>2021-12-29T11:31:12Z</time>
      </trkpt>
      <trkpt lat="44.16364" lon="5.04847">
        <ele>356.31</ele>
        <time>2021-12-29T11:31:23Z</time>
      </trkpt>
      <trkpt lat="44.16354" lon="5.04847">
        <ele>355.83</ele>
        <time>2021-12-29T11:31:30Z</time>
      </trkpt>
      <trkpt lat="44.16348" lon="5.04846">
        <ele>355.83</ele>
        <time>2021-12-29T11:31:44Z</time>
      </trkpt>
      <trkpt lat="44.16331" lon="5.04854">
        <ele>354.86</ele>
        <time>2021-12-29T11:32:02Z</time>
      </trkpt>
      <trkpt lat="44.16315" lon="5.04856">
        <ele>353.42</ele>
        <time>2021-12-29T11:32:16Z</time>
      </trkpt>
      <trkpt lat="44.16296" lon="5.04862">
        <ele>352.46</ele>
        <time>2021-12-29T11:32:33Z</time>
      </trkpt>
      <trkpt lat="44.16278" lon="5.04871">
        <ele>351.5</ele>
        <time>2021-12-29T11:32:50Z</time>
      </trkpt>
      <trkpt lat="44.16274" lon="5.04873">
        <ele>351.02</ele>
        <time>2021-12-29T11:32:54Z</time>
      </trkpt>
      <trkpt lat="44.16262" lon="5.04876">
        <ele>349.58</ele>
        <time>2021-12-29T11:33:04Z</time>
      </trkpt>
      <trkpt lat="44.16256" lon="5.04877">
        <ele>348.13</ele>
        <time>2021-12-29T11:33:10Z</time>
      </trkpt>
      <trkpt lat="44.16247" lon="5.04885">
        <ele>345.73</ele>
        <time>2021-12-29T11:33:23Z</time>
      </trkpt>
      <trkpt lat="44.16245" lon="5.04887">
        <ele>345.25</ele>
        <time>2021-12-29T11:33:25Z</time>
      </trkpt>
      <trkpt lat="44.16239" lon="5.04903">
        <ele>342.85</ele>
        <time>2021-12-29T11:33:40Z</time>
      </trkpt>
      <trkpt lat="44.16229" lon="5.0492">
        <ele>339.96</ele>
        <time>2021-12-29T11:33:55Z</time>
      </trkpt>
      <trkpt lat="44.16221" lon="5.04932">
        <ele>337.08</ele>
        <time>2021-12-29T11:34:09Z</time>
      </trkpt>
      <trkpt lat="44.16212" lon="5.04949">
        <ele>334.2</ele>
        <time>2021-12-29T11:34:24Z</time>
      </trkpt>
      <trkpt lat="44.16206" lon="5.04963">
        <ele>331.31</ele>
        <time>2021-12-29T11:34:38Z</time>
      </trkpt>
      <trkpt lat="44.16204" lon="5.0498">
        <ele>328.43</ele>
        <time>2021-12-29T11:34:53Z</time>
      </trkpt>
      <trkpt lat="44.16209" lon="5.04989">
        <ele>326.5</ele>
        <time>2021-12-29T11:35:01Z</time>
      </trkpt>
      <trkpt lat="44.16212" lon="5.05">
        <ele>323.62</ele>
        <time>2021-12-29T11:35:15Z</time>
      </trkpt>
      <trkpt lat="44.16202" lon="5.05009">
        <ele>320.26</ele>
        <time>2021-12-29T11:35:28Z</time>
      </trkpt>
      <trkpt lat="44.16195" lon="5.05009">
        <ele>319.3</ele>
        <time>2021-12-29T11:35:43Z</time>
      </trkpt>
      <trkpt lat="44.16194" lon="5.05011">
        <ele>319.3</ele>
        <time>2021-12-29T11:35:59Z</time>
      </trkpt>
      <trkpt lat="44.16195" lon="5.05011">
        <ele>319.3</ele>
        <time>2021-12-29T11:36:13Z</time>
      </trkpt>
      <trkpt lat="44.16199" lon="5.05009">
        <ele>319.3</ele>
        <time>2021-12-29T11:36:39Z</time>
      </trkpt>
      <trkpt lat="44.16193" lon="5.05005">
        <ele>319.3</ele>
        <time>2021-12-29T11:36:54Z</time>
      </trkpt>
      <trkpt lat="44.1618" lon="5.05002">
        <ele>316.89</ele>
        <time>2021-12-29T11:37:10Z</time>
      </trkpt>
      <trkpt lat="44.16177" lon="5.04999">
        <ele>316.41</ele>
        <time>2021-12-29T11:37:17Z</time>
      </trkpt>
      <trkpt lat="44.16158" lon="5.04989">
        <ele>314.49</ele>
        <time>2021-12-29T11:37:34Z</time>
      </trkpt>
      <trkpt lat="44.16142" lon="5.04985">
        <ele>313.05</ele>
        <time>2021-12-29T11:37:48Z</time>
      </trkpt>
      <trkpt lat="44.16117" lon="5.04975">
        <ele>312.09</ele>
        <time>2021-12-29T11:38:08Z</time>
      </trkpt>
      <trkpt lat="44.16096" lon="5.04958">
        <ele>311.6</ele>
        <time>2021-12-29T11:38:25Z</time>
      </trkpt>
      <trkpt lat="44.1608" lon="5.0495">
        <ele>310.16</ele>
        <time>2021-12-29T11:38:42Z</time>
      </trkpt>
      <trkpt lat="44.16056" lon="5.04933">
        <ele>310.16</ele>
        <time>2021-12-29T11:39:01Z</time>
      </trkpt>
      <trkpt lat="44.16042" lon="5.04915">
        <ele>309.2</ele>
        <time>2021-12-29T11:39:12Z</time>
      </trkpt>
      <trkpt lat="44.16035" lon="5.049">
        <ele>309.2</ele>
        <time>2021-12-29T11:39:27Z</time>
      </trkpt>
      <trkpt lat="44.16024" lon="5.0489">
        <ele>309.2</ele>
        <time>2021-12-29T11:39:42Z</time>
      </trkpt>
      <trkpt lat="44.16006" lon="5.04868">
        <ele>309.2</ele>
        <time>2021-12-29T11:40:01Z</time>
      </trkpt>
      <trkpt lat="44.16003" lon="5.04864">
        <ele>309.2</ele>
        <time>2021-12-29T11:40:05Z</time>
      </trkpt>
      <trkpt lat="44.15996" lon="5.04856">
        <ele>310.64</ele>
        <time>2021-12-29T11:40:12Z</time>
      </trkpt>
      <trkpt lat="44.15993" lon="5.04852">
        <ele>310.64</ele>
        <time>2021-12-29T11:40:15Z</time>
      </trkpt>
      <trkpt lat="44.15978" lon="5.04832">
        <ele>311.12</ele>
        <time>2021-12-29T11:40:33Z</time>
      </trkpt>
      <trkpt lat="44.15967" lon="5.04814">
        <ele>311.6</ele>
        <time>2021-12-29T11:40:48Z</time>
      </trkpt>
      <trkpt lat="44.15965" lon="5.04809">
        <ele>311.6</ele>
        <time>2021-12-29T11:40:52Z</time>
      </trkpt>
      <trkpt lat="44.15946" lon="5.04781">
        <ele>309.68</ele>
        <time>2021-12-29T11:41:13Z</time>
      </trkpt>
      <trkpt lat="44.15928" lon="5.04757">
        <ele>306.8</ele>
        <time>2021-12-29T11:41:31Z</time>
      </trkpt>
      <trkpt lat="44.15911" lon="5.04737">
        <ele>302.95</ele>
        <time>2021-12-29T11:41:49Z</time>
      </trkpt>
      <trkpt lat="44.15892" lon="5.04719">
        <ele>301.51</ele>
        <time>2021-12-29T11:42:07Z</time>
      </trkpt>
      <trkpt lat="44.15882" lon="5.04715">
        <ele>301.51</ele>
        <time>2021-12-29T11:42:15Z</time>
      </trkpt>
      <trkpt lat="44.15863" lon="5.04707">
        <ele>301.51</ele>
        <time>2021-12-29T11:42:31Z</time>
      </trkpt>
      <trkpt lat="44.15843" lon="5.04694">
        <ele>301.51</ele>
        <time>2021-12-29T11:42:47Z</time>
      </trkpt>
      <trkpt lat="44.15826" lon="5.04686">
        <ele>301.51</ele>
        <time>2021-12-29T11:43:02Z</time>
      </trkpt>
      <trkpt lat="44.15809" lon="5.04679">
        <ele>300.55</ele>
        <time>2021-12-29T11:43:16Z</time>
      </trkpt>
      <trkpt lat="44.158" lon="5.04677">
        <ele>300.07</ele>
        <time>2021-12-29T11:43:23Z</time>
      </trkpt>
      <trkpt lat="44.15778" lon="5.04673">
        <ele>299.11</ele>
        <time>2021-12-29T11:43:40Z</time>
      </trkpt>
      <trkpt lat="44.15761" lon="5.04676">
        <ele>298.63</ele>
        <time>2021-12-29T11:43:54Z</time>
      </trkpt>
      <trkpt lat="44.15755" lon="5.04679">
        <ele>297.67</ele>
        <time>2021-12-29T11:43:59Z</time>
      </trkpt>
      <trkpt lat="44.15736" lon="5.04688">
        <ele>296.7</ele>
        <time>2021-12-29T11:44:14Z</time>
      </trkpt>
      <trkpt lat="44.15717" lon="5.04697">
        <ele>300.4</ele>
        <time>2021-12-29T11:44:32Z</time>
      </trkpt>
      <trkpt lat="44.15702" lon="5.04705">
        <ele>299.7</ele>
        <time>2021-12-29T11:44:46Z</time>
      </trkpt>
      <trkpt lat="44.15682" lon="5.04714">
        <ele>297.6</ele>
        <time>2021-12-29T11:45:03Z</time>
      </trkpt>
      <trkpt lat="44.15674" lon="5.0472">
        <ele>297</ele>
        <time>2021-12-29T11:45:18Z</time>
      </trkpt>
      <trkpt lat="44.15678" lon="5.04736">
        <ele>298.4</ele>
        <time>2021-12-29T11:45:36Z</time>
      </trkpt>
      <trkpt lat="44.15679" lon="5.04752">
        <ele>298.4</ele>
        <time>2021-12-29T11:46:45Z</time>
      </trkpt>
      <trkpt lat="44.15682" lon="5.04758">
        <ele>300.3</ele>
        <time>2021-12-29T11:46:58Z</time>
      </trkpt>
      <trkpt lat="44.15685" lon="5.04761">
        <ele>301.5</ele>
      </trkpt>
      <trkpt lat="44.15687" lon="5.04761">
        <ele>302.7</ele>
      </trkpt>
      <trkpt lat="44.15692" lon="5.04761">
        <ele>305.5</ele>
        <time>2021-12-29T11:47:14Z</time>
      </trkpt>
      <trkpt lat="44.15695" lon="5.04763">
        <ele>300.55</ele>
        <time>2021-12-29T11:47:28Z</time>
      </trkpt>
      <trkpt lat="44.157" lon="5.0476">
        <ele>311.9</ele>
      </trkpt>
      <trkpt lat="44.15703" lon="5.04759">
        <ele>314.2</ele>
      </trkpt>
      <trkpt lat="44.1571" lon="5.04755">
        <ele>318.7</ele>
      </trkpt>
      <trkpt lat="44.15716" lon="5.04756">
        <ele>324</ele>
      </trkpt>
      <trkpt lat="44.15716" lon="5.04765">
        <ele>329.6</ele>
        <time>2021-12-29T11:48:32Z</time>
      </trkpt>
      <trkpt lat="44.15718" lon="5.0477">
        <ele>335.5</ele>
        <time>2021-12-29T11:48:46Z</time>
      </trkpt>
      <trkpt lat="44.15721" lon="5.04776">
        <ele>342.5</ele>
        <time>2021-12-29T11:49:02Z</time>
      </trkpt>
      <trkpt lat="44.15717" lon="5.04785">
        <ele>335.3</ele>
        <time>2021-12-29T11:49:17Z</time>
      </trkpt>
      <trkpt lat="44.15714" lon="5.04795">
        <ele>312.57</ele>
        <time>2021-12-29T11:49:32Z</time>
      </trkpt>
      <trkpt lat="44.15714" lon="5.04802">
        <ele>311.6</ele>
        <time>2021-12-29T11:49:39Z</time>
      </trkpt>
      <trkpt lat="44.15715" lon="5.04818">
        <ele>313.53</ele>
        <time>2021-12-29T11:49:54Z</time>
      </trkpt>
      <trkpt lat="44.15714" lon="5.04829">
        <ele>314.97</ele>
        <time>2021-12-29T11:50:08Z</time>
      </trkpt>
      <trkpt lat="44.15715" lon="5.04839">
        <ele>317.37</ele>
        <time>2021-12-29T11:50:23Z</time>
      </trkpt>
      <trkpt lat="44.15714" lon="5.04848">
        <ele>319.3</ele>
        <time>2021-12-29T11:50:37Z</time>
      </trkpt>
      <trkpt lat="44.15715" lon="5.04853">
        <ele>326.4</ele>
      </trkpt>
      <trkpt lat="44.15713" lon="5.04854">
        <ele>322.18</ele>
        <time>2021-12-29T11:55:31Z</time>
      </trkpt>
      <trkpt lat="44.15712" lon="5.04853">
        <ele>323.14</ele>
        <time>2021-12-29T12:03:43Z</time>
      </trkpt>
      <trkpt lat="44.15716" lon="5.04854">
        <ele>324.58</ele>
        <time>2021-12-29T12:10:25Z</time>
      </trkpt>
      <trkpt lat="44.15719" lon="5.04862">
        <ele>328.7</ele>
        <time>2021-12-29T12:11:35Z</time>
      </trkpt>
      <trkpt lat="44.15716" lon="5.04857">
        <ele>325.54</ele>
        <time>2021-12-29T12:15:18Z</time>
      </trkpt>
      <trkpt lat="44.15712" lon="5.04853">
        <ele>325.54</ele>
        <time>2021-12-29T12:16:24Z</time>
      </trkpt>
      <trkpt lat="44.15712" lon="5.04851">
        <ele>326.02</ele>
        <time>2021-12-29T12:17:02Z</time>
      </trkpt>
      <trkpt lat="44.15715" lon="5.04844">
        <ele>327.47</ele>
        <time>2021-12-29T12:39:02Z</time>
      </trkpt>
      <trkpt lat="44.15714" lon="5.04829">
        <ele>324.58</ele>
        <time>2021-12-29T12:39:18Z</time>
      </trkpt>
      <trkpt lat="44.15716" lon="5.04816">
        <ele>322.18</ele>
        <time>2021-12-29T12:39:33Z</time>
      </trkpt>
      <trkpt lat="44.15715" lon="5.04798">
        <ele>320.26</ele>
        <time>2021-12-29T12:39:49Z</time>
      </trkpt>
      <trkpt lat="44.15716" lon="5.0479">
        <ele>321.7</ele>
        <time>2021-12-29T12:39:58Z</time>
        <extensions>
          <visugpx:TrkExtension xmlns:visugpx="https://www.visugpx.com/editgpx/">
            <visugpx:node>1</visugpx:node>
            </visugpx:TrkExtension>
        </extensions>
      </trkpt>
      <trkpt lat="44.15712" lon="5.04796">
        <ele>325.1</ele>
      </trkpt>
      <trkpt lat="44.15711" lon="5.04803">
        <ele>321.8</ele>
      </trkpt>
      <trkpt lat="44.1571" lon="5.04803">
        <ele>321</ele>
      </trkpt>
      <trkpt lat="44.15688" lon="5.04838">
        <ele>309</ele>
      </trkpt>
      <trkpt lat="44.1568" lon="5.04863">
        <ele>307.2</ele>
      </trkpt>
      <trkpt lat="44.15681" lon="5.04881">
        <ele>303.5</ele>
      </trkpt>
      <trkpt lat="44.15676" lon="5.04882">
        <ele>301.4</ele>
      </trkpt>
      <trkpt lat="44.15668" lon="5.04869">
        <ele>299.8</ele>
      </trkpt>
      <trkpt lat="44.15664" lon="5.04861">
        <ele>299.1</ele>
      </trkpt>
      <trkpt lat="44.15663" lon="5.04854">
        <ele>297.9</ele>
      </trkpt>
      <trkpt lat="44.15661" lon="5.04851">
        <ele>296.9</ele>
      </trkpt>
      <trkpt lat="44.15658" lon="5.04851">
        <ele>296</ele>
      </trkpt>
      <trkpt lat="44.15645" lon="5.04865">
        <ele>292.8</ele>
      </trkpt>
      <trkpt lat="44.15637" lon="5.04878">
        <ele>289.5</ele>
        <extensions>
          <visugpx:TrkExtension xmlns:visugpx="https://www.visugpx.com/editgpx/">
            <visugpx:node>2</visugpx:node>
            </visugpx:TrkExtension>
        </extensions>
      </trkpt>
      <trkpt lat="44.15636" lon="5.0488">
        <ele>289.1</ele>
      </trkpt>
      <trkpt lat="44.15631" lon="5.04869">
        <ele>286.3</ele>
      </trkpt>
      <trkpt lat="44.1563" lon="5.04858">
        <ele>283.4</ele>
      </trkpt>
      <trkpt lat="44.15632" lon="5.04846">
        <ele>279.2</ele>
      </trkpt>
      <trkpt lat="44.15651" lon="5.04822">
        <ele>289.1</ele>
      </trkpt>
      <trkpt lat="44.15658" lon="5.0481">
        <ele>288.6</ele>
      </trkpt>
      <trkpt lat="44.15662" lon="5.04799">
        <ele>289.1</ele>
      </trkpt>
      <trkpt lat="44.15664" lon="5.04786">
        <ele>289.8</ele>
      </trkpt>
      <trkpt lat="44.15664" lon="5.04776">
        <ele>289.9</ele>
      </trkpt>
      <trkpt lat="44.15661" lon="5.04762">
        <ele>289.8</ele>
      </trkpt>
      <trkpt lat="44.15657" lon="5.0475">
        <ele>290.3</ele>
      </trkpt>
      <trkpt lat="44.15654" lon="5.0474">
        <ele>290.5</ele>
      </trkpt>
      <trkpt lat="44.15654" lon="5.04735">
        <ele>290.8</ele>
        <extensions>
          <visugpx:TrkExtension xmlns:visugpx="https://www.visugpx.com/editgpx/">
            <visugpx:node>4</visugpx:node>
            </visugpx:TrkExtension>
        </extensions>
      </trkpt>
      <trkpt lat="44.15653" lon="5.04733">
        <ele>292.86</ele>
        <time>2021-12-29T12:42:28Z</time>
      </trkpt>
      <trkpt lat="44.15654" lon="5.04719">
        <ele>292.86</ele>
        <time>2021-12-29T12:42:39Z</time>
      </trkpt>
      <trkpt lat="44.15656" lon="5.04708">
        <ele>292.38</ele>
        <time>2021-12-29T12:43:20Z</time>
      </trkpt>
      <trkpt lat="44.15659" lon="5.04695">
        <ele>287.3</ele>
        <time>2021-12-29T12:43:34Z</time>
      </trkpt>
      <trkpt lat="44.1566" lon="5.0469">
        <ele>285.6</ele>
      </trkpt>
      <trkpt lat="44.15664" lon="5.04683">
        <ele>282.8</ele>
        <time>2021-12-29T12:43:48Z</time>
      </trkpt>
      <trkpt lat="44.15672" lon="5.04676">
        <ele>280.8</ele>
        <time>2021-12-29T12:44:02Z</time>
      </trkpt>
      <trkpt lat="44.15676" lon="5.04667">
        <ele>277.9</ele>
        <time>2021-12-29T12:44:17Z</time>
      </trkpt>
      <trkpt lat="44.15682" lon="5.04658">
        <ele>274.6</ele>
        <time>2021-12-29T12:44:29Z</time>
      </trkpt>
      <trkpt lat="44.15689" lon="5.04644">
        <ele>269.8</ele>
        <time>2021-12-29T12:44:57Z</time>
      </trkpt>
      <trkpt lat="44.15693" lon="5.04635">
        <ele>266.1</ele>
        <time>2021-12-29T12:45:10Z</time>
      </trkpt>
      <trkpt lat="44.15699" lon="5.04624">
        <ele>262.8</ele>
        <time>2021-12-29T12:45:22Z</time>
      </trkpt>
      <trkpt lat="44.15704" lon="5.04614">
        <ele>261.62</ele>
        <time>2021-12-29T12:45:35Z</time>
      </trkpt>
      <trkpt lat="44.15715" lon="5.04605">
        <ele>260.6</ele>
        <time>2021-12-29T12:45:49Z</time>
      </trkpt>
      <trkpt lat="44.15729" lon="5.04585">
        <ele>258.5</ele>
        <time>2021-12-29T12:46:03Z</time>
      </trkpt>
      <trkpt lat="44.15732" lon="5.0458">
        <ele>258.3</ele>
      </trkpt>
      <trkpt lat="44.15733" lon="5.04573">
        <ele>257.7</ele>
        <time>2021-12-29T12:46:17Z</time>
      </trkpt>
      <trkpt lat="44.15732" lon="5.04564">
        <ele>256.2</ele>
      </trkpt>
      <trkpt lat="44.15728" lon="5.04556">
        <ele>254.89</ele>
        <time>2021-12-29T12:46:32Z</time>
      </trkpt>
      <trkpt lat="44.15719" lon="5.04541">
        <ele>254.41</ele>
        <time>2021-12-29T12:46:46Z</time>
      </trkpt>
      <trkpt lat="44.15707" lon="5.04521">
        <ele>252.7</ele>
        <time>2021-12-29T12:47:00Z</time>
      </trkpt>
      <trkpt lat="44.15706" lon="5.04516">
        <ele>252.9</ele>
      </trkpt>
      <trkpt lat="44.15709" lon="5.04514">
        <ele>252.48</ele>
        <time>2021-12-29T12:47:50Z</time>
      </trkpt>
      <trkpt lat="44.1572" lon="5.04506">
        <ele>253.93</ele>
        <time>2021-12-29T12:48:03Z</time>
      </trkpt>
      <trkpt lat="44.15727" lon="5.04499">
        <ele>253.5</ele>
      </trkpt>
      <trkpt lat="44.15734" lon="5.04493">
        <ele>255.1</ele>
        <time>2021-12-29T12:48:18Z</time>
      </trkpt>
      <trkpt lat="44.15741" lon="5.04487">
        <ele>255.8</ele>
      </trkpt>
      <trkpt lat="44.15749" lon="5.04481">
        <ele>255.8</ele>
        <time>2021-12-29T12:48:34Z</time>
      </trkpt>
      <trkpt lat="44.15764" lon="5.04472">
        <ele>256</ele>
        <time>2021-12-29T12:48:47Z</time>
      </trkpt>
      <trkpt lat="44.1578" lon="5.04463">
        <ele>258</ele>
        <time>2021-12-29T12:49:04Z</time>
      </trkpt>
      <trkpt lat="44.15795" lon="5.04453">
        <ele>258.3</ele>
        <time>2021-12-29T12:49:21Z</time>
      </trkpt>
      <trkpt lat="44.15808" lon="5.04445">
        <ele>257.1</ele>
        <time>2021-12-29T12:49:38Z</time>
      </trkpt>
      <trkpt lat="44.15821" lon="5.04424">
        <ele>260.5</ele>
        <time>2021-12-29T12:49:54Z</time>
      </trkpt>
      <trkpt lat="44.1583" lon="5.0441">
        <ele>260.4</ele>
      </trkpt>
      <trkpt lat="44.15837" lon="5.04404">
        <ele>260.2</ele>
        <time>2021-12-29T12:50:09Z</time>
      </trkpt>
      <trkpt lat="44.15845" lon="5.04397">
        <ele>260.3</ele>
        <time>2021-12-29T12:50:19Z</time>
      </trkpt>
      <trkpt lat="44.15854" lon="5.0439">
        <ele>259.2</ele>
        <time>2021-12-29T12:50:23Z</time>
      </trkpt>
      <trkpt lat="44.15866" lon="5.04381">
        <ele>259.21</ele>
        <time>2021-12-29T12:50:42Z</time>
      </trkpt>
      <trkpt lat="44.15874" lon="5.04374">
        <ele>259.8</ele>
      </trkpt>
      <trkpt lat="44.15883" lon="5.04372">
        <ele>259.21</ele>
        <time>2021-12-29T12:51:00Z</time>
      </trkpt>
      <trkpt lat="44.159" lon="5.04372">
        <ele>260.17</ele>
        <time>2021-12-29T12:51:16Z</time>
      </trkpt>
      <trkpt lat="44.15909" lon="5.04372">
        <ele>260.17</ele>
        <time>2021-12-29T12:51:31Z</time>
      </trkpt>
      <trkpt lat="44.15911" lon="5.04371">
        <ele>260.17</ele>
        <time>2021-12-29T12:51:37Z</time>
      </trkpt>
      <trkpt lat="44.15912" lon="5.04364">
        <ele>260.8</ele>
        <time>2021-12-29T12:51:51Z</time>
      </trkpt>
      <trkpt lat="44.15909" lon="5.04356">
        <ele>260.65</ele>
        <time>2021-12-29T12:52:05Z</time>
      </trkpt>
      <trkpt lat="44.15905" lon="5.0435">
        <ele>261.62</ele>
        <time>2021-12-29T12:52:21Z</time>
      </trkpt>
      <trkpt lat="44.15903" lon="5.04348">
        <ele>261.62</ele>
        <time>2021-12-29T12:52:23Z</time>
      </trkpt>
      <trkpt lat="44.15889" lon="5.04346">
        <ele>262.1</ele>
        <time>2021-12-29T12:52:36Z</time>
      </trkpt>
      <trkpt lat="44.15881" lon="5.04345">
        <ele>263</ele>
      </trkpt>
      <trkpt lat="44.1588" lon="5.04339">
        <ele>264.3</ele>
      </trkpt>
      <trkpt lat="44.15885" lon="5.04327">
        <ele>265.7</ele>
        <time>2021-12-29T12:52:50Z</time>
      </trkpt>
      <trkpt lat="44.1589" lon="5.04323">
        <ele>265.8</ele>
      </trkpt>
      <trkpt lat="44.15894" lon="5.04321">
        <ele>266.1</ele>
        <time>2021-12-29T12:53:01Z</time>
      </trkpt>
      <trkpt lat="44.15899" lon="5.04319">
        <ele>266.3</ele>
        <time>2021-12-29T12:53:05Z</time>
      </trkpt>
      <trkpt lat="44.15903" lon="5.04315">
        <ele>266.6</ele>
      </trkpt>
      <trkpt lat="44.15907" lon="5.04313">
        <ele>266.4</ele>
        <time>2021-12-29T12:53:24Z</time>
      </trkpt>
      <trkpt lat="44.15906" lon="5.04302">
        <ele>268.7</ele>
      </trkpt>
      <trkpt lat="44.15902" lon="5.04293">
        <ele>270.8</ele>
        <time>2021-12-29T12:53:40Z</time>
      </trkpt>
      <trkpt lat="44.15891" lon="5.04296">
        <ele>272.2</ele>
        <time>2021-12-29T12:53:55Z</time>
      </trkpt>
      <trkpt lat="44.15887" lon="5.04296">
        <ele>272.9</ele>
      </trkpt>
      <trkpt lat="44.15884" lon="5.04291">
        <ele>274.4</ele>
      </trkpt>
      <trkpt lat="44.15884" lon="5.04285">
        <ele>275.2</ele>
        <time>2021-12-29T12:54:08Z</time>
      </trkpt>
      <trkpt lat="44.15885" lon="5.04272">
        <ele>276.6</ele>
        <time>2021-12-29T12:54:23Z</time>
      </trkpt>
      <trkpt lat="44.15882" lon="5.04266">
        <ele>278.4</ele>
        <time>2021-12-29T12:54:37Z</time>
      </trkpt>
      <trkpt lat="44.15871" lon="5.04268">
        <ele>278.92</ele>
        <time>2021-12-29T12:54:51Z</time>
      </trkpt>
      <trkpt lat="44.1586" lon="5.04277">
        <ele>282.6</ele>
        <time>2021-12-29T12:55:07Z</time>
      </trkpt>
      <trkpt lat="44.15847" lon="5.04289">
        <ele>285.6</ele>
        <time>2021-12-29T12:55:24Z</time>
      </trkpt>
      <trkpt lat="44.15836" lon="5.04298">
        <ele>288.3</ele>
        <time>2021-12-29T12:55:40Z</time>
      </trkpt>
      <trkpt lat="44.1583" lon="5.043">
        <ele>289.6</ele>
        <time>2021-12-29T12:55:54Z</time>
      </trkpt>
      <trkpt lat="44.15826" lon="5.04301">
        <ele>290.1</ele>
      </trkpt>
      <trkpt lat="44.15811" lon="5.04305">
        <ele>292.2</ele>
        <time>2021-12-29T12:56:08Z</time>
      </trkpt>
      <trkpt lat="44.15802" lon="5.043">
        <ele>294.3</ele>
        <time>2021-12-29T12:56:21Z</time>
      </trkpt>
      <trkpt lat="44.15791" lon="5.04295">
        <ele>296</ele>
        <time>2021-12-29T12:56:35Z</time>
      </trkpt>
      <trkpt lat="44.15785" lon="5.04286">
        <ele>298</ele>
      </trkpt>
      <trkpt lat="44.15783" lon="5.04277">
        <ele>296.7</ele>
        <time>2021-12-29T12:56:51Z</time>
      </trkpt>
      <trkpt lat="44.15783" lon="5.04271">
        <ele>297.67</ele>
        <time>2021-12-29T12:57:03Z</time>
      </trkpt>
      <trkpt lat="44.15786" lon="5.04265">
        <ele>299.11</ele>
        <time>2021-12-29T12:57:16Z</time>
      </trkpt>
      <trkpt lat="44.15791" lon="5.04253">
        <ele>300.55</ele>
        <time>2021-12-29T12:57:30Z</time>
      </trkpt>
      <trkpt lat="44.15794" lon="5.04239">
        <ele>302.47</ele>
        <time>2021-12-29T12:57:44Z</time>
      </trkpt>
      <trkpt lat="44.15797" lon="5.04224">
        <ele>304.88</ele>
        <time>2021-12-29T12:58:00Z</time>
      </trkpt>
      <trkpt lat="44.15796" lon="5.0421">
        <ele>307.28</ele>
        <time>2021-12-29T12:58:14Z</time>
      </trkpt>
      <trkpt lat="44.15796" lon="5.04199">
        <ele>311.6</ele>
        <time>2021-12-29T12:58:26Z</time>
      </trkpt>
      <trkpt lat="44.15796" lon="5.04186">
        <ele>311.12</ele>
        <time>2021-12-29T12:58:44Z</time>
      </trkpt>
      <trkpt lat="44.15796" lon="5.04181">
        <ele>313.9</ele>
        <time>2021-12-29T12:59:01Z</time>
      </trkpt>
      <trkpt lat="44.15794" lon="5.04176">
        <ele>311.6</ele>
        <time>2021-12-29T12:59:26Z</time>
      </trkpt>
      <trkpt lat="44.15795" lon="5.04179">
        <ele>311.6</ele>
        <time>2021-12-29T13:01:34Z</time>
      </trkpt>
      <trkpt lat="44.15791" lon="5.04169">
        <ele>316.3</ele>
        <time>2021-12-29T13:02:19Z</time>
      </trkpt>
      <trkpt lat="44.15783" lon="5.04161">
        <ele>319.9</ele>
        <time>2021-12-29T13:02:33Z</time>
      </trkpt>
      <trkpt lat="44.15772" lon="5.04154">
        <ele>322.7</ele>
        <time>2021-12-29T13:02:47Z</time>
      </trkpt>
      <trkpt lat="44.15769" lon="5.0415">
        <ele>323.6</ele>
      </trkpt>
      <trkpt lat="44.15765" lon="5.04142">
        <ele>324.9</ele>
        <time>2021-12-29T13:03:00Z</time>
      </trkpt>
      <trkpt lat="44.1576" lon="5.04128">
        <ele>327.6</ele>
        <time>2021-12-29T13:03:16Z</time>
      </trkpt>
      <trkpt lat="44.15755" lon="5.04117">
        <ele>329.8</ele>
        <time>2021-12-29T13:03:32Z</time>
      </trkpt>
      <trkpt lat="44.1575" lon="5.04096">
        <ele>333.8</ele>
        <time>2021-12-29T13:03:50Z</time>
      </trkpt>
      <trkpt lat="44.15748" lon="5.04083">
        <ele>335.7</ele>
        <time>2021-12-29T13:04:03Z</time>
      </trkpt>
      <trkpt lat="44.15748" lon="5.04068">
        <ele>338.1</ele>
        <time>2021-12-29T13:04:17Z</time>
      </trkpt>
      <trkpt lat="44.15747" lon="5.0406">
        <ele>339.2</ele>
      </trkpt>
      <trkpt lat="44.15748" lon="5.0405">
        <ele>340.4</ele>
        <time>2021-12-29T13:04:20Z</time>
      </trkpt>
      <trkpt lat="44.15747" lon="5.04041">
        <ele>341.2</ele>
      </trkpt>
      <trkpt lat="44.15748" lon="5.04033">
        <ele>341.9</ele>
        <time>2021-12-29T13:04:36Z</time>
      </trkpt>
      <trkpt lat="44.15751" lon="5.0402">
        <ele>344.5</ele>
        <time>2021-12-29T13:04:52Z</time>
      </trkpt>
      <trkpt lat="44.15754" lon="5.04004">
        <ele>349.9</ele>
        <time>2021-12-29T13:05:10Z</time>
      </trkpt>
      <trkpt lat="44.15756" lon="5.03994">
        <ele>353.5</ele>
        <time>2021-12-29T13:05:22Z</time>
      </trkpt>
      <trkpt lat="44.15757" lon="5.0399">
        <ele>355.3</ele>
        <time>2021-12-29T13:05:36Z</time>
      </trkpt>
      <trkpt lat="44.15756" lon="5.03979">
        <ele>358.5</ele>
        <time>2021-12-29T13:05:53Z</time>
      </trkpt>
      <trkpt lat="44.15763" lon="5.03967">
        <ele>363.2</ele>
        <time>2021-12-29T13:06:10Z</time>
      </trkpt>
      <trkpt lat="44.15768" lon="5.03959">
        <ele>354.38</ele>
        <time>2021-12-29T13:06:25Z</time>
      </trkpt>
      <trkpt lat="44.15769" lon="5.03951">
        <ele>367.5</ele>
        <time>2021-12-29T13:06:44Z</time>
      </trkpt>
      <trkpt lat="44.15773" lon="5.03943">
        <ele>369.4</ele>
        <time>2021-12-29T13:07:06Z</time>
      </trkpt>
      <trkpt lat="44.15774" lon="5.0394">
        <ele>370.2</ele>
        <time>2021-12-29T13:07:26Z</time>
      </trkpt>
      <trkpt lat="44.15776" lon="5.03935">
        <ele>362.55</ele>
        <time>2021-12-29T13:07:42Z</time>
      </trkpt>
      <trkpt lat="44.15776" lon="5.03929">
        <ele>372.5</ele>
        <time>2021-12-29T13:07:58Z</time>
      </trkpt>
      <trkpt lat="44.15775" lon="5.03918">
        <ele>375</ele>
        <time>2021-12-29T13:08:14Z</time>
      </trkpt>
      <trkpt lat="44.15775" lon="5.03908">
        <ele>378.2</ele>
        <time>2021-12-29T13:08:29Z</time>
      </trkpt>
      <trkpt lat="44.15779" lon="5.039">
        <ele>381.1</ele>
        <time>2021-12-29T13:08:45Z</time>
      </trkpt>
      <trkpt lat="44.15781" lon="5.03895">
        <ele>383.7</ele>
        <time>2021-12-29T13:09:03Z</time>
      </trkpt>
      <trkpt lat="44.15783" lon="5.03889">
        <ele>386.5</ele>
        <time>2021-12-29T13:09:22Z</time>
      </trkpt>
      <trkpt lat="44.15784" lon="5.03885">
        <ele>388.5</ele>
        <time>2021-12-29T13:09:37Z</time>
      </trkpt>
      <trkpt lat="44.15786" lon="5.03877">
        <ele>392</ele>
        <time>2021-12-29T13:09:53Z</time>
      </trkpt>
      <trkpt lat="44.15788" lon="5.03869">
        <ele>383.7</ele>
        <time>2021-12-29T13:10:12Z</time>
      </trkpt>
      <trkpt lat="44.15791" lon="5.03863">
        <ele>397.7</ele>
        <time>2021-12-29T13:10:31Z</time>
      </trkpt>
      <trkpt lat="44.15794" lon="5.03857">
        <ele>400.6</ele>
        <time>2021-12-29T13:10:47Z</time>
      </trkpt>
      <trkpt lat="44.15796" lon="5.03852">
        <ele>402.4</ele>
        <time>2021-12-29T13:11:01Z</time>
      </trkpt>
      <trkpt lat="44.15797" lon="5.03848">
        <ele>403.9</ele>
        <time>2021-12-29T13:11:15Z</time>
      </trkpt>
      <trkpt lat="44.15799" lon="5.03846">
        <ele>394.28</ele>
        <time>2021-12-29T13:11:31Z</time>
      </trkpt>
      <trkpt lat="44.15801" lon="5.03841">
        <ele>406.6</ele>
        <time>2021-12-29T13:11:48Z</time>
      </trkpt>
      <trkpt lat="44.15802" lon="5.03836">
        <ele>407.9</ele>
        <time>2021-12-29T13:12:06Z</time>
      </trkpt>
      <trkpt lat="44.15802" lon="5.03831">
        <ele>400.05</ele>
        <time>2021-12-29T13:12:22Z</time>
      </trkpt>
      <trkpt lat="44.15803" lon="5.03826">
        <ele>411</ele>
        <time>2021-12-29T13:12:38Z</time>
      </trkpt>
      <trkpt lat="44.15803" lon="5.03821">
        <ele>412.5</ele>
        <time>2021-12-29T13:13:05Z</time>
      </trkpt>
      <trkpt lat="44.15803" lon="5.03814">
        <ele>414.5</ele>
        <time>2021-12-29T13:13:23Z</time>
      </trkpt>
      <trkpt lat="44.15805" lon="5.03808">
        <ele>416.4</ele>
        <time>2021-12-29T13:13:37Z</time>
      </trkpt>
      <trkpt lat="44.15804" lon="5.03802">
        <ele>418.2</ele>
        <time>2021-12-29T13:13:54Z</time>
      </trkpt>
      <trkpt lat="44.15806" lon="5.03796">
        <ele>420.5</ele>
        <time>2021-12-29T13:14:09Z</time>
      </trkpt>
      <trkpt lat="44.15808" lon="5.03792">
        <ele>422.4</ele>
        <time>2021-12-29T13:14:24Z</time>
      </trkpt>
      <trkpt lat="44.1581" lon="5.03788">
        <ele>424.4</ele>
        <time>2021-12-29T13:14:38Z</time>
      </trkpt>
      <trkpt lat="44.15812" lon="5.03786">
        <ele>425.5</ele>
        <time>2021-12-29T13:14:51Z</time>
      </trkpt>
      <trkpt lat="44.15815" lon="5.03783">
        <ele>427.9</ele>
        <time>2021-12-29T13:15:10Z</time>
      </trkpt>
      <trkpt lat="44.15817" lon="5.03782">
        <ele>429</ele>
      </trkpt>
      <trkpt lat="44.15826" lon="5.0378">
        <ele>432.7</ele>
        <time>2021-12-29T13:23:05Z</time>
      </trkpt>
      <trkpt lat="44.15829" lon="5.0378">
        <ele>433.8</ele>
        <time>2021-12-29T13:23:21Z</time>
      </trkpt>
      <trkpt lat="44.15833" lon="5.0378">
        <ele>429.37</ele>
        <time>2021-12-29T13:23:38Z</time>
      </trkpt>
      <trkpt lat="44.15837" lon="5.03778">
        <ele>432.25</ele>
        <time>2021-12-29T13:23:55Z</time>
      </trkpt>
      <trkpt lat="44.15842" lon="5.03785">
        <ele>433.69</ele>
        <time>2021-12-29T13:24:14Z</time>
      </trkpt>
      <trkpt lat="44.15845" lon="5.03789">
        <ele>435.61</ele>
        <time>2021-12-29T13:24:29Z</time>
      </trkpt>
      <trkpt lat="44.15852" lon="5.03792">
        <ele>438.02</ele>
        <time>2021-12-29T13:24:46Z</time>
      </trkpt>
      <trkpt lat="44.15859" lon="5.03798">
        <ele>440.9</ele>
        <time>2021-12-29T13:25:02Z</time>
      </trkpt>
      <trkpt lat="44.15865" lon="5.03806">
        <ele>441.86</ele>
        <time>2021-12-29T13:25:17Z</time>
      </trkpt>
      <trkpt lat="44.1587" lon="5.03807">
        <ele>442.82</ele>
        <time>2021-12-29T13:25:29Z</time>
      </trkpt>
      <trkpt lat="44.15876" lon="5.03813">
        <ele>443.31</ele>
        <time>2021-12-29T13:25:42Z</time>
      </trkpt>
      <trkpt lat="44.15881" lon="5.03815">
        <ele>450.7</ele>
      </trkpt>
      <trkpt lat="44.15885" lon="5.03814">
        <ele>453</ele>
        <time>2021-12-29T13:26:36Z</time>
      </trkpt>
      <trkpt lat="44.15889" lon="5.03815">
        <ele>454.4</ele>
        <time>2021-12-29T13:26:55Z</time>
      </trkpt>
      <trkpt lat="44.15892" lon="5.03817">
        <ele>453.3</ele>
        <time>2021-12-29T13:27:10Z</time>
      </trkpt>
      <trkpt lat="44.15895" lon="5.03821">
        <ele>451.5</ele>
      </trkpt>
      <trkpt lat="44.15898" lon="5.03824">
        <ele>449.3</ele>
        <time>2021-12-29T13:27:25Z</time>
      </trkpt>
      <trkpt lat="44.15903" lon="5.03828">
        <ele>451.48</ele>
        <time>2021-12-29T13:27:42Z</time>
      </trkpt>
      <trkpt lat="44.15907" lon="5.03825">
        <ele>447.9</ele>
        <time>2021-12-29T13:30:42Z</time>
      </trkpt>
      <trkpt lat="44.15908" lon="5.03816">
        <ele>453.4</ele>
        <time>2021-12-29T13:31:02Z</time>
      </trkpt>
      <trkpt lat="44.15908" lon="5.0381">
        <ele>458.21</ele>
        <time>2021-12-29T13:31:17Z</time>
      </trkpt>
      <trkpt lat="44.15906" lon="5.03805">
        <ele>460.61</ele>
        <time>2021-12-29T13:31:30Z</time>
      </trkpt>
      <trkpt lat="44.15905" lon="5.03801">
        <ele>463.4</ele>
        <time>2021-12-29T13:31:47Z</time>
      </trkpt>
      <trkpt lat="44.15905" lon="5.03797">
        <ele>464.93</ele>
        <time>2021-12-29T13:31:49Z</time>
      </trkpt>
      <trkpt lat="44.15908" lon="5.03793">
        <ele>469.2</ele>
        <time>2021-12-29T13:32:02Z</time>
      </trkpt>
      <trkpt lat="44.15908" lon="5.03788">
        <ele>473.3</ele>
        <time>2021-12-29T13:32:16Z</time>
      </trkpt>
      <trkpt lat="44.15906" lon="5.03783">
        <ele>471.18</ele>
        <time>2021-12-29T13:32:31Z</time>
      </trkpt>
      <trkpt lat="44.15906" lon="5.03778">
        <ele>481</ele>
        <time>2021-12-29T13:32:46Z</time>
      </trkpt>
      <trkpt lat="44.15906" lon="5.03775">
        <ele>475.03</ele>
        <time>2021-12-29T13:33:01Z</time>
      </trkpt>
      <trkpt lat="44.15908" lon="5.03774">
        <ele>482.1</ele>
      </trkpt>
      <trkpt lat="44.15906" lon="5.03774">
        <ele>475.99</ele>
        <time>2021-12-29T13:33:03Z</time>
      </trkpt>
      <trkpt lat="44.15908" lon="5.03769">
        <ele>482.8</ele>
        <time>2021-12-29T13:33:14Z</time>
      </trkpt>
      <trkpt lat="44.15907" lon="5.03764">
        <ele>484</ele>
        <time>2021-12-29T13:33:30Z</time>
      </trkpt>
      <trkpt lat="44.15907" lon="5.03757">
        <ele>481.76</ele>
        <time>2021-12-29T13:33:43Z</time>
      </trkpt>
      <trkpt lat="44.15908" lon="5.03756">
        <ele>484.64</ele>
        <time>2021-12-29T13:33:58Z</time>
      </trkpt>
      <trkpt lat="44.15908" lon="5.03754">
        <ele>481.28</ele>
        <time>2021-12-29T13:34:01Z</time>
      </trkpt>
      <trkpt lat="44.15907" lon="5.03751">
        <ele>486.3</ele>
        <time>2021-12-29T13:34:07Z</time>
      </trkpt>
      <trkpt lat="44.15905" lon="5.03748">
        <ele>487</ele>
        <time>2021-12-29T13:36:06Z</time>
      </trkpt>
      <trkpt lat="44.15903" lon="5.03741">
        <ele>487.05</ele>
        <time>2021-12-29T13:36:22Z</time>
      </trkpt>
      <trkpt lat="44.159" lon="5.03734">
        <ele>488.01</ele>
        <time>2021-12-29T13:36:35Z</time>
      </trkpt>
      <trkpt lat="44.15899" lon="5.03728">
        <ele>491.37</ele>
        <time>2021-12-29T13:36:45Z</time>
      </trkpt>
      <trkpt lat="44.15896" lon="5.03724">
        <ele>492.9</ele>
        <time>2021-12-29T13:37:00Z</time>
      </trkpt>
      <trkpt lat="44.15897" lon="5.03719">
        <ele>493</ele>
        <time>2021-12-29T13:37:14Z</time>
      </trkpt>
      <trkpt lat="44.15897" lon="5.03715">
        <ele>493</ele>
        <time>2021-12-29T13:37:29Z</time>
      </trkpt>
      <trkpt lat="44.15897" lon="5.03709">
        <ele>493.3</ele>
        <time>2021-12-29T13:37:43Z</time>
      </trkpt>
      <trkpt lat="44.15894" lon="5.03702">
        <ele>495</ele>
        <time>2021-12-29T13:37:59Z</time>
      </trkpt>
      <trkpt lat="44.15893" lon="5.03694">
        <ele>496.9</ele>
        <time>2021-12-29T13:38:03Z</time>
      </trkpt>
      <trkpt lat="44.15896" lon="5.03681">
        <ele>498.2</ele>
        <time>2021-12-29T13:38:18Z</time>
      </trkpt>
      <trkpt lat="44.15894" lon="5.03674">
        <ele>498.58</ele>
        <time>2021-12-29T13:39:30Z</time>
      </trkpt>
      <trkpt lat="44.15894" lon="5.03673">
        <ele>499.54</ele>
        <time>2021-12-29T13:39:50Z</time>
      </trkpt>
      <trkpt lat="44.15889" lon="5.03658">
        <ele>500.02</ele>
        <time>2021-12-29T13:40:07Z</time>
      </trkpt>
      <trkpt lat="44.15884" lon="5.03645">
        <ele>501.95</ele>
        <time>2021-12-29T13:40:23Z</time>
      </trkpt>
      <trkpt lat="44.15881" lon="5.03633">
        <ele>504.35</ele>
        <time>2021-12-29T13:40:38Z</time>
      </trkpt>
      <trkpt lat="44.1588" lon="5.03632">
        <ele>505.31</ele>
        <time>2021-12-29T13:40:40Z</time>
      </trkpt>
      <trkpt lat="44.15873" lon="5.03627">
        <ele>508.19</ele>
        <time>2021-12-29T13:40:54Z</time>
      </trkpt>
      <trkpt lat="44.15871" lon="5.03623">
        <ele>509.16</ele>
        <time>2021-12-29T13:41:07Z</time>
      </trkpt>
      <trkpt lat="44.15867" lon="5.03616">
        <ele>509.64</ele>
        <time>2021-12-29T13:41:18Z</time>
      </trkpt>
      <trkpt lat="44.15862" lon="5.03607">
        <ele>511.08</ele>
        <time>2021-12-29T13:41:31Z</time>
      </trkpt>
      <trkpt lat="44.15855" lon="5.03599">
        <ele>512.52</ele>
        <time>2021-12-29T13:41:46Z</time>
      </trkpt>
      <trkpt lat="44.15851" lon="5.0359">
        <ele>513</ele>
        <time>2021-12-29T13:41:59Z</time>
      </trkpt>
      <trkpt lat="44.15848" lon="5.03584">
        <ele>512.04</ele>
        <time>2021-12-29T13:42:07Z</time>
      </trkpt>
      <trkpt lat="44.15847" lon="5.03583">
        <ele>511.56</ele>
        <time>2021-12-29T13:42:23Z</time>
      </trkpt>
      <trkpt lat="44.15848" lon="5.0358">
        <ele>516.1</ele>
        <time>2021-12-29T13:42:45Z</time>
      </trkpt>
      <trkpt lat="44.15847" lon="5.03576">
        <ele>515.7</ele>
        <time>2021-12-29T13:42:48Z</time>
      </trkpt>
      <trkpt lat="44.15845" lon="5.03572">
        <ele>515.7</ele>
        <time>2021-12-29T13:42:53Z</time>
      </trkpt>
      <trkpt lat="44.15839" lon="5.03564">
        <ele>510.12</ele>
        <time>2021-12-29T13:43:05Z</time>
      </trkpt>
      <trkpt lat="44.15835" lon="5.03563">
        <ele>518.6</ele>
        <time>2021-12-29T13:43:13Z</time>
      </trkpt>
      <trkpt lat="44.1583" lon="5.03558">
        <ele>519.5</ele>
        <time>2021-12-29T13:43:28Z</time>
      </trkpt>
      <trkpt lat="44.15825" lon="5.03545">
        <ele>519.4</ele>
        <time>2021-12-29T13:43:41Z</time>
      </trkpt>
      <trkpt lat="44.1582" lon="5.03532">
        <ele>513</ele>
        <time>2021-12-29T13:43:56Z</time>
      </trkpt>
      <trkpt lat="44.15818" lon="5.03528">
        <ele>512.52</ele>
        <time>2021-12-29T13:44:11Z</time>
      </trkpt>
      <trkpt lat="44.15816" lon="5.03522">
        <ele>519.9</ele>
        <time>2021-12-29T13:44:25Z</time>
      </trkpt>
      <trkpt lat="44.15812" lon="5.03515">
        <ele>517.9</ele>
        <time>2021-12-29T13:44:38Z</time>
      </trkpt>
      <trkpt lat="44.15809" lon="5.03505">
        <ele>514.7</ele>
        <time>2021-12-29T13:44:51Z</time>
      </trkpt>
      <trkpt lat="44.15807" lon="5.03498">
        <ele>512.3</ele>
        <time>2021-12-29T13:45:04Z</time>
      </trkpt>
      <trkpt lat="44.15806" lon="5.03493">
        <ele>511.6</ele>
        <time>2021-12-29T13:45:17Z</time>
      </trkpt>
      <trkpt lat="44.15803" lon="5.0349">
        <ele>512.5</ele>
        <time>2021-12-29T13:45:21Z</time>
      </trkpt>
      <trkpt lat="44.158" lon="5.03486">
        <ele>513.9</ele>
        <time>2021-12-29T13:45:42Z</time>
      </trkpt>
      <trkpt lat="44.15797" lon="5.03483">
        <ele>515.8</ele>
        <time>2021-12-29T13:45:54Z</time>
      </trkpt>
      <trkpt lat="44.15791" lon="5.0348">
        <ele>519.2</ele>
        <time>2021-12-29T13:46:00Z</time>
      </trkpt>
      <trkpt lat="44.15787" lon="5.03475">
        <ele>521.9</ele>
        <time>2021-12-29T13:46:10Z</time>
      </trkpt>
      <trkpt lat="44.15781" lon="5.03459">
        <ele>528.7</ele>
        <time>2021-12-29T13:46:31Z</time>
      </trkpt>
      <trkpt lat="44.15779" lon="5.03455">
        <ele>530.4</ele>
      </trkpt>
      <trkpt lat="44.15774" lon="5.03451">
        <ele>532.4</ele>
        <time>2021-12-29T13:48:07Z</time>
      </trkpt>
      <trkpt lat="44.1577" lon="5.03447">
        <ele>534.3</ele>
        <time>2021-12-29T13:48:25Z</time>
      </trkpt>
      <trkpt lat="44.15768" lon="5.03442">
        <ele>537</ele>
        <time>2021-12-29T13:48:37Z</time>
      </trkpt>
      <trkpt lat="44.15766" lon="5.03437">
        <ele>539.7</ele>
        <time>2021-12-29T13:49:04Z</time>
      </trkpt>
      <trkpt lat="44.15763" lon="5.03434">
        <ele>541.6</ele>
        <time>2021-12-29T13:49:21Z</time>
      </trkpt>
      <trkpt lat="44.15761" lon="5.03432">
        <ele>542.8</ele>
        <time>2021-12-29T13:49:33Z</time>
      </trkpt>
      <trkpt lat="44.15756" lon="5.03431">
        <ele>544.4</ele>
        <time>2021-12-29T13:49:50Z</time>
      </trkpt>
      <trkpt lat="44.15753" lon="5.03425">
        <ele>538.96</ele>
        <time>2021-12-29T13:50:17Z</time>
      </trkpt>
      <trkpt lat="44.15749" lon="5.03422">
        <ele>540.4</ele>
        <time>2021-12-29T13:50:22Z</time>
      </trkpt>
      <trkpt lat="44.15745" lon="5.03413">
        <ele>540.4</ele>
        <time>2021-12-29T13:50:36Z</time>
      </trkpt>
      <trkpt lat="44.15746" lon="5.03413">
        <ele>540.4</ele>
        <time>2021-12-29T13:51:02Z</time>
      </trkpt>
      <trkpt lat="44.15745" lon="5.03412">
        <ele>540.4</ele>
        <time>2021-12-29T13:51:27Z</time>
      </trkpt>
      <trkpt lat="44.15745" lon="5.03411">
        <ele>540.88</ele>
        <time>2021-12-29T13:51:55Z</time>
      </trkpt>
      <trkpt lat="44.15746" lon="5.03412">
        <ele>541.36</ele>
        <time>2021-12-29T13:52:24Z</time>
      </trkpt>
      <trkpt lat="44.15748" lon="5.03413">
        <ele>542.32</ele>
        <time>2021-12-29T13:52:48Z</time>
      </trkpt>
      <trkpt lat="44.15748" lon="5.03412">
        <ele>542.32</ele>
        <time>2021-12-29T13:53:09Z</time>
      </trkpt>
      <trkpt lat="44.15747" lon="5.03412">
        <ele>542.32</ele>
        <time>2021-12-29T13:53:33Z</time>
      </trkpt>
      <trkpt lat="44.15746" lon="5.03411">
        <ele>542.32</ele>
        <time>2021-12-29T13:54:01Z</time>
      </trkpt>
      <trkpt lat="44.15746" lon="5.03416">
        <ele>542.32</ele>
        <time>2021-12-29T13:54:16Z</time>
      </trkpt>
      <trkpt lat="44.15746" lon="5.03412">
        <ele>542.32</ele>
        <time>2021-12-29T13:55:00Z</time>
      </trkpt>
      <trkpt lat="44.15747" lon="5.03412">
        <ele>542.32</ele>
        <time>2021-12-29T13:55:22Z</time>
      </trkpt>
      <trkpt lat="44.15747" lon="5.0341">
        <ele>542.32</ele>
        <time>2021-12-29T13:55:38Z</time>
      </trkpt>
      <trkpt lat="44.15744" lon="5.03407">
        <ele>548.2</ele>
        <time>2021-12-29T13:55:59Z</time>
      </trkpt>
      <trkpt lat="44.15744" lon="5.03401">
        <ele>548.7</ele>
        <time>2021-12-29T13:56:05Z</time>
      </trkpt>
      <trkpt lat="44.15747" lon="5.03394">
        <ele>550.4</ele>
        <time>2021-12-29T13:56:17Z</time>
      </trkpt>
      <trkpt lat="44.1575" lon="5.03386">
        <ele>552</ele>
      </trkpt>
      <trkpt lat="44.15749" lon="5.03378">
        <ele>552.2</ele>
        <time>2021-12-29T13:56:32Z</time>
      </trkpt>
      <trkpt lat="44.15747" lon="5.03362">
        <ele>551.9</ele>
      </trkpt>
      <trkpt lat="44.15744" lon="5.03354">
        <ele>549.6</ele>
        <time>2021-12-29T13:56:47Z</time>
      </trkpt>
      <trkpt lat="44.15747" lon="5.0335">
        <ele>549.6</ele>
      </trkpt>
      <trkpt lat="44.15747" lon="5.03346">
        <ele>549</ele>
        <time>2021-12-29T13:57:03Z</time>
      </trkpt>
      <trkpt lat="44.15744" lon="5.03332">
        <ele>546.2</ele>
        <time>2021-12-29T13:57:33Z</time>
      </trkpt>
      <trkpt lat="44.15744" lon="5.03324">
        <ele>546.4</ele>
        <time>2021-12-29T13:57:45Z</time>
      </trkpt>
      <trkpt lat="44.15743" lon="5.0332">
        <ele>546.5</ele>
        <time>2021-12-29T13:57:58Z</time>
      </trkpt>
      <trkpt lat="44.15742" lon="5.03313">
        <ele>546.7</ele>
        <time>2021-12-29T13:58:11Z</time>
      </trkpt>
      <trkpt lat="44.15741" lon="5.03304">
        <ele>546.65</ele>
        <time>2021-12-29T13:58:28Z</time>
      </trkpt>
      <trkpt lat="44.15737" lon="5.03294">
        <ele>546.4</ele>
        <time>2021-12-29T13:58:40Z</time>
      </trkpt>
      <trkpt lat="44.15733" lon="5.03284">
        <ele>547.9</ele>
        <time>2021-12-29T13:58:54Z</time>
      </trkpt>
      <trkpt lat="44.15727" lon="5.0327">
        <ele>553.6</ele>
        <time>2021-12-29T13:59:10Z</time>
      </trkpt>
      <trkpt lat="44.15721" lon="5.03258">
        <ele>561</ele>
        <time>2021-12-29T13:59:23Z</time>
      </trkpt>
      <trkpt lat="44.15716" lon="5.03249">
        <ele>560.9</ele>
        <time>2021-12-29T13:59:37Z</time>
      </trkpt>
      <trkpt lat="44.15713" lon="5.0324">
        <ele>560.9</ele>
        <time>2021-12-29T13:59:47Z</time>
      </trkpt>
      <trkpt lat="44.1571" lon="5.03234">
        <ele>560.3</ele>
        <time>2021-12-29T14:00:01Z</time>
      </trkpt>
      <trkpt lat="44.15706" lon="5.03228">
        <ele>558.9</ele>
        <time>2021-12-29T14:00:16Z</time>
      </trkpt>
      <trkpt lat="44.15699" lon="5.03221">
        <ele>556.9</ele>
        <time>2021-12-29T14:00:39Z</time>
      </trkpt>
      <trkpt lat="44.15695" lon="5.03217">
        <ele>557.1</ele>
        <time>2021-12-29T14:00:58Z</time>
      </trkpt>
      <trkpt lat="44.15691" lon="5.03216">
        <ele>555.8</ele>
        <time>2021-12-29T14:01:13Z</time>
      </trkpt>
      <trkpt lat="44.15686" lon="5.03215">
        <ele>553.3</ele>
        <time>2021-12-29T14:01:26Z</time>
      </trkpt>
      <trkpt lat="44.15683" lon="5.03219">
        <ele>550.6</ele>
        <time>2021-12-29T14:01:45Z</time>
      </trkpt>
      <trkpt lat="44.15676" lon="5.03216">
        <ele>548</ele>
        <time>2021-12-29T14:02:01Z</time>
      </trkpt>
      <trkpt lat="44.15674" lon="5.03216">
        <ele>547.5</ele>
        <time>2021-12-29T14:02:34Z</time>
      </trkpt>
      <trkpt lat="44.15672" lon="5.03215">
        <ele>546.7</ele>
      </trkpt>
      <trkpt lat="44.15668" lon="5.0321">
        <ele>545.5</ele>
        <time>2021-12-29T14:02:52Z</time>
      </trkpt>
      <trkpt lat="44.15666" lon="5.03205">
        <ele>545.6</ele>
        <time>2021-12-29T14:04:02Z</time>
      </trkpt>
      <trkpt lat="44.15665" lon="5.032">
        <ele>546.6</ele>
        <time>2021-12-29T14:04:15Z</time>
      </trkpt>
      <trkpt lat="44.15664" lon="5.03194">
        <ele>547.3</ele>
        <time>2021-12-29T14:04:28Z</time>
      </trkpt>
      <trkpt lat="44.15662" lon="5.03189">
        <ele>547.5</ele>
        <time>2021-12-29T14:04:43Z</time>
      </trkpt>
      <trkpt lat="44.15659" lon="5.03176">
        <ele>549.3</ele>
      </trkpt>
      <trkpt lat="44.15659" lon="5.0317">
        <ele>551.1</ele>
        <time>2021-12-29T14:04:55Z</time>
      </trkpt>
      <trkpt lat="44.1566" lon="5.03165">
        <ele>554.3</ele>
        <time>2021-12-29T14:05:11Z</time>
      </trkpt>
      <trkpt lat="44.15659" lon="5.0316">
        <ele>558.3</ele>
        <time>2021-12-29T14:05:25Z</time>
      </trkpt>
      <trkpt lat="44.15655" lon="5.03154">
        <ele>559.4</ele>
        <time>2021-12-29T14:05:27Z</time>
      </trkpt>
      <trkpt lat="44.15652" lon="5.03148">
        <ele>560.3</ele>
      </trkpt>
      <trkpt lat="44.15651" lon="5.03137">
        <ele>564.2</ele>
        <time>2021-12-29T14:05:44Z</time>
      </trkpt>
      <trkpt lat="44.15649" lon="5.03132">
        <ele>561</ele>
        <time>2021-12-29T14:05:48Z</time>
      </trkpt>
      <trkpt lat="44.15647" lon="5.03125">
        <ele>558.7</ele>
      </trkpt>
      <trkpt lat="44.15645" lon="5.0312">
        <ele>556.3</ele>
        <time>2021-12-29T14:06:03Z</time>
      </trkpt>
      <trkpt lat="44.15646" lon="5.03112">
        <ele>558.6</ele>
        <time>2021-12-29T14:06:17Z</time>
      </trkpt>
      <trkpt lat="44.1565" lon="5.03105">
        <ele>562.4</ele>
        <time>2021-12-29T14:06:31Z</time>
      </trkpt>
      <trkpt lat="44.15652" lon="5.03103">
        <ele>564.4</ele>
      </trkpt>
      <trkpt lat="44.15653" lon="5.03101">
        <ele>549.53</ele>
        <time>2021-12-29T14:06:46Z</time>
      </trkpt>
      <trkpt lat="44.15654" lon="5.03103">
        <ele>550.49</ele>
        <time>2021-12-29T14:06:59Z</time>
      </trkpt>
      <trkpt lat="44.15656" lon="5.031">
        <ele>566.7</ele>
        <time>2021-12-29T14:07:12Z</time>
      </trkpt>
      <trkpt lat="44.15655" lon="5.03096">
        <ele>564.6</ele>
        <time>2021-12-29T14:07:23Z</time>
      </trkpt>
      <trkpt lat="44.15654" lon="5.03088">
        <ele>560</ele>
        <time>2021-12-29T14:07:38Z</time>
      </trkpt>
      <trkpt lat="44.15653" lon="5.03075">
        <ele>554.8</ele>
        <time>2021-12-29T14:07:52Z</time>
      </trkpt>
      <trkpt lat="44.15649" lon="5.03067">
        <ele>552.1</ele>
        <time>2021-12-29T14:08:06Z</time>
      </trkpt>
      <trkpt lat="44.15647" lon="5.0306">
        <ele>550.8</ele>
        <time>2021-12-29T14:08:21Z</time>
      </trkpt>
      <trkpt lat="44.15644" lon="5.03049">
        <ele>551.9</ele>
        <time>2021-12-29T14:08:36Z</time>
      </trkpt>
      <trkpt lat="44.15642" lon="5.03041">
        <ele>545.69</ele>
        <time>2021-12-29T14:08:52Z</time>
      </trkpt>
      <trkpt lat="44.15637" lon="5.03033">
        <ele>546.17</ele>
        <time>2021-12-29T14:10:33Z</time>
      </trkpt>
      <trkpt lat="44.15632" lon="5.03029">
        <ele>553.9</ele>
        <time>2021-12-29T14:10:45Z</time>
      </trkpt>
      <trkpt lat="44.15631" lon="5.03022">
        <ele>554.8</ele>
        <time>2021-12-29T14:11:00Z</time>
      </trkpt>
      <trkpt lat="44.15631" lon="5.03014">
        <ele>558</ele>
        <time>2021-12-29T14:11:14Z</time>
      </trkpt>
      <trkpt lat="44.15629" lon="5.03005">
        <ele>557.3</ele>
        <time>2021-12-29T14:11:27Z</time>
      </trkpt>
      <trkpt lat="44.15625" lon="5.02992">
        <ele>550.8</ele>
        <time>2021-12-29T14:11:42Z</time>
      </trkpt>
      <trkpt lat="44.15623" lon="5.02985">
        <ele>540.88</ele>
        <time>2021-12-29T14:11:56Z</time>
      </trkpt>
      <trkpt lat="44.15622" lon="5.02981">
        <ele>545.2</ele>
        <time>2021-12-29T14:12:12Z</time>
      </trkpt>
      <trkpt lat="44.15621" lon="5.02978">
        <ele>540.88</ele>
        <time>2021-12-29T14:12:29Z</time>
      </trkpt>
      <trkpt lat="44.15621" lon="5.02975">
        <ele>543.2</ele>
        <time>2021-12-29T14:12:59Z</time>
      </trkpt>
      <trkpt lat="44.1562" lon="5.0297">
        <ele>542.6</ele>
        <time>2021-12-29T14:13:13Z</time>
      </trkpt>
      <trkpt lat="44.15619" lon="5.02963">
        <ele>542.5</ele>
        <time>2021-12-29T14:13:35Z</time>
      </trkpt>
      <trkpt lat="44.15617" lon="5.02958">
        <ele>542.9</ele>
        <time>2021-12-29T14:13:47Z</time>
      </trkpt>
      <trkpt lat="44.15616" lon="5.02949">
        <ele>544.3</ele>
        <time>2021-12-29T14:14:50Z</time>
      </trkpt>
      <trkpt lat="44.15614" lon="5.02947">
        <ele>545.9</ele>
        <time>2021-12-29T14:15:02Z</time>
      </trkpt>
      <trkpt lat="44.15612" lon="5.02942">
        <ele>548.3</ele>
        <time>2021-12-29T14:15:39Z</time>
      </trkpt>
      <trkpt lat="44.1561" lon="5.02941">
        <ele>541.84</ele>
        <time>2021-12-29T14:15:48Z</time>
      </trkpt>
      <trkpt lat="44.15608" lon="5.02936">
        <ele>549.1</ele>
        <time>2021-12-29T14:16:03Z</time>
      </trkpt>
      <trkpt lat="44.15605" lon="5.02931">
        <ele>548.1</ele>
        <time>2021-12-29T14:16:16Z</time>
      </trkpt>
      <trkpt lat="44.15603" lon="5.02925">
        <ele>548</ele>
        <time>2021-12-29T14:16:31Z</time>
      </trkpt>
      <trkpt lat="44.15597" lon="5.0292">
        <ele>543.7</ele>
        <time>2021-12-29T14:16:44Z</time>
      </trkpt>
      <trkpt lat="44.15591" lon="5.02913">
        <ele>539</ele>
        <time>2021-12-29T14:16:57Z</time>
      </trkpt>
      <trkpt lat="44.15589" lon="5.02906">
        <ele>539.4</ele>
        <time>2021-12-29T14:17:14Z</time>
      </trkpt>
      <trkpt lat="44.15588" lon="5.02902">
        <ele>539.8</ele>
        <time>2021-12-29T14:17:29Z</time>
      </trkpt>
      <trkpt lat="44.15587" lon="5.02898">
        <ele>540.5</ele>
        <time>2021-12-29T14:17:43Z</time>
      </trkpt>
      <trkpt lat="44.15586" lon="5.02894">
        <ele>541.4</ele>
        <time>2021-12-29T14:17:57Z</time>
      </trkpt>
      <trkpt lat="44.15584" lon="5.02888">
        <ele>542.4</ele>
        <time>2021-12-29T14:18:11Z</time>
      </trkpt>
      <trkpt lat="44.15582" lon="5.02881">
        <ele>533.19</ele>
        <time>2021-12-29T14:18:43Z</time>
      </trkpt>
      <trkpt lat="44.15578" lon="5.02869">
        <ele>541.8</ele>
        <time>2021-12-29T14:19:56Z</time>
      </trkpt>
      <trkpt lat="44.15575" lon="5.02856">
        <ele>541.6</ele>
      </trkpt>
      <trkpt lat="44.15573" lon="5.02841">
        <ele>542.6</ele>
        <time>2021-12-29T14:20:19Z</time>
      </trkpt>
      <trkpt lat="44.15572" lon="5.02824">
        <ele>544.3</ele>
        <time>2021-12-29T14:20:36Z</time>
      </trkpt>
      <trkpt lat="44.15572" lon="5.02808">
        <ele>545.6</ele>
        <time>2021-12-29T14:20:51Z</time>
      </trkpt>
      <trkpt lat="44.15568" lon="5.02793">
        <ele>544.9</ele>
      </trkpt>
      <trkpt lat="44.15566" lon="5.02786">
        <ele>544.6</ele>
        <time>2021-12-29T14:21:06Z</time>
      </trkpt>
      <trkpt lat="44.15565" lon="5.02778">
        <ele>545.1</ele>
        <time>2021-12-29T14:21:16Z</time>
      </trkpt>
      <trkpt lat="44.15564" lon="5.02769">
        <ele>545.1</ele>
        <time>2021-12-29T14:21:31Z</time>
      </trkpt>
      <trkpt lat="44.15568" lon="5.02758">
        <ele>544.24</ele>
        <time>2021-12-29T14:21:44Z</time>
      </trkpt>
      <trkpt lat="44.15572" lon="5.02751">
        <ele>546.6</ele>
        <time>2021-12-29T14:21:58Z</time>
      </trkpt>
      <trkpt lat="44.1557" lon="5.02741">
        <ele>547.7</ele>
        <time>2021-12-29T14:22:11Z</time>
      </trkpt>
      <trkpt lat="44.15569" lon="5.02734">
        <ele>548.5</ele>
        <time>2021-12-29T14:22:25Z</time>
      </trkpt>
      <trkpt lat="44.15569" lon="5.02728">
        <ele>549.3</ele>
        <time>2021-12-29T14:22:41Z</time>
      </trkpt>
      <trkpt lat="44.15569" lon="5.02724">
        <ele>549.8</ele>
      </trkpt>
      <trkpt lat="44.1557" lon="5.02717">
        <ele>552</ele>
        <time>2021-12-29T14:22:53Z</time>
      </trkpt>
      <trkpt lat="44.15572" lon="5.02709">
        <ele>554.9</ele>
        <time>2021-12-29T14:23:06Z</time>
      </trkpt>
      <trkpt lat="44.15573" lon="5.02702">
        <ele>557.8</ele>
        <time>2021-12-29T14:23:18Z</time>
      </trkpt>
      <trkpt lat="44.15573" lon="5.02698">
        <ele>559.3</ele>
      </trkpt>
      <trkpt lat="44.15574" lon="5.02694">
        <ele>561.3</ele>
        <time>2021-12-29T14:23:33Z</time>
      </trkpt>
      <trkpt lat="44.15579" lon="5.02691">
        <ele>564.3</ele>
        <time>2021-12-29T14:23:48Z</time>
      </trkpt>
      <trkpt lat="44.15582" lon="5.02688">
        <ele>567.2</ele>
        <time>2021-12-29T14:24:02Z</time>
      </trkpt>
      <trkpt lat="44.15582" lon="5.02685">
        <ele>569.6</ele>
        <time>2021-12-29T14:24:14Z</time>
      </trkpt>
      <trkpt lat="44.15583" lon="5.0268">
        <ele>572.6</ele>
        <time>2021-12-29T14:24:29Z</time>
      </trkpt>
      <trkpt lat="44.15584" lon="5.02675">
        <ele>575.5</ele>
        <time>2021-12-29T14:25:24Z</time>
      </trkpt>
      <trkpt lat="44.15582" lon="5.0267">
        <ele>578.2</ele>
      </trkpt>
      <trkpt lat="44.15579" lon="5.02663">
        <ele>579.4</ele>
        <time>2021-12-29T14:27:57Z</time>
      </trkpt>
      <trkpt lat="44.15578" lon="5.02654">
        <ele>571.64</ele>
        <time>2021-12-29T14:28:09Z</time>
      </trkpt>
      <trkpt lat="44.15577" lon="5.02647">
        <ele>586</ele>
        <time>2021-12-29T14:28:22Z</time>
      </trkpt>
      <trkpt lat="44.15576" lon="5.02638">
        <ele>587.5</ele>
        <time>2021-12-29T14:28:36Z</time>
      </trkpt>
      <trkpt lat="44.15574" lon="5.0263">
        <ele>581.2</ele>
        <time>2021-12-29T14:29:03Z</time>
      </trkpt>
      <trkpt lat="44.15572" lon="5.02625">
        <ele>577.3</ele>
        <time>2021-12-29T14:29:20Z</time>
      </trkpt>
      <trkpt lat="44.15571" lon="5.0262">
        <ele>574.6</ele>
      </trkpt>
      <trkpt lat="44.15569" lon="5.02611">
        <ele>571.1</ele>
        <time>2021-12-29T14:29:35Z</time>
      </trkpt>
      <trkpt lat="44.15566" lon="5.02603">
        <ele>571.3</ele>
        <time>2021-12-29T14:29:45Z</time>
      </trkpt>
      <trkpt lat="44.15562" lon="5.02589">
        <ele>573</ele>
        <time>2021-12-29T14:30:01Z</time>
      </trkpt>
      <trkpt lat="44.15558" lon="5.02576">
        <ele>578.8</ele>
        <time>2021-12-29T14:30:53Z</time>
      </trkpt>
      <trkpt lat="44.15555" lon="5.02565">
        <ele>584.7</ele>
        <time>2021-12-29T14:31:09Z</time>
      </trkpt>
      <trkpt lat="44.15553" lon="5.02558">
        <ele>585.7</ele>
        <time>2021-12-29T14:31:23Z</time>
      </trkpt>
      <trkpt lat="44.15551" lon="5.02548">
        <ele>586.6</ele>
        <time>2021-12-29T14:31:37Z</time>
      </trkpt>
      <trkpt lat="44.15552" lon="5.0254">
        <ele>587.8</ele>
        <time>2021-12-29T14:31:51Z</time>
      </trkpt>
      <trkpt lat="44.15551" lon="5.02529">
        <ele>580.29</ele>
        <time>2021-12-29T14:32:06Z</time>
      </trkpt>
      <trkpt lat="44.15549" lon="5.02528">
        <ele>587.1</ele>
        <time>2021-12-29T14:32:35Z</time>
      </trkpt>
      <trkpt lat="44.15546" lon="5.02525">
        <ele>586.1</ele>
        <time>2021-12-29T14:32:53Z</time>
      </trkpt>
      <trkpt lat="44.15547" lon="5.02517">
        <ele>580.77</ele>
        <time>2021-12-29T14:33:09Z</time>
      </trkpt>
      <trkpt lat="44.15548" lon="5.02514">
        <ele>591.8</ele>
        <time>2021-12-29T14:33:22Z</time>
      </trkpt>
      <trkpt lat="44.15548" lon="5.02509">
        <ele>594</ele>
        <time>2021-12-29T14:33:36Z</time>
      </trkpt>
      <trkpt lat="44.15547" lon="5.02499">
        <ele>597.1</ele>
        <time>2021-12-29T14:33:50Z</time>
      </trkpt>
      <trkpt lat="44.15545" lon="5.02489">
        <ele>594.7</ele>
        <time>2021-12-29T14:34:01Z</time>
      </trkpt>
      <trkpt lat="44.15544" lon="5.02482">
        <ele>594.4</ele>
        <time>2021-12-29T14:34:27Z</time>
      </trkpt>
      <trkpt lat="44.15541" lon="5.02467">
        <ele>591.8</ele>
        <time>2021-12-29T14:34:53Z</time>
      </trkpt>
      <trkpt lat="44.15539" lon="5.02462">
        <ele>589.9</ele>
        <time>2021-12-29T14:35:01Z</time>
      </trkpt>
      <trkpt lat="44.15535" lon="5.02451">
        <ele>586.6</ele>
        <time>2021-12-29T14:35:14Z</time>
      </trkpt>
      <trkpt lat="44.15532" lon="5.02442">
        <ele>585.9</ele>
        <time>2021-12-29T14:35:26Z</time>
      </trkpt>
      <trkpt lat="44.1553" lon="5.02432">
        <ele>588.1</ele>
        <time>2021-12-29T14:35:34Z</time>
      </trkpt>
      <trkpt lat="44.15527" lon="5.02422">
        <ele>592.5</ele>
        <time>2021-12-29T14:35:50Z</time>
      </trkpt>
      <trkpt lat="44.15521" lon="5.02404">
        <ele>576.45</ele>
        <time>2021-12-29T14:36:05Z</time>
      </trkpt>
      <trkpt lat="44.15519" lon="5.02396">
        <ele>591.5</ele>
        <time>2021-12-29T14:36:57Z</time>
      </trkpt>
      <trkpt lat="44.15517" lon="5.02392">
        <ele>575.49</ele>
        <time>2021-12-29T14:37:38Z</time>
      </trkpt>
      <trkpt lat="44.15517" lon="5.02391">
        <ele>575.49</ele>
        <time>2021-12-29T14:38:04Z</time>
      </trkpt>
      <trkpt lat="44.15515" lon="5.02383">
        <ele>587.3</ele>
        <time>2021-12-29T15:01:17Z</time>
      </trkpt>
      <trkpt lat="44.15513" lon="5.02376">
        <ele>578.37</ele>
        <time>2021-12-29T15:01:33Z</time>
      </trkpt>
      <trkpt lat="44.15513" lon="5.02369">
        <ele>581.9</ele>
        <time>2021-12-29T15:01:47Z</time>
      </trkpt>
      <trkpt lat="44.15513" lon="5.02361">
        <ele>580.6</ele>
        <time>2021-12-29T15:01:57Z</time>
      </trkpt>
      <trkpt lat="44.15514" lon="5.02353">
        <ele>581.1</ele>
        <time>2021-12-29T15:02:11Z</time>
      </trkpt>
      <trkpt lat="44.15517" lon="5.02346">
        <ele>582.6</ele>
        <time>2021-12-29T15:02:27Z</time>
      </trkpt>
      <trkpt lat="44.15519" lon="5.02337">
        <ele>583.1</ele>
        <time>2021-12-29T15:02:42Z</time>
      </trkpt>
      <trkpt lat="44.1552" lon="5.02328">
        <ele>584.4</ele>
        <time>2021-12-29T15:02:57Z</time>
      </trkpt>
      <trkpt lat="44.15518" lon="5.02312">
        <ele>586.3</ele>
        <time>2021-12-29T15:03:13Z</time>
      </trkpt>
      <trkpt lat="44.15516" lon="5.02297">
        <ele>587.7</ele>
        <time>2021-12-29T15:03:29Z</time>
      </trkpt>
      <trkpt lat="44.15512" lon="5.02277">
        <ele>587.7</ele>
        <time>2021-12-29T15:03:46Z</time>
      </trkpt>
      <trkpt lat="44.15509" lon="5.02264">
        <ele>583.3</ele>
        <time>2021-12-29T15:04:02Z</time>
      </trkpt>
      <trkpt lat="44.15503" lon="5.02244">
        <ele>582</ele>
        <time>2021-12-29T15:04:16Z</time>
      </trkpt>
      <trkpt lat="44.15498" lon="5.02227">
        <ele>584.6</ele>
        <time>2021-12-29T15:04:31Z</time>
      </trkpt>
      <trkpt lat="44.15497" lon="5.0222">
        <ele>584.4</ele>
        <time>2021-12-29T15:04:47Z</time>
      </trkpt>
      <trkpt lat="44.15495" lon="5.02214">
        <ele>584</ele>
        <time>2021-12-29T15:05:00Z</time>
      </trkpt>
      <trkpt lat="44.15494" lon="5.02211">
        <ele>583.7</ele>
        <time>2021-12-29T15:05:13Z</time>
      </trkpt>
      <trkpt lat="44.15492" lon="5.02205">
        <ele>582</ele>
      </trkpt>
      <trkpt lat="44.15491" lon="5.02199">
        <ele>582.2</ele>
        <time>2021-12-29T15:05:24Z</time>
      </trkpt>
      <trkpt lat="44.1549" lon="5.02192">
        <ele>581.7</ele>
        <time>2021-12-29T15:05:41Z</time>
      </trkpt>
      <trkpt lat="44.15487" lon="5.02181">
        <ele>577.1</ele>
        <time>2021-12-29T15:05:53Z</time>
      </trkpt>
      <trkpt lat="44.15485" lon="5.02166">
        <ele>573.7</ele>
        <time>2021-12-29T15:06:05Z</time>
      </trkpt>
      <trkpt lat="44.15484" lon="5.02158">
        <ele>571.1</ele>
        <time>2021-12-29T15:06:20Z</time>
      </trkpt>
      <trkpt lat="44.15481" lon="5.02153">
        <ele>567.9</ele>
      </trkpt>
      <trkpt lat="44.15479" lon="5.02151">
        <ele>565.4</ele>
        <time>2021-12-29T15:06:31Z</time>
      </trkpt>
      <trkpt lat="44.15474" lon="5.02146">
        <ele>561.3</ele>
      </trkpt>
      <trkpt lat="44.15472" lon="5.02138">
        <ele>558.7</ele>
        <time>2021-12-29T15:06:44Z</time>
      </trkpt>
      <trkpt lat="44.15471" lon="5.02128">
        <ele>558.6</ele>
        <time>2021-12-29T15:06:59Z</time>
      </trkpt>
      <trkpt lat="44.15467" lon="5.02118">
        <ele>550.97</ele>
        <time>2021-12-29T15:07:15Z</time>
      </trkpt>
      <trkpt lat="44.15464" lon="5.02113">
        <ele>549.05</ele>
        <time>2021-12-29T15:07:29Z</time>
      </trkpt>
      <trkpt lat="44.15462" lon="5.02111">
        <ele>552.7</ele>
      </trkpt>
      <trkpt lat="44.15457" lon="5.02111">
        <ele>549.7</ele>
        <time>2021-12-29T15:07:46Z</time>
      </trkpt>
      <trkpt lat="44.15456" lon="5.02101">
        <ele>549.6</ele>
        <time>2021-12-29T15:07:59Z</time>
      </trkpt>
      <trkpt lat="44.15455" lon="5.02094">
        <ele>549.6</ele>
        <time>2021-12-29T15:08:14Z</time>
      </trkpt>
      <trkpt lat="44.15451" lon="5.02087">
        <ele>540.4</ele>
        <time>2021-12-29T15:08:29Z</time>
      </trkpt>
      <trkpt lat="44.15448" lon="5.02083">
        <ele>542.6</ele>
        <time>2021-12-29T15:08:44Z</time>
      </trkpt>
      <trkpt lat="44.15444" lon="5.02071">
        <ele>540</ele>
        <time>2021-12-29T15:10:40Z</time>
      </trkpt>
      <trkpt lat="44.15444" lon="5.02061">
        <ele>541.9</ele>
        <time>2021-12-29T15:10:54Z</time>
      </trkpt>
      <trkpt lat="44.15442" lon="5.02054">
        <ele>541.3</ele>
        <time>2021-12-29T15:11:05Z</time>
      </trkpt>
      <trkpt lat="44.1544" lon="5.02047">
        <ele>539.5</ele>
      </trkpt>
      <trkpt lat="44.15439" lon="5.02044">
        <ele>538.3</ele>
        <time>2021-12-29T15:11:18Z</time>
      </trkpt>
      <trkpt lat="44.15438" lon="5.0204">
        <ele>531.27</ele>
        <time>2021-12-29T15:11:31Z</time>
      </trkpt>
      <trkpt lat="44.15437" lon="5.02029">
        <ele>536.3</ele>
        <time>2021-12-29T15:11:43Z</time>
      </trkpt>
      <trkpt lat="44.15438" lon="5.02021">
        <ele>538.4</ele>
        <time>2021-12-29T15:11:58Z</time>
      </trkpt>
      <trkpt lat="44.15437" lon="5.02012">
        <ele>539</ele>
        <time>2021-12-29T15:12:15Z</time>
      </trkpt>
      <trkpt lat="44.15434" lon="5.02002">
        <ele>538.3</ele>
        <time>2021-12-29T15:12:30Z</time>
      </trkpt>
      <trkpt lat="44.15432" lon="5.01993">
        <ele>534.9</ele>
        <time>2021-12-29T15:12:46Z</time>
      </trkpt>
      <trkpt lat="44.1543" lon="5.0199">
        <ele>525.02</ele>
        <time>2021-12-29T15:12:51Z</time>
      </trkpt>
      <trkpt lat="44.15426" lon="5.01977">
        <ele>528.9</ele>
        <time>2021-12-29T15:13:06Z</time>
      </trkpt>
      <trkpt lat="44.15417" lon="5.01961">
        <ele>522.5</ele>
        <time>2021-12-29T15:13:20Z</time>
      </trkpt>
      <trkpt lat="44.15416" lon="5.01958">
        <ele>521.5</ele>
        <time>2021-12-29T15:13:37Z</time>
      </trkpt>
      <trkpt lat="44.15413" lon="5.01958">
        <ele>517.33</ele>
        <time>2021-12-29T15:13:52Z</time>
      </trkpt>
      <trkpt lat="44.15409" lon="5.01953">
        <ele>516.4</ele>
        <time>2021-12-29T15:14:06Z</time>
      </trkpt>
      <trkpt lat="44.15404" lon="5.01948">
        <ele>513.1</ele>
        <time>2021-12-29T15:14:17Z</time>
      </trkpt>
      <trkpt lat="44.154" lon="5.01941">
        <ele>507.71</ele>
        <time>2021-12-29T15:14:31Z</time>
      </trkpt>
      <trkpt lat="44.15397" lon="5.01938">
        <ele>505.79</ele>
        <time>2021-12-29T15:14:43Z</time>
      </trkpt>
      <trkpt lat="44.15395" lon="5.01934">
        <ele>506.1</ele>
        <time>2021-12-29T15:14:55Z</time>
      </trkpt>
      <trkpt lat="44.15392" lon="5.01929">
        <ele>500.02</ele>
        <time>2021-12-29T15:15:09Z</time>
      </trkpt>
      <trkpt lat="44.15389" lon="5.01924">
        <ele>497.14</ele>
        <time>2021-12-29T15:15:27Z</time>
      </trkpt>
      <trkpt lat="44.15386" lon="5.01924">
        <ele>496.18</ele>
        <time>2021-12-29T15:15:30Z</time>
      </trkpt>
      <trkpt lat="44.15383" lon="5.01924">
        <ele>497.4</ele>
        <time>2021-12-29T15:15:41Z</time>
      </trkpt>
      <trkpt lat="44.1538" lon="5.01928">
        <ele>495.2</ele>
        <time>2021-12-29T15:15:55Z</time>
      </trkpt>
      <trkpt lat="44.15378" lon="5.01933">
        <ele>494.2</ele>
        <time>2021-12-29T15:16:01Z</time>
      </trkpt>
      <trkpt lat="44.15376" lon="5.01938">
        <ele>486.56</ele>
        <time>2021-12-29T15:16:06Z</time>
      </trkpt>
      <trkpt lat="44.15372" lon="5.01945">
        <ele>490.4</ele>
        <time>2021-12-29T15:16:21Z</time>
      </trkpt>
      <trkpt lat="44.15368" lon="5.01945">
        <ele>487.7</ele>
      </trkpt>
      <trkpt lat="44.15366" lon="5.01938">
        <ele>486.2</ele>
      </trkpt>
      <trkpt lat="44.15366" lon="5.01935">
        <ele>485.9</ele>
        <time>2021-12-29T15:16:31Z</time>
      </trkpt>
      <trkpt lat="44.15363" lon="5.01927">
        <ele>477.43</ele>
        <time>2021-12-29T15:16:43Z</time>
      </trkpt>
      <trkpt lat="44.15357" lon="5.01924">
        <ele>479.6</ele>
        <time>2021-12-29T15:16:56Z</time>
      </trkpt>
      <trkpt lat="44.15352" lon="5.01927">
        <ele>476.5</ele>
        <time>2021-12-29T15:17:08Z</time>
      </trkpt>
      <trkpt lat="44.15346" lon="5.01934">
        <ele>473.3</ele>
        <time>2021-12-29T15:17:20Z</time>
      </trkpt>
      <trkpt lat="44.15344" lon="5.01941">
        <ele>472.2</ele>
      </trkpt>
      <trkpt lat="44.15336" lon="5.01946">
        <ele>467.7</ele>
        <time>2021-12-29T15:17:35Z</time>
      </trkpt>
      <trkpt lat="44.15332" lon="5.01946">
        <ele>465.4</ele>
        <time>2021-12-29T15:17:45Z</time>
      </trkpt>
      <trkpt lat="44.15327" lon="5.01945">
        <ele>462.8</ele>
        <time>2021-12-29T15:17:56Z</time>
      </trkpt>
      <trkpt lat="44.1532" lon="5.01948">
        <ele>455.32</ele>
        <time>2021-12-29T15:18:08Z</time>
      </trkpt>
      <trkpt lat="44.15309" lon="5.01952">
        <ele>454.9</ele>
        <time>2021-12-29T15:18:21Z</time>
      </trkpt>
      <trkpt lat="44.15308" lon="5.01946">
        <ele>453.3</ele>
      </trkpt>
      <trkpt lat="44.15308" lon="5.0194">
        <ele>450.03</ele>
        <time>2021-12-29T15:18:35Z</time>
      </trkpt>
      <trkpt lat="44.15307" lon="5.01937">
        <ele>448.59</ele>
        <time>2021-12-29T15:18:39Z</time>
      </trkpt>
      <trkpt lat="44.15303" lon="5.0193">
        <ele>446.19</ele>
        <time>2021-12-29T15:18:48Z</time>
      </trkpt>
      <trkpt lat="44.15301" lon="5.01926">
        <ele>449.3</ele>
      </trkpt>
      <trkpt lat="44.15302" lon="5.0192">
        <ele>449</ele>
        <time>2021-12-29T15:19:00Z</time>
      </trkpt>
      <trkpt lat="44.15303" lon="5.01917">
        <ele>449.1</ele>
        <time>2021-12-29T15:19:03Z</time>
      </trkpt>
      <trkpt lat="44.15304" lon="5.01907">
        <ele>444.75</ele>
        <time>2021-12-29T15:19:10Z</time>
      </trkpt>
      <trkpt lat="44.15307" lon="5.01888">
        <ele>448.7</ele>
        <time>2021-12-29T15:19:25Z</time>
      </trkpt>
      <trkpt lat="44.15308" lon="5.01869">
        <ele>448.4</ele>
        <time>2021-12-29T15:19:35Z</time>
      </trkpt>
      <trkpt lat="44.15303" lon="5.01838">
        <ele>446.7</ele>
        <time>2021-12-29T15:19:54Z</time>
      </trkpt>
      <trkpt lat="44.15294" lon="5.01805">
        <ele>447.2</ele>
        <time>2021-12-29T15:20:15Z</time>
      </trkpt>
      <trkpt lat="44.15289" lon="5.01771">
        <ele>445</ele>
        <time>2021-12-29T15:20:33Z</time>
      </trkpt>
      <trkpt lat="44.15286" lon="5.01741">
        <ele>444.3</ele>
        <time>2021-12-29T15:20:51Z</time>
      </trkpt>
      <trkpt lat="44.15277" lon="5.01701">
        <ele>441.4</ele>
        <time>2021-12-29T15:21:11Z</time>
      </trkpt>
      <trkpt lat="44.15271" lon="5.01672">
        <ele>438.5</ele>
        <time>2021-12-29T15:21:28Z</time>
      </trkpt>
      <trkpt lat="44.15262" lon="5.01641">
        <ele>438.02</ele>
        <time>2021-12-29T15:21:46Z</time>
      </trkpt>
      <trkpt lat="44.15256" lon="5.01613">
        <ele>437.54</ele>
        <time>2021-12-29T15:22:03Z</time>
      </trkpt>
      <trkpt lat="44.15248" lon="5.01582">
        <ele>440</ele>
        <time>2021-12-29T15:22:20Z</time>
      </trkpt>
      <trkpt lat="44.15241" lon="5.01546">
        <ele>439.2</ele>
        <time>2021-12-29T15:22:39Z</time>
      </trkpt>
      <trkpt lat="44.15235" lon="5.01516">
        <ele>436.1</ele>
        <time>2021-12-29T15:22:57Z</time>
      </trkpt>
      <trkpt lat="44.15227" lon="5.01484">
        <ele>435.61</ele>
        <time>2021-12-29T15:23:16Z</time>
      </trkpt>
      <trkpt lat="44.1522" lon="5.01452">
        <ele>434.17</ele>
        <time>2021-12-29T15:23:35Z</time>
      </trkpt>
      <trkpt lat="44.15219" lon="5.0145">
        <ele>434.17</ele>
        <time>2021-12-29T15:23:36Z</time>
      </trkpt>
      <trkpt lat="44.15215" lon="5.0142">
        <ele>433.21</ele>
        <time>2021-12-29T15:23:53Z</time>
      </trkpt>
      <trkpt lat="44.15211" lon="5.01382">
        <ele>431.77</ele>
        <time>2021-12-29T15:24:14Z</time>
      </trkpt>
      <trkpt lat="44.15211" lon="5.01349">
        <ele>430.33</ele>
        <time>2021-12-29T15:24:31Z</time>
      </trkpt>
      <trkpt lat="44.15213" lon="5.01325">
        <ele>429.37</ele>
        <time>2021-12-29T15:24:47Z</time>
      </trkpt>
      <trkpt lat="44.15213" lon="5.01321">
        <ele>428.89</ele>
        <time>2021-12-29T15:24:49Z</time>
      </trkpt>
      <trkpt lat="44.15212" lon="5.0132">
        <ele>428.89</ele>
        <time>2021-12-29T15:24:50Z</time>
      </trkpt>
      <trkpt lat="44.15214" lon="5.01287">
        <ele>426.96</ele>
        <time>2021-12-29T15:25:09Z</time>
      </trkpt>
      <trkpt lat="44.15215" lon="5.01258">
        <ele>428.8</ele>
        <time>2021-12-29T15:25:25Z</time>
      </trkpt>
      <trkpt lat="44.15228" lon="5.01229">
        <ele>427.4</ele>
        <time>2021-12-29T15:25:43Z</time>
      </trkpt>
      <trkpt lat="44.15242" lon="5.01206">
        <ele>420.23</ele>
        <time>2021-12-29T15:26:00Z</time>
      </trkpt>
      <trkpt lat="44.15255" lon="5.01192">
        <ele>418.79</ele>
        <time>2021-12-29T15:26:14Z</time>
      </trkpt>
      <trkpt lat="44.15274" lon="5.01167">
        <ele>420.2</ele>
        <time>2021-12-29T15:26:33Z</time>
      </trkpt>
      <trkpt lat="44.15293" lon="5.0115">
        <ele>418.9</ele>
        <time>2021-12-29T15:26:51Z</time>
      </trkpt>
      <trkpt lat="44.15303" lon="5.01143">
        <ele>417.4</ele>
        <time>2021-12-29T15:27:04Z</time>
      </trkpt>
      <trkpt lat="44.15329" lon="5.01139">
        <ele>410.62</ele>
        <time>2021-12-29T15:27:20Z</time>
      </trkpt>
      <trkpt lat="44.15352" lon="5.01135">
        <ele>413.8</ele>
        <time>2021-12-29T15:27:38Z</time>
      </trkpt>
      <trkpt lat="44.15372" lon="5.01132">
        <ele>411.9</ele>
        <time>2021-12-29T15:27:54Z</time>
      </trkpt>
      <trkpt lat="44.15392" lon="5.01129">
        <ele>409.9</ele>
        <time>2021-12-29T15:28:10Z</time>
      </trkpt>
      <trkpt lat="44.15398" lon="5.01127">
        <ele>409.8</ele>
        <time>2021-12-29T15:28:11Z</time>
      </trkpt>
      <trkpt lat="44.15417" lon="5.01118">
        <ele>410</ele>
        <time>2021-12-29T15:28:28Z</time>
      </trkpt>
      <trkpt lat="44.15436" lon="5.01106">
        <ele>407.5</ele>
      </trkpt>
      <trkpt lat="44.15444" lon="5.01098">
        <ele>406.6</ele>
        <time>2021-12-29T15:28:49Z</time>
      </trkpt>
      <trkpt lat="44.15464" lon="5.01069">
        <ele>406.4</ele>
      </trkpt>
      <trkpt lat="44.1547" lon="5.01064">
        <ele>406.3</ele>
        <time>2021-12-29T15:29:09Z</time>
      </trkpt>
      <trkpt lat="44.15477" lon="5.01061">
        <ele>406.8</ele>
      </trkpt>
      <trkpt lat="44.15492" lon="5.01058">
        <ele>408.1</ele>
        <time>2021-12-29T15:29:28Z</time>
      </trkpt>
      <trkpt lat="44.15512" lon="5.0104">
        <ele>407.6</ele>
        <time>2021-12-29T15:29:44Z</time>
      </trkpt>
      <trkpt lat="44.15528" lon="5.01034">
        <ele>409.6</ele>
        <time>2021-12-29T15:30:01Z</time>
      </trkpt>
      <trkpt lat="44.15544" lon="5.01029">
        <ele>409.8</ele>
        <time>2021-12-29T15:30:15Z</time>
      </trkpt>
      <trkpt lat="44.15559" lon="5.01026">
        <ele>411.9</ele>
        <time>2021-12-29T15:30:28Z</time>
      </trkpt>
      <trkpt lat="44.15566" lon="5.01023">
        <ele>413.5</ele>
        <time>2021-12-29T15:30:45Z</time>
      </trkpt>
      <trkpt lat="44.15587" lon="5.01021">
        <ele>417.4</ele>
        <time>2021-12-29T15:30:55Z</time>
      </trkpt>
      <trkpt lat="44.15597" lon="5.01022">
        <ele>417.1</ele>
        <time>2021-12-29T15:31:07Z</time>
      </trkpt>
      <trkpt lat="44.15607" lon="5.01026">
        <ele>417.5</ele>
        <time>2021-12-29T15:31:32Z</time>
      </trkpt>
      <trkpt lat="44.15619" lon="5.0103">
        <ele>418</ele>
        <time>2021-12-29T15:31:47Z</time>
      </trkpt>
      <trkpt lat="44.15625" lon="5.01034">
        <ele>418.6</ele>
        <time>2021-12-29T15:32:02Z</time>
      </trkpt>
      <trkpt lat="44.15631" lon="5.01038">
        <ele>419.2</ele>
      </trkpt>
      <trkpt lat="44.15638" lon="5.01046">
        <ele>420.8</ele>
        <time>2021-12-29T15:32:20Z</time>
      </trkpt>
      <trkpt lat="44.15646" lon="5.01056">
        <ele>421.8</ele>
        <time>2021-12-29T15:33:11Z</time>
      </trkpt>
      <trkpt lat="44.15655" lon="5.01066">
        <ele>423.4</ele>
        <time>2021-12-29T15:33:13Z</time>
      </trkpt>
      <trkpt lat="44.1567" lon="5.01079">
        <ele>425.2</ele>
        <time>2021-12-29T15:33:27Z</time>
      </trkpt>
      <trkpt lat="44.15683" lon="5.01088">
        <ele>426.5</ele>
        <time>2021-12-29T15:33:43Z</time>
      </trkpt>
      <trkpt lat="44.15697" lon="5.011">
        <ele>428.8</ele>
        <time>2021-12-29T15:33:55Z</time>
      </trkpt>
      <trkpt lat="44.15707" lon="5.01109">
        <ele>430.7</ele>
        <time>2021-12-29T15:33:56Z</time>
      </trkpt>
      <trkpt lat="44.15716" lon="5.01125">
        <ele>431.8</ele>
        <time>2021-12-29T15:36:03Z</time>
      </trkpt>
      <trkpt lat="44.15717" lon="5.01132">
        <ele>432.4</ele>
      </trkpt>
      <trkpt lat="44.15717" lon="5.01139">
        <ele>433.2</ele>
      </trkpt>
      <trkpt lat="44.15729" lon="5.01132">
        <ele>432.6</ele>
      </trkpt>
      <trkpt lat="44.15739" lon="5.01134">
        <ele>434</ele>
      </trkpt>
      <trkpt lat="44.15747" lon="5.01133">
        <ele>435.2</ele>
      </trkpt>
      <trkpt lat="44.15763" lon="5.01126">
        <ele>440.7</ele>
      </trkpt>
      <trkpt lat="44.15774" lon="5.01124">
        <ele>444.7</ele>
      </trkpt>
      <trkpt lat="44.15783" lon="5.01127">
        <ele>447.7</ele>
      </trkpt>
      <trkpt lat="44.15793" lon="5.01127">
        <ele>451.5</ele>
      </trkpt>
      <trkpt lat="44.15798" lon="5.01122">
        <ele>454.1</ele>
      </trkpt>
      <trkpt lat="44.15801" lon="5.01115">
        <ele>456</ele>
      </trkpt>
      <trkpt lat="44.15802" lon="5.01106">
        <ele>457.4</ele>
      </trkpt>
      <trkpt lat="44.15804" lon="5.01097">
        <ele>459.3</ele>
      </trkpt>
      <trkpt lat="44.15805" lon="5.01087">
        <ele>461.3</ele>
      </trkpt>
      <trkpt lat="44.15808" lon="5.0108">
        <ele>459.2</ele>
      </trkpt>
      <trkpt lat="44.15811" lon="5.0108">
        <ele>456.8</ele>
      </trkpt>
      <trkpt lat="44.15814" lon="5.01087">
        <ele>456.6</ele>
      </trkpt>
      <trkpt lat="44.15817" lon="5.01086">
        <ele>455</ele>
      </trkpt>
      <trkpt lat="44.15816" lon="5.01082">
        <ele>454.9</ele>
      </trkpt>
      <trkpt lat="44.15816" lon="5.01087">
        <ele>455.1</ele>
      </trkpt>
      <trkpt lat="44.15814" lon="5.01087">
        <ele>456.4</ele>
      </trkpt>
      <trkpt lat="44.1581" lon="5.0108">
        <ele>457.3</ele>
      </trkpt>
      <trkpt lat="44.15808" lon="5.0108">
        <ele>458.3</ele>
      </trkpt>
      <trkpt lat="44.15806" lon="5.01085">
        <ele>461.6</ele>
      </trkpt>
      <trkpt lat="44.15803" lon="5.01097">
        <ele>458.9</ele>
      </trkpt>
      <trkpt lat="44.15796" lon="5.01087">
        <ele>457.3</ele>
      </trkpt>
      <trkpt lat="44.15794" lon="5.01082">
        <ele>456.4</ele>
      </trkpt>
      <trkpt lat="44.15795" lon="5.01077">
        <ele>455.3</ele>
      </trkpt>
      <trkpt lat="44.15797" lon="5.01071">
        <ele>453.9</ele>
      </trkpt>
      <trkpt lat="44.158" lon="5.01067">
        <ele>452.7</ele>
      </trkpt>
      <trkpt lat="44.15804" lon="5.01064">
        <ele>451.7</ele>
      </trkpt>
      <trkpt lat="44.15809" lon="5.01064">
        <ele>449.9</ele>
      </trkpt>
      <trkpt lat="44.15813" lon="5.01065">
        <ele>448.2</ele>
      </trkpt>
      <trkpt lat="44.15818" lon="5.0107">
        <ele>448.5</ele>
      </trkpt>
      <trkpt lat="44.15823" lon="5.01077">
        <ele>448.3</ele>
      </trkpt>
      <trkpt lat="44.15849" lon="5.01092">
        <ele>439</ele>
      </trkpt>
      <trkpt lat="44.15859" lon="5.01098">
        <ele>435.6</ele>
      </trkpt>
      <trkpt lat="44.15865" lon="5.01098">
        <ele>433.8</ele>
      </trkpt>
      <trkpt lat="44.1587" lon="5.01098">
        <ele>432.1</ele>
      </trkpt>
      <trkpt lat="44.15875" lon="5.01098">
        <ele>430.4</ele>
      </trkpt>
      <trkpt lat="44.15882" lon="5.01094">
        <ele>427.4</ele>
      </trkpt>
      <trkpt lat="44.15884" lon="5.0109">
        <ele>425.5</ele>
      </trkpt>
      <trkpt lat="44.15884" lon="5.01084">
        <ele>423.7</ele>
      </trkpt>
      <trkpt lat="44.15891" lon="5.01098">
        <ele>425.3</ele>
      </trkpt>
      <trkpt lat="44.15895" lon="5.01106">
        <ele>426.1</ele>
      </trkpt>
      <trkpt lat="44.15899" lon="5.01113">
        <ele>426.4</ele>
      </trkpt>
      <trkpt lat="44.15908" lon="5.01129">
        <ele>425.6</ele>
      </trkpt>
      <trkpt lat="44.15911" lon="5.01138">
        <ele>425.7</ele>
      </trkpt>
      <trkpt lat="44.15928" lon="5.01154">
        <ele>420.1</ele>
      </trkpt>
      <trkpt lat="44.15939" lon="5.01165">
        <ele>418.5</ele>
      </trkpt>
      <trkpt lat="44.15968" lon="5.01213">
        <ele>410.2</ele>
      </trkpt>
      <trkpt lat="44.15987" lon="5.01238">
        <ele>405.9</ele>
      </trkpt>
      <trkpt lat="44.15993" lon="5.01258">
        <ele>404.8</ele>
      </trkpt>
      <trkpt lat="44.15998" lon="5.0127">
        <ele>403.2</ele>
      </trkpt>
      <trkpt lat="44.16003" lon="5.01282">
        <ele>400.6</ele>
      </trkpt>
      <trkpt lat="44.16012" lon="5.0129">
        <ele>399.4</ele>
      </trkpt>
      <trkpt lat="44.1602" lon="5.013">
        <ele>398.9</ele>
      </trkpt>
      <trkpt lat="44.16029" lon="5.01317">
        <ele>396.2</ele>
      </trkpt>
      <trkpt lat="44.16038" lon="5.01329">
        <ele>391.7</ele>
      </trkpt>
      <trkpt lat="44.16049" lon="5.01332">
        <ele>390.4</ele>
      </trkpt>
      <trkpt lat="44.16055" lon="5.01323">
        <ele>391.2</ele>
      </trkpt>
      <trkpt lat="44.16065" lon="5.01301">
        <ele>390.9</ele>
      </trkpt>
      <trkpt lat="44.16067" lon="5.01306">
        <ele>390.5</ele>
      </trkpt>
      <trkpt lat="44.16069" lon="5.01307">
        <ele>390</ele>
      </trkpt>
      <trkpt lat="44.16072" lon="5.01307">
        <ele>389.1</ele>
      </trkpt>
      <trkpt lat="44.16073" lon="5.01312">
        <ele>387.9</ele>
      </trkpt>
      <trkpt lat="44.16071" lon="5.0132">
        <ele>386.8</ele>
      </trkpt>
      <trkpt lat="44.16069" lon="5.01332">
        <ele>385.5</ele>
      </trkpt>
      <trkpt lat="44.16067" lon="5.01345">
        <ele>384.7</ele>
      </trkpt>
      <trkpt lat="44.16065" lon="5.0136">
        <ele>383.7</ele>
      </trkpt>
      <trkpt lat="44.16064" lon="5.01374">
        <ele>381.8</ele>
      </trkpt>
      <trkpt lat="44.16067" lon="5.01381">
        <ele>379.2</ele>
      </trkpt>
      <trkpt lat="44.16071" lon="5.01381">
        <ele>377</ele>
      </trkpt>
      <trkpt lat="44.16074" lon="5.01382">
        <ele>375.7</ele>
      </trkpt>
      <trkpt lat="44.16082" lon="5.01371">
        <ele>373.7</ele>
      </trkpt>
      <trkpt lat="44.16088" lon="5.01368">
        <ele>373.9</ele>
      </trkpt>
      <trkpt lat="44.16093" lon="5.01368">
        <ele>374</ele>
      </trkpt>
      <trkpt lat="44.16097" lon="5.01369">
        <ele>373.7</ele>
      </trkpt>
      <trkpt lat="44.16101" lon="5.01373">
        <ele>372.4</ele>
      </trkpt>
      <trkpt lat="44.16114" lon="5.01389">
        <ele>366.9</ele>
      </trkpt>
      <trkpt lat="44.16121" lon="5.01398">
        <ele>366.2</ele>
      </trkpt>
      <trkpt lat="44.16133" lon="5.01414">
        <ele>363.8</ele>
      </trkpt>
      <trkpt lat="44.16139" lon="5.0142">
        <ele>363</ele>
      </trkpt>
      <trkpt lat="44.16146" lon="5.01424">
        <ele>362</ele>
      </trkpt>
      <trkpt lat="44.16142" lon="5.01433">
        <ele>359.1</ele>
      </trkpt>
      <trkpt lat="44.16139" lon="5.01438">
        <ele>356.9</ele>
      </trkpt>
      <trkpt lat="44.16138" lon="5.0145">
        <ele>353</ele>
      </trkpt>
      <trkpt lat="44.16137" lon="5.0146">
        <ele>349.6</ele>
      </trkpt>
      <trkpt lat="44.16137" lon="5.01467">
        <ele>347.1</ele>
      </trkpt>
      <trkpt lat="44.16133" lon="5.01476">
        <ele>343.3</ele>
      </trkpt>
      <trkpt lat="44.16132" lon="5.01481">
        <ele>341.3</ele>
      </trkpt>
      <trkpt lat="44.16129" lon="5.01485">
        <ele>339.3</ele>
      </trkpt>
      <trkpt lat="44.16127" lon="5.0149">
        <ele>337.2</ele>
      </trkpt>
      <trkpt lat="44.16127" lon="5.015">
        <ele>334.2</ele>
      </trkpt>
      <trkpt lat="44.16129" lon="5.01512">
        <ele>330.8</ele>
      </trkpt>
      <trkpt lat="44.16125" lon="5.01535">
        <ele>322.3</ele>
      </trkpt>
      <trkpt lat="44.16127" lon="5.01557">
        <ele>317.1</ele>
      </trkpt>
      <trkpt lat="44.16127" lon="5.01567">
        <ele>314.6</ele>
      </trkpt>
      <trkpt lat="44.16125" lon="5.0158">
        <ele>311.8</ele>
      </trkpt>
      <trkpt lat="44.16123" lon="5.01594">
        <ele>309.5</ele>
      </trkpt>
      <trkpt lat="44.16122" lon="5.01603">
        <ele>308.5</ele>
      </trkpt>
      <trkpt lat="44.16122" lon="5.01616">
        <ele>306.7</ele>
      </trkpt>
      <trkpt lat="44.16112" lon="5.0162">
        <ele>307.5</ele>
      </trkpt>
      <trkpt lat="44.16102" lon="5.01625">
        <ele>308.3</ele>
      </trkpt>
      <trkpt lat="44.16091" lon="5.01632">
        <ele>308.6</ele>
      </trkpt>
      <trkpt lat="44.16087" lon="5.01633">
        <ele>308.8</ele>
      </trkpt>
      <trkpt lat="44.16082" lon="5.01633">
        <ele>309.4</ele>
      </trkpt>
      <trkpt lat="44.16077" lon="5.01635">
        <ele>309.9</ele>
      </trkpt>
      <trkpt lat="44.16067" lon="5.01639">
        <ele>310.3</ele>
      </trkpt>
      <trkpt lat="44.1606" lon="5.01642">
        <ele>310.8</ele>
      </trkpt>
      <trkpt lat="44.1605" lon="5.01646">
        <ele>312</ele>
      </trkpt>
      <trkpt lat="44.16039" lon="5.01653">
        <ele>313.3</ele>
      </trkpt>
      <trkpt lat="44.16018" lon="5.01671">
        <ele>316.1</ele>
      </trkpt>
      <trkpt lat="44.15991" lon="5.01691">
        <ele>318.2</ele>
      </trkpt>
      <trkpt lat="44.15987" lon="5.01699">
        <ele>317.9</ele>
      </trkpt>
      <trkpt lat="44.15981" lon="5.01705">
        <ele>318.7</ele>
      </trkpt>
      <trkpt lat="44.15972" lon="5.01711">
        <ele>319.6</ele>
      </trkpt>
      <trkpt lat="44.15965" lon="5.0172">
        <ele>319.9</ele>
      </trkpt>
      <trkpt lat="44.1596" lon="5.01721">
        <ele>320.7</ele>
      </trkpt>
      <trkpt lat="44.15955" lon="5.01727">
        <ele>322.7</ele>
      </trkpt>
      <trkpt lat="44.15966" lon="5.01727">
        <ele>320.5</ele>
      </trkpt>
      <trkpt lat="44.1597" lon="5.01727">
        <ele>319.7</ele>
      </trkpt>
      <trkpt lat="44.15993" lon="5.01741">
        <ele>317.5</ele>
      </trkpt>
      <trkpt lat="44.15999" lon="5.01751">
        <ele>316.4</ele>
      </trkpt>
      <trkpt lat="44.16" lon="5.01762">
        <ele>316.8</ele>
      </trkpt>
      <trkpt lat="44.16002" lon="5.01769">
        <ele>317</ele>
      </trkpt>
      <trkpt lat="44.16002" lon="5.0178">
        <ele>317.9</ele>
      </trkpt>
      <trkpt lat="44.16003" lon="5.01791">
        <ele>318.3</ele>
      </trkpt>
      <trkpt lat="44.16005" lon="5.01808">
        <ele>319.7</ele>
      </trkpt>
      <trkpt lat="44.16036" lon="5.01785">
        <ele>317.4</ele>
      </trkpt>
      <trkpt lat="44.16036" lon="5.01779">
        <ele>316.3</ele>
      </trkpt>
      <trkpt lat="44.16037" lon="5.01773">
        <ele>315.3</ele>
      </trkpt>
      <trkpt lat="44.1604" lon="5.01766">
        <ele>314.3</ele>
      </trkpt>
      <trkpt lat="44.16045" lon="5.01761">
        <ele>313.8</ele>
      </trkpt>
      <trkpt lat="44.16071" lon="5.01744">
        <ele>312.2</ele>
      </trkpt>
      <trkpt lat="44.16077" lon="5.01741">
        <ele>312.3</ele>
      </trkpt>
      <trkpt lat="44.16084" lon="5.0174">
        <ele>312.6</ele>
      </trkpt>
      <trkpt lat="44.16091" lon="5.0174">
        <ele>312.5</ele>
      </trkpt>
      <trkpt lat="44.16108" lon="5.01737">
        <ele>312.1</ele>
      </trkpt>
      <trkpt lat="44.16115" lon="5.01737">
        <ele>312</ele>
        <time>2021-12-29T15:36:20Z</time>
      </trkpt>
    </trkseg>
  </trk>
</gpx>